GFSGBSN_925_spd_000.txt.gz
Wind_Speed
23 22 21 23 21 18 16 15 15 17 15 13 12 11 10 9 9 9 8 6 6 7 6 5 5 6 6 8 13 4 3 6 0 10 18 15 14 12 15 11 17 23 19 21 17 16 17
23 24 23 21 24 22 18 16 15 15 17 15 13 12 12 10 10 9 9 7 7 8 8 7 7 7 7 15 12 18 8 6 5 4 15 17 12 13 15 17 18 10 20 19 18 17 14
23 23 24 22 23 23 21 19 16 14 14 17 14 13 14 13 11 10 8 8 8 9 10 7 7 8 11 14 6 10 14 15 12 11 9 14 18 13 6 15 12 18 15 15 22 19 14
24 24 24 24 24 24 23 20 17 16 15 15 16 15 14 16 13 12 10 7 9 8 11 8 6 9 7 13 25 11 6 9 12 14 15 15 13 9 15 8 10 9 10 13 19 17 18
25 23 24 25 25 25 23 21 19 18 17 16 15 16 13 15 14 12 10 7 7 8 10 7 4 8 7 6 18 19 17 12 10 10 9 15 13 9 9 10 7 9 13 21 15 18 16
26 24 24 25 25 24 22 22 21 18 17 17 16 16 14 14 14 11 8 5 3 6 6 5 9 3 8 10 9 17 21 21 13 12 9 8 6 9 10 11 17 12 12 13 18 18 17
33 27 26 25 27 25 22 23 21 19 18 18 16 14 15 13 13 12 7 1 1 1 8 9 8 7 1 11 3 11 17 16 14 12 13 12 8 18 21 21 18 17 19 17 15 17 18
32 35 29 28 27 27 25 23 21 19 18 17 15 14 13 12 13 13 10 3 3 3 6 18 19 18 24 8 8 12 15 13 15 16 15 14 19 26 17 18 18 21 20 18 17 17 21
33 32 26 26 29 28 27 24 23 19 18 17 14 14 13 12 10 11 14 11 6 3 5 6 20 19 15 13 14 12 17 16 16 18 19 19 24 17 19 18 20 21 22 18 16 19 7
34 32 28 23 20 29 28 26 24 22 18 16 15 15 13 12 5 12 15 15 12 3 4 5 6 6 15 7 7 18 18 16 12 20 18 16 21 20 19 22 19 20 21 19 17 17 9
34 32 31 29 21 22 29 28 24 22 18 16 16 17 16 20 6 6 5 10 8 4 5 8 6 5 7 10 4 11 26 16 18 17 11 10 15 21 24 23 21 22 12 16 22 9 4
35 32 30 26 26 21 25 28 24 21 19 17 18 18 18 13 9 7 11 14 8 2 8 6 5 7 9 11 8 7 18 15 12 17 18 16 13 16 15 21 20 20 12 15 14 6 7
37 35 30 27 23 21 31 27 24 20 20 19 21 20 23 15 8 18 16 5 3 5 2 5 5 7 14 12 12 9 18 20 9 7 10 7 19 12 3 5 19 19 12 7 6 7 5
37 39 30 25 21 27 29 22 24 21 21 21 23 23 22 15 14 25 15 2 6 7 8 3 4 9 8 8 8 16 10 16 18 12 2 10 9 16 11 8 10 18 15 3 5 4 5
38 39 32 25 20 25 33 20 21 22 22 22 23 26 13 20 24 28 5 5 4 4 3 5 5 7 6 6 6 14 15 6 10 18 7 5 9 10 12 13 11 3 11 18 6 7 4
37 37 34 28 20 26 34 14 19 21 23 23 17 14 8 23 32 20 5 9 6 6 7 5 9 12 9 11 8 12 11 7 16 17 13 2 5 5 11 9 17 8 11 11 7 5 7
37 37 34 42 21 22 26 26 20 25 25 30 13 4 11 28 27 5 7 7 9 12 7 8 11 10 11 10 13 12 8 12 14 15 15 7 6 3 2 11 15 8 5 8 5 2 6
37 39 33 38 19 24 23 28 18 21 25 30 6 3 20 33 6 3 7 6 3 10 13 9 13 18 12 11 15 11 12 7 13 15 10 8 4 3 8 3 11 5 9 21 2 2 2
37 38 35 35 28 19 24 33 20 24 33 14 6 3 20 19 5 6 6 7 7 3 7 8 8 10 7 7 7 15 14 9 11 10 14 10 5 1 5 8 5 8 6 3 5 2 4
36 39 40 36 30 26 28 35 16 31 36 18 4 5 3 4 3 6 11 7 6 13 18 14 13 16 7 8 10 1 10 6 9 15 15 7 4 7 4 6 10 6 5 4 5 2 2
34 35 38 37 33 28 36 30 13 30 36 13 3 4 5 5 8 10 4 4 8 6 13 14 6 12 9 7 8 10 13 7 8 14 10 3 4 9 5 18 14 11 9 7 5 4 2
36 33 37 36 31 29 30 31 43 28 37 5 4 3 4 1 10 16 15 9 9 7 4 6 12 8 16 11 8 12 10 9 7 8 12 8 6 11 9 6 11 10 12 12 9 5 6
34 34 34 35 32 30 30 31 36 21 26 3 4 1 2 3 7 7 7 10 10 11 10 18 12 13 11 14 6 11 10 11 7 9 10 6 3 5 4 2 6 2 8 10 8 8 7
31 32 34 35 34 29 29 28 31 14 26 6 4 3 2 4 6 8 11 13 16 13 15 6 15 14 3 2 4 12 9 8 7 1 8 8 3 2 3 2 1 2 3 4 11 8 9
30 30 32 33 35 30 29 27 28 27 23 13 7 4 2 2 5 9 13 3 1 3 7 11 3 2 3 4 3 4 2 4 5 5 7 11 4 1 2 3 5 4 2 0 5 6 6
29 28 31 33 33 30 28 26 29 21 18 18 11 11 2 1 3 4 6 4 7 3 2 5 0 4 5 2 2 3 3 3 3 3 5 2 6 3 4 1 2 2 1 5 4 2 6
28 27 29 32 32 31 28 24 26 26 21 19 7 18 3 2 4 4 3 2 3 1 1 3 4 2 4 3 4 3 4 7 6 6 5 5 4 5 2 2 5 3 4 3 4 3 4
27 27 29 31 31 31 27 24 25 22 20 21 6 18 8 2 3 1 0 2 2 2 2 3 4 2 2 3 2 2 3 6 5 7 7 6 7 4 3 2 6 6 4 3 3 2 2
25 26 28 30 28 27 25 23 22 21 20 22 3 17 21 1 2 2 5 5 6 1 1 3 3 9 4 3 2 2 2 3 5 4 7 6 5 5 7 5 2 3 3 2 4 4 5

GFSGBSN_925_spd_003.txt.gz
Wind_Speed
20 21 22 21 21 21 22 18 15 14 15 13 11 9 9 8 6 6 5 4 4 3 2 3 1 1 4 5 6 2 8 8 6 7 13 9 6 3 5 4 5 13 15 14 17 18 20
22 22 23 22 24 21 23 21 17 15 14 14 13 11 10 9 8 7 6 6 5 5 4 3 2 2 1 10 9 16 10 6 3 8 11 12 6 6 7 6 10 6 10 19 20 18 19
27 24 23 23 24 24 22 22 19 17 16 13 16 13 11 11 9 8 6 7 7 7 6 5 3 3 5 12 7 7 22 14 8 3 1 19 20 4 5 5 5 9 14 16 17 21 15
31 29 26 22 24 25 24 23 21 19 17 16 15 16 14 12 12 8 8 7 7 7 6 5 3 5 6 6 16 25 7 6 6 9 13 15 6 3 4 5 6 4 5 14 12 10 12
32 33 33 25 25 24 25 24 23 21 19 18 16 16 15 11 11 9 6 6 6 6 5 4 4 4 7 3 13 18 16 5 5 8 13 14 6 4 4 3 4 4 9 8 6 7 6
32 33 33 31 26 27 25 24 22 21 20 20 18 17 16 12 11 9 7 3 1 5 3 3 5 1 5 4 7 16 16 15 6 4 4 4 4 5 2 4 12 8 6 11 8 6 12
32 31 33 36 36 29 27 27 24 22 21 21 20 18 17 14 11 11 10 4 3 0 6 9 8 4 4 9 5 10 17 9 6 0 4 5 6 11 11 9 11 8 16 13 11 9 12
32 33 33 34 32 30 28 29 26 24 22 22 20 20 17 16 12 13 11 4 2 3 5 17 16 15 15 4 4 7 12 9 9 15 4 7 17 11 10 12 10 14 15 21 15 15 8
34 33 32 35 34 37 33 28 27 25 23 21 20 20 19 16 13 13 17 9 5 2 4 6 15 12 15 13 12 9 12 10 9 9 12 16 5 15 12 13 14 16 17 16 16 14 15
35 36 35 36 31 33 31 19 23 26 25 21 19 20 22 17 9 13 8 18 8 2 3 4 3 5 7 3 6 21 25 11 7 16 12 14 13 16 12 18 14 17 16 15 16 10 10
36 37 36 36 34 31 23 23 20 23 27 23 22 23 26 25 8 10 7 16 15 3 4 6 5 2 2 8 8 7 19 16 15 10 9 8 7 14 18 24 16 15 13 12 11 12 15
35 38 37 35 36 33 26 26 20 23 25 26 25 27 27 21 7 12 17 21 9 3 8 6 5 4 3 9 6 1 7 9 1 13 14 15 3 4 15 15 16 3 2 8 6 6 11
36 39 37 37 36 36 22 22 24 20 24 29 28 30 31 22 9 22 26 7 3 4 2 5 4 6 8 9 12 8 5 12 5 5 7 6 15 5 3 2 6 4 3 4 5 6 10
37 38 37 36 34 29 31 23 26 21 23 35 33 31 29 19 19 27 16 3 6 5 6 3 3 8 7 8 10 11 3 7 13 6 1 6 5 13 10 10 7 8 14 6 7 6 7
35 37 37 38 33 42 27 25 28 19 19 35 36 30 22 18 28 31 4 4 6 5 3 6 5 6 5 7 5 10 12 5 7 16 7 5 8 4 14 12 13 7 12 19 4 4 3
36 37 37 37 38 46 21 24 28 33 20 40 28 21 17 27 37 19 2 6 5 1 6 5 9 10 7 7 9 9 8 9 8 15 16 3 6 3 9 10 11 11 11 12 5 5 6
35 36 38 38 38 42 22 17 25 25 14 44 19 6 21 33 23 5 3 7 4 6 8 6 7 4 5 7 10 6 6 7 13 11 18 9 6 6 2 12 16 12 7 8 4 8 2
35 35 37 37 37 39 25 24 28 30 19 33 4 5 31 38 7 4 5 5 4 3 4 11 6 7 5 10 10 5 10 7 7 6 14 7 4 5 17 9 13 16 14 10 6 7 9
34 35 37 37 38 40 28 28 36 15 16 16 6 3 27 26 6 5 5 8 7 6 6 7 9 11 9 8 4 13 7 9 13 9 13 9 4 5 6 6 5 14 13 9 9 4 12
34 34 36 37 39 41 35 30 33 31 34 13 4 4 4 4 0 10 8 8 9 5 13 9 4 5 8 5 10 6 12 6 10 13 21 12 4 5 5 4 5 7 21 12 10 6 4
32 32 35 35 37 40 33 34 30 25 37 9 2 2 5 8 7 5 10 4 9 5 9 4 5 12 5 5 5 6 4 2 4 17 5 5 5 3 16 21 16 13 16 17 19 19 7
30 31 33 33 36 38 38 36 32 37 10 3 4 3 2 6 10 14 8 5 5 4 5 3 5 7 11 7 6 3 7 4 4 9 4 4 4 4 5 7 14 15 21 19 10 2 7
29 30 31 31 34 35 35 32 29 31 28 2 3 2 2 5 8 7 7 11 12 11 9 12 11 7 10 15 9 2 4 4 6 10 7 9 3 5 4 12 13 3 9 7 3 1 4
28 29 30 29 32 35 36 32 29 27 35 13 6 4 3 3 3 7 3 11 14 14 11 6 9 12 5 1 5 2 4 5 2 4 8 7 6 3 4 5 2 4 1 6 7 4 3
28 27 30 28 31 33 32 30 25 23 30 2 5 4 3 3 6 8 8 6 3 1 3 11 13 5 8 2 3 2 1 1 4 4 2 3 4 2 2 2 4 3 3 3 6 4 1
27 26 28 28 29 32 33 30 28 24 28 15 12 10 2 3 4 4 3 1 1 3 4 4 1 3 3 2 3 4 3 3 3 2 4 5 3 2 3 1 1 3 3 4 1 1 3
27 26 26 27 28 31 30 27 25 22 26 11 6 9 4 2 3 3 2 2 2 1 2 2 4 1 2 2 1 3 4 6 6 5 5 4 3 5 2 2 6 4 2 4 4 4 3
26 24 24 25 26 29 28 26 24 21 21 6 4 17 6 2 2 3 4 3 1 3 2 1 2 1 2 5 4 3 3 5 4 4 7 7 5 3 3 2 6 4 2 4 4 1 5
25 25 24 25 26 28 27 26 23 21 21 16 4 16 15 1 1 1 4 7 5 5 0 2 2 5 4 3 3 2 2 4 5 4 3 4 6 6 6 5 2 2 2 2 4 5 4

GFSGBSN_925_spd_006.txt.gz
Wind_Speed
29 29 21 21 21 20 22 20 19 19 17 17 15 14 12 11 9 7 5 4 2 1 2 1 2 3 6 3 6 1 6 7 6 14 17 7 5 3 5 4 4 9 8 10 11 14 15
28 29 31 28 23 22 21 21 21 20 18 17 16 15 14 12 11 9 6 5 4 4 3 2 1 4 2 5 7 10 10 3 5 8 10 11 6 7 5 6 8 5 6 11 11 15 9
27 30 30 33 31 23 23 22 21 21 20 18 18 16 16 13 12 11 7 5 5 5 5 3 2 4 3 11 6 4 3 13 10 9 4 15 18 2 1 4 4 6 9 11 9 5 9
27 28 29 30 33 32 23 24 25 22 22 20 20 18 19 15 14 13 9 7 6 7 7 6 4 4 6 7 6 16 12 4 7 10 7 8 9 9 4 5 6 4 4 8 5 9 5
30 29 29 30 31 31 31 26 25 26 24 23 21 19 19 16 14 14 11 8 5 6 6 5 4 3 7 3 6 14 12 5 3 3 9 10 4 3 2 2 4 4 6 6 5 6 5
31 32 32 31 30 32 31 28 28 28 26 24 23 21 19 17 15 13 11 6 4 7 5 4 2 2 5 4 5 3 12 10 3 3 4 2 2 3 2 5 14 12 7 8 7 3 8
31 33 32 33 31 33 32 33 32 28 28 26 24 22 22 19 17 15 14 7 3 1 6 8 7 3 2 4 5 3 9 6 2 3 4 2 4 11 11 10 5 8 9 12 4 5 10
32 32 32 34 33 34 33 32 34 32 30 27 25 24 23 21 19 18 17 4 4 3 4 14 12 11 9 4 2 3 12 6 7 9 4 3 11 8 7 8 10 11 15 15 10 10 9
33 31 31 34 34 35 35 29 31 32 26 27 26 25 25 22 19 19 19 10 7 2 2 5 6 6 5 10 6 7 11 6 7 16 16 14 6 15 13 11 10 14 17 9 9 13 18
34 34 32 35 35 35 34 32 33 28 20 25 25 26 28 24 14 15 12 15 9 1 3 4 3 3 6 5 5 19 19 7 5 14 16 13 16 15 10 15 10 17 8 13 13 7 6
36 37 34 35 35 33 31 31 31 24 29 16 24 27 32 34 13 13 10 20 13 2 3 4 3 1 3 8 5 3 21 8 14 9 7 8 8 16 21 18 14 11 8 12 11 10 8
35 37 33 35 35 35 32 31 39 27 23 26 15 32 36 23 13 12 14 23 10 3 7 5 4 5 5 6 3 3 9 9 1 15 15 8 1 5 7 11 18 3 10 8 7 4 10
36 37 34 34 34 35 30 33 46 24 24 25 29 39 42 32 11 24 31 10 3 4 2 6 4 5 5 7 7 8 7 8 5 7 8 6 18 5 2 4 5 13 8 4 6 6 8
35 37 34 35 37 38 32 36 42 23 22 22 25 48 39 25 30 35 18 2 6 5 5 4 5 8 7 7 7 10 5 8 14 5 2 7 3 14 11 17 6 14 16 5 6 4 4
35 35 34 34 36 36 37 43 34 20 21 28 25 36 29 22 38 36 8 4 6 6 6 9 7 6 8 6 5 10 9 8 11 13 8 6 6 2 5 5 14 5 11 20 7 5 3
34 33 33 34 36 37 38 45 32 16 21 24 29 22 22 32 42 20 6 7 5 3 6 4 8 8 8 9 9 8 8 7 8 18 11 6 3 6 4 6 12 10 7 6 6 5 5
34 34 34 34 36 39 40 45 31 26 28 14 10 5 21 37 29 8 7 6 4 4 5 6 7 8 7 6 8 7 5 4 12 10 18 4 4 1 1 6 12 9 9 5 7 8 3
32 34 34 34 35 37 38 42 33 25 27 22 7 5 35 37 7 5 5 5 5 4 4 4 5 9 8 9 7 6 8 7 12 10 10 11 4 5 11 4 10 15 13 13 7 10 8
31 31 33 33 35 37 38 41 34 34 33 8 7 4 32 23 6 9 4 8 5 5 7 7 11 10 10 7 4 11 6 9 9 7 11 10 4 2 4 7 11 12 16 15 13 3 9
30 29 32 33 35 36 38 40 36 34 29 6 3 5 4 6 1 9 13 9 7 7 11 6 5 11 6 7 8 3 8 5 9 12 14 15 4 6 8 3 1 10 20 18 16 10 8
29 28 29 32 33 34 39 40 36 35 35 3 2 3 5 9 6 12 10 4 13 7 6 9 4 10 8 4 6 8 7 4 3 11 9 7 6 6 14 17 14 11 18 23 14 6 13
30 27 28 29 30 31 36 37 34 29 26 1 3 4 3 9 11 7 14 10 11 9 6 6 8 8 14 9 6 1 6 4 4 10 10 5 3 4 16 14 17 7 20 21 11 7 6
30 27 28 29 29 30 34 36 31 26 24 5 3 2 4 10 11 8 6 8 8 4 8 10 11 7 10 15 12 4 5 3 1 4 4 7 4 3 4 6 12 7 19 15 4 8 15
31 26 27 27 28 29 32 33 30 27 21 13 11 2 3 5 9 10 9 14 14 13 10 6 12 7 1 4 3 4 4 4 3 8 9 6 3 5 1 0 3 1 17 23 23 22 22
30 28 26 25 26 28 31 32 30 26 25 25 9 2 2 3 5 4 3 1 4 3 10 12 8 7 5 3 3 2 2 3 0 3 6 5 3 4 3 2 3 3 5 8 11 8 5
28 27 26 25 26 27 30 32 30 26 26 23 11 3 3 3 5 4 5 3 3 1 2 3 1 1 6 5 3 4 4 4 3 3 4 5 2 1 4 2 3 2 2 1 2 2 5
28 27 23 24 25 25 27 30 29 26 24 27 4 7 4 3 2 4 3 3 4 2 2 2 2 3 4 5 3 3 3 2 4 6 5 2 1 4 1 2 6 5 2 1 4 5 2
27 26 24 24 24 25 26 29 28 28 25 21 10 8 3 2 1 3 4 4 2 2 2 1 2 1 2 3 2 3 3 5 2 3 5 5 4 3 3 0 5 1 2 1 3 2 2
26 25 23 24 25 25 26 29 29 29 26 23 3 8 6 3 0 1 3 4 4 4 3 2 2 2 3 3 3 2 2 2 3 3 1 3 5 5 7 5 2 1 0 1 1 3 4

GFSGBSN_925_spd_009.txt.gz
Wind_Speed
25 26 28 28 27 30 25 22 23 21 19 18 18 17 14 15 14 13 11 9 6 3 2 2 3 4 5 3 7 1 3 3 9 18 13 5 3 2 3 3 3 6 2 5 6 10 12
25 26 27 28 29 29 29 30 23 23 21 19 19 20 15 16 15 14 12 10 7 5 3 2 3 4 1 4 6 12 5 3 6 12 9 9 5 5 4 4 4 4 5 6 7 12 7
26 26 27 28 29 31 29 30 32 22 23 21 21 20 18 17 15 14 12 10 7 6 5 4 2 2 1 11 4 6 2 6 6 6 4 12 11 2 2 3 3 4 7 7 7 4 6
27 28 28 28 28 31 29 31 32 25 23 23 23 22 22 18 16 14 13 10 9 7 7 5 3 3 6 4 5 16 13 4 8 11 8 5 9 6 5 6 4 4 3 3 3 10 7
29 30 30 29 30 31 30 30 32 29 26 25 26 24 22 21 17 15 14 10 7 5 6 5 3 1 7 3 4 12 12 5 5 7 7 4 4 4 1 3 6 6 8 5 4 7 6
30 31 32 31 30 31 31 31 32 30 28 26 26 26 25 22 19 15 13 9 4 5 5 4 2 1 5 3 4 3 10 10 2 3 3 4 4 3 3 6 11 5 4 3 6 0 4
30 32 32 31 31 33 34 32 33 29 30 31 23 27 27 25 22 18 16 10 4 1 6 7 6 3 1 3 4 3 6 10 3 4 5 0 5 9 13 8 6 5 9 12 7 7 6
30 31 32 33 34 33 34 32 31 31 31 31 29 27 27 26 24 22 23 5 4 3 4 14 9 11 5 4 2 2 12 6 5 6 4 1 11 7 6 6 8 11 13 14 12 9 11
30 30 32 32 35 34 33 32 30 28 30 28 32 27 26 29 26 24 24 13 6 2 2 5 7 8 5 8 5 6 9 5 4 7 7 11 5 7 7 9 9 9 9 11 12 7 14
29 30 32 32 32 32 32 33 31 26 31 32 30 25 27 32 23 21 14 17 8 2 2 5 5 5 6 4 6 13 15 5 4 10 10 12 13 13 10 11 9 17 6 10 11 5 8
30 31 32 31 31 31 32 36 29 28 32 31 26 21 25 41 23 13 13 22 12 4 2 3 2 2 8 9 3 5 14 4 9 7 5 6 6 11 18 18 9 9 6 9 9 7 7
31 32 32 34 31 32 31 33 32 31 38 30 20 23 17 32 24 21 27 28 10 4 7 5 3 5 7 6 2 3 8 7 3 10 12 7 3 6 6 9 14 2 6 11 5 8 13
32 32 30 33 31 31 30 30 34 36 42 23 16 19 21 36 14 35 39 13 5 4 1 6 5 6 8 5 5 6 10 10 7 6 8 8 17 1 3 4 6 10 5 3 6 8 8
31 32 28 31 32 32 32 34 34 38 34 19 12 17 23 27 33 42 28 4 4 4 5 3 4 6 6 7 5 7 8 10 13 3 2 8 6 18 9 7 6 12 13 6 6 4 5
31 30 29 30 31 32 34 35 36 42 34 12 14 8 16 22 47 40 12 4 7 6 6 8 8 5 7 7 3 10 12 11 8 16 8 3 5 3 7 17 8 5 10 19 13 12 5
31 30 29 30 31 31 33 35 38 38 27 14 9 5 11 38 47 26 8 8 5 4 6 4 7 9 8 9 9 8 7 3 12 12 14 4 4 5 4 5 8 12 5 4 6 5 5
31 30 29 29 29 30 31 32 36 34 27 24 6 5 10 35 32 10 6 5 4 4 4 6 7 8 6 6 9 8 5 3 10 8 16 6 4 2 2 9 12 7 12 7 4 6 4
30 30 29 29 29 30 31 32 34 31 27 6 1 2 29 37 9 6 4 6 6 4 4 3 2 9 9 7 8 6 7 7 8 10 11 11 4 5 14 3 8 11 11 16 4 5 6
31 30 28 28 28 29 30 31 35 33 21 9 3 3 33 27 5 8 4 5 1 4 5 6 7 8 10 7 3 8 5 9 12 12 14 10 4 4 4 4 5 7 9 16 16 5 8
30 30 27 27 27 29 30 30 33 32 27 16 3 3 5 6 0 11 12 8 7 5 9 8 4 8 7 7 7 3 5 4 12 12 10 11 4 6 7 4 1 6 14 19 18 10 12
30 30 28 25 26 27 28 31 34 33 30 8 2 4 5 9 7 13 12 6 9 6 6 9 4 11 9 5 8 7 7 4 4 10 5 6 6 9 16 18 12 11 10 20 21 24 13
29 28 27 24 25 27 28 31 32 31 34 5 2 3 4 7 13 13 14 10 8 12 6 5 7 9 12 7 6 5 5 5 5 7 9 6 4 3 8 16 23 19 18 16 23 20 20
29 28 27 25 24 25 27 32 35 30 22 3 6 3 4 13 11 12 10 9 12 5 7 8 11 10 9 11 15 13 4 6 4 9 9 5 2 2 9 11 7 9 26 21 20 18 15
29 26 27 24 25 26 26 29 32 27 20 12 5 3 2 6 11 14 9 10 8 7 6 3 7 9 4 3 4 4 5 5 5 8 11 6 4 2 5 3 1 5 2 16 20 13 12
28 26 26 22 24 24 24 28 30 28 26 22 8 4 0 4 10 11 10 4 6 6 10 14 7 5 3 3 2 2 0 3 6 7 14 6 5 3 3 3 2 5 6 9 9 10 16
27 26 24 23 23 24 24 27 30 29 30 27 15 3 2 4 8 7 11 5 3 4 2 3 1 3 3 3 3 4 4 4 3 2 3 3 2 2 4 3 4 2 9 11 13 5 16
27 25 24 23 22 22 23 24 28 28 30 30 10 8 2 3 1 4 3 5 5 2 1 0 2 3 8 6 6 4 4 2 3 6 4 3 3 5 4 2 6 3 2 7 5 5 7
26 24 24 23 22 22 24 25 26 27 30 30 17 7 3 2 0 3 3 4 3 3 3 3 2 3 4 5 3 3 3 5 2 2 4 5 4 3 2 1 4 1 1 5 3 2 3
25 24 22 23 22 22 23 24 25 25 27 27 6 10 2 3 1 1 3 3 4 5 4 3 2 1 3 3 2 2 2 2 5 2 2 3 5 4 7 5 3 3 2 1 2 4 2

GFSGBSN_925_spd_012.txt.gz
Wind_Speed
26 26 26 27 27 27 28 27 28 31 26 23 21 19 21 17 12 12 12 9 7 5 5 5 4 3 3 3 6 1 1 2 8 20 13 6 4 3 3 3 0 5 3 4 5 7 6
26 27 27 28 28 28 28 29 27 29 29 20 22 21 21 20 15 13 13 11 8 6 5 4 4 3 2 4 5 7 3 3 9 17 10 8 4 5 2 4 3 1 2 5 6 5 6
26 28 28 28 28 29 29 29 30 29 28 29 21 23 22 22 17 13 13 11 9 8 7 5 3 2 1 10 3 4 3 2 4 10 5 9 8 3 3 3 2 3 5 6 6 6 7
27 28 29 30 28 28 29 30 31 31 29 27 27 23 23 23 20 15 13 12 9 8 8 6 4 2 6 5 5 13 8 2 6 6 2 5 8 4 3 4 4 3 3 2 5 6 6
26 28 30 31 31 31 30 31 32 30 30 28 26 24 22 21 23 17 13 12 8 6 6 7 4 3 7 3 4 8 7 5 7 7 5 3 6 4 2 3 3 5 4 4 5 2 4
27 29 29 31 32 32 33 32 31 30 29 29 26 26 19 20 24 19 14 12 8 5 5 6 0 2 3 2 3 3 7 8 3 5 3 3 3 3 3 4 5 4 4 3 5 3 4
27 28 30 32 33 34 34 31 31 30 29 27 26 26 22 19 23 23 20 12 4 0 6 7 5 3 1 1 3 3 5 8 4 4 5 2 4 9 10 7 5 3 3 9 7 10 11
26 28 29 30 32 34 34 30 31 30 30 25 25 28 23 20 23 28 29 7 6 4 3 13 5 6 6 3 2 1 11 5 4 5 4 1 10 8 3 5 7 6 10 12 9 11 9
26 30 31 31 31 33 35 31 32 33 34 25 25 29 22 22 22 35 31 13 15 5 1 4 7 6 3 5 3 6 9 4 4 6 8 10 4 5 8 5 6 6 9 6 10 9 12
29 31 32 31 32 34 34 32 29 33 33 24 26 30 21 21 21 31 17 20 13 7 4 4 4 5 5 5 5 11 14 6 3 10 6 9 9 9 5 4 7 13 7 11 10 4 5
30 32 32 30 32 32 33 30 32 31 32 30 29 27 22 16 12 19 19 29 14 5 2 3 4 3 7 11 3 1 8 3 7 7 6 4 3 6 13 16 7 4 6 8 9 7 6
31 31 32 30 31 32 34 30 32 29 34 36 34 22 15 20 13 28 33 31 14 5 6 5 4 6 8 6 2 3 5 2 2 6 9 7 3 4 5 3 11 2 4 6 4 4 9
31 31 32 30 31 32 32 32 31 34 37 34 25 16 11 17 8 38 48 12 5 4 1 6 5 6 7 6 5 5 8 9 6 4 6 4 16 2 3 3 4 7 5 2 4 6 8
32 32 31 30 30 30 31 31 29 33 36 31 20 10 8 16 20 51 36 4 4 6 5 4 5 8 6 6 4 6 8 8 14 3 1 5 5 12 11 15 6 10 9 4 5 3 4
33 32 31 31 30 30 30 30 30 34 38 29 15 8 7 12 20 42 14 4 8 6 6 8 11 6 7 5 3 6 8 6 8 14 7 4 5 1 5 5 11 5 10 13 7 7 4
34 33 31 31 28 28 30 31 31 35 36 25 12 4 6 7 19 20 9 5 5 5 6 4 5 5 5 8 7 8 7 4 9 15 9 2 6 4 2 6 11 8 2 4 6 6 6
34 34 31 31 27 27 29 30 31 34 34 28 3 1 10 14 22 5 5 4 4 4 7 5 5 4 4 5 7 5 4 4 7 4 16 7 4 1 2 9 13 7 8 6 2 3 3
34 32 30 31 26 27 28 28 30 32 29 21 1 3 18 31 9 3 5 6 4 4 2 2 3 3 7 8 6 4 8 6 5 9 8 9 3 5 12 6 11 14 13 16 7 6 4
33 32 31 30 26 27 28 29 30 32 23 13 4 1 20 29 4 5 3 4 3 4 5 5 5 4 5 6 3 7 4 6 9 10 10 9 5 3 4 0 2 9 12 15 14 3 9
33 32 30 30 26 25 27 30 31 32 25 13 3 2 4 6 0 8 9 5 4 1 3 2 2 4 4 7 8 2 4 4 12 9 10 13 5 7 9 3 3 5 9 15 14 9 16
31 31 30 28 26 25 27 30 32 35 32 14 2 2 1 6 4 9 6 7 8 3 3 4 2 8 5 4 5 7 8 4 5 9 6 6 7 10 20 22 15 11 11 16 20 20 11
30 30 29 28 26 27 27 28 32 35 31 4 1 2 2 8 8 11 6 6 11 7 6 5 7 6 9 6 6 4 4 5 5 9 10 7 6 5 12 15 17 15 20 20 20 22 21
29 29 29 27 25 27 27 29 31 32 26 4 5 5 2 12 7 9 9 6 8 9 6 7 11 7 8 11 13 13 7 5 3 7 10 3 3 3 8 2 10 10 23 22 18 15 17
28 27 27 26 25 26 26 28 30 31 27 12 8 6 1 5 10 10 12 13 6 7 6 2 7 8 2 2 4 3 5 9 9 11 10 5 3 2 6 7 3 3 9 20 24 12 19
29 27 25 25 27 25 24 25 27 29 28 22 11 4 1 4 8 9 7 7 8 3 3 6 8 5 4 2 3 3 2 4 6 11 12 10 3 3 4 5 5 2 2 3 13 11 16
29 27 25 24 23 23 25 25 26 29 29 30 15 4 2 4 8 6 9 5 3 2 1 4 1 2 4 2 3 3 3 1 4 4 2 6 1 0 4 4 4 3 0 4 6 4 17
28 26 25 24 24 25 23 25 28 28 28 30 10 10 4 2 1 7 6 6 4 3 1 0 2 1 3 3 3 4 3 4 2 3 3 3 2 6 6 4 6 2 3 5 2 5 5
26 25 24 22 23 24 24 25 25 27 28 28 15 12 4 2 1 2 5 5 3 3 4 3 1 3 3 4 4 4 4 4 2 4 5 6 5 3 4 3 4 2 4 2 3 4 3
26 22 23 23 21 22 22 23 24 24 24 26 9 20 13 1 2 1 2 2 3 5 4 3 1 1 3 3 2 1 2 2 3 3 1 3 5 3 6 5 3 2 4 4 3 3 1

GFSGBSN_925_spd_015.txt.gz
Wind_Speed
24 25 25 25 26 26 27 27 27 27 27 25 27 18 20 19 20 14 11 9 7 6 5 4 2 2 2 3 4 2 1 3 9 18 12 7 4 4 3 2 2 3 2 3 4 6 5
24 25 26 26 26 25 26 26 27 27 28 28 28 25 20 19 21 17 13 10 8 7 6 3 2 2 4 5 4 5 2 1 6 18 10 7 4 4 2 2 3 2 3 5 6 8 5
24 25 26 26 27 27 28 28 28 29 29 27 28 26 23 19 19 20 15 12 9 9 8 6 2 3 2 9 3 3 3 4 7 11 5 6 7 4 4 1 1 3 5 8 9 8 8
25 24 27 27 27 28 29 29 30 30 28 27 27 28 25 17 17 21 17 14 10 10 9 8 5 4 5 3 7 14 5 4 6 8 6 8 8 3 2 0 3 2 3 3 3 1 6
25 24 26 27 28 28 29 30 30 29 29 27 27 27 24 20 14 19 20 15 12 8 6 9 6 4 6 2 3 6 11 6 7 6 6 9 8 4 2 3 2 3 3 5 5 5 3
25 23 26 28 30 29 30 31 31 27 29 28 27 26 23 22 16 16 23 17 11 7 6 7 3 1 3 2 4 7 10 10 3 6 3 3 3 4 3 4 5 4 5 4 4 1 3
25 26 29 27 28 29 32 32 32 31 28 31 30 24 24 23 19 13 28 18 5 2 6 6 5 2 2 3 6 3 9 8 4 4 5 1 5 9 11 6 5 1 3 7 5 8 10
28 27 27 28 28 30 29 31 31 30 28 32 29 22 21 26 22 20 39 7 9 10 6 12 2 3 4 1 3 2 12 5 5 4 5 3 10 11 1 8 10 11 13 15 10 6 8
28 29 29 30 30 30 30 31 31 29 30 28 26 24 23 24 22 21 30 18 25 16 4 2 7 5 4 3 2 7 8 4 4 5 7 5 2 2 10 6 9 11 12 13 13 8 13
30 31 31 30 31 31 30 32 30 30 27 27 26 25 28 24 14 12 22 25 23 15 4 4 4 5 7 6 4 8 13 5 2 10 5 9 9 6 4 6 8 15 5 11 13 7 7
30 31 30 31 31 31 29 31 30 29 28 28 30 38 30 19 9 8 16 31 25 4 2 4 4 6 7 11 5 2 5 3 7 6 5 4 6 5 12 11 7 6 5 6 8 8 8
31 32 32 31 31 31 29 30 31 30 29 29 39 30 21 12 11 17 36 30 11 5 6 6 5 7 8 6 4 4 6 0 3 4 5 6 2 6 8 7 13 3 2 8 2 5 8
31 32 31 32 31 31 28 28 32 31 28 33 37 31 15 13 6 5 40 12 3 4 3 8 6 8 10 7 6 7 9 8 5 4 6 5 15 5 4 3 1 9 3 2 4 6 7
32 31 33 32 31 30 27 29 31 31 32 37 40 23 10 19 16 16 26 5 4 5 4 4 6 9 5 9 4 7 10 8 11 2 1 4 5 11 8 14 7 11 11 5 5 5 4
33 32 33 31 31 29 27 29 32 31 34 35 36 6 5 13 15 9 10 3 6 6 9 10 11 6 3 3 3 5 7 5 9 15 7 4 4 1 7 5 7 4 10 10 5 11 6
31 32 33 31 31 29 27 30 30 33 35 29 23 6 4 12 17 2 2 4 3 3 14 10 5 5 9 9 7 9 7 4 5 10 10 2 5 5 2 4 5 6 1 3 5 5 8
33 33 32 31 30 30 28 30 30 33 34 24 10 2 7 11 16 1 2 2 5 3 6 4 4 5 6 7 7 6 5 3 6 5 12 5 5 2 4 9 11 8 6 5 3 4 3
31 31 31 30 28 29 28 30 30 34 37 9 3 2 15 16 3 2 3 5 5 4 3 4 4 5 5 6 5 4 6 5 6 8 9 8 3 5 9 7 15 14 15 18 9 8 4
31 31 31 29 28 27 28 29 30 34 35 11 4 2 14 6 3 3 2 3 4 3 2 2 3 3 3 4 5 5 3 4 9 9 10 9 4 3 5 1 4 8 14 20 16 8 16
31 30 31 30 28 27 29 28 30 35 36 27 1 1 2 1 1 6 4 3 5 3 3 3 3 4 3 3 3 3 4 3 10 8 9 10 5 8 10 12 2 6 16 18 16 6 14
30 30 30 29 28 27 29 30 32 33 46 10 3 0 1 3 1 5 3 3 5 3 1 3 2 3 5 4 4 4 5 3 5 10 9 8 7 12 19 23 18 18 12 19 19 22 12
29 29 29 28 28 28 28 30 33 35 40 8 4 1 1 4 6 6 4 4 6 4 4 3 3 6 7 4 6 4 5 5 5 5 8 6 5 4 17 19 21 22 23 21 21 21 21
29 28 28 26 27 28 29 30 32 34 31 4 5 5 1 8 6 5 4 7 6 6 4 3 6 4 8 8 6 9 6 6 4 6 11 4 3 3 11 6 10 8 13 20 20 21 15
29 28 26 26 26 26 26 27 29 32 30 16 6 3 2 4 7 6 9 5 5 7 2 1 6 4 3 3 3 4 7 11 13 13 9 5 3 3 6 7 3 3 5 12 19 17 21
28 27 27 25 25 24 25 25 27 27 30 28 13 3 2 3 6 6 9 7 2 0 3 2 3 4 1 2 2 4 0 3 7 11 10 14 3 3 3 6 7 5 7 1 8 9 19
28 27 24 24 24 24 24 24 26 28 30 32 15 5 3 3 7 4 5 5 3 3 1 2 2 2 3 3 2 2 3 4 3 1 7 5 4 1 3 4 4 3 5 3 1 3 3
26 26 23 23 23 24 24 23 24 26 28 30 10 15 4 2 2 5 6 5 4 3 1 1 3 3 2 3 3 4 3 2 3 2 3 3 2 3 4 4 7 3 5 2 4 6 7
24 24 23 24 23 22 23 24 25 26 28 28 17 14 9 2 2 1 4 5 3 4 4 3 2 1 2 2 2 3 3 4 2 4 5 6 5 4 3 3 6 0 2 1 3 4 3
22 23 22 23 24 22 21 21 23 23 23 23 10 26 23 4 2 2 2 2 4 6 4 3 1 2 3 3 4 3 4 1 3 3 1 3 5 3 7 5 4 4 6 5 3 3 3

GFSGBSN_925_spd_018.txt.gz
Wind_Speed
21 21 23 24 24 24 24 25 24 25 27 26 25 24 26 24 19 19 18 14 12 10 7 5 4 4 3 6 5 4 0 4 8 19 16 10 8 6 7 4 6 11 10 8 10 9 12
22 23 22 23 23 24 25 25 26 27 27 27 26 26 25 25 19 18 20 16 14 11 9 6 4 3 4 11 3 4 1 0 6 20 17 12 5 4 3 4 9 2 6 9 8 12 12
22 21 22 23 24 24 24 26 25 26 24 26 24 24 25 26 23 16 20 20 15 14 11 7 5 4 4 7 3 4 5 3 4 13 13 8 9 6 6 4 2 6 10 12 14 14 14
21 21 21 24 26 26 25 25 25 26 26 25 24 25 24 24 24 15 16 23 18 15 12 10 6 4 5 3 5 8 3 5 8 6 6 12 7 5 3 2 3 5 5 6 3 2 5
23 23 24 25 25 25 26 26 26 27 27 26 23 26 25 23 22 22 13 24 19 15 12 12 6 3 4 1 3 7 11 10 10 8 8 11 9 3 5 5 5 8 7 9 9 6 6
24 26 25 25 26 24 25 26 26 26 27 24 25 27 27 22 20 24 13 25 18 15 12 9 4 3 5 2 5 6 9 13 7 12 8 5 4 6 8 8 5 5 9 9 10 2 8
26 27 26 27 28 28 28 28 26 25 25 25 26 25 24 19 19 21 24 20 7 5 9 6 7 1 4 6 7 5 11 12 8 11 10 8 6 11 14 14 11 4 7 11 10 10 17
26 28 29 30 28 28 29 28 26 26 25 25 23 22 21 21 22 24 25 5 19 9 7 10 6 4 1 3 4 7 11 9 12 13 10 6 13 13 8 11 13 14 16 16 14 12 12
29 29 30 31 30 29 29 27 26 26 25 24 22 24 22 23 25 23 18 14 19 16 5 7 12 5 4 5 4 12 15 7 13 12 17 9 1 6 14 14 14 16 16 15 15 16 18
30 32 32 32 31 30 29 27 25 26 25 24 22 25 24 31 16 17 9 19 20 5 3 8 9 7 11 6 4 10 17 6 5 13 11 10 12 7 8 12 13 15 11 14 14 11 6
30 31 31 32 32 30 28 27 24 25 27 26 22 28 32 30 11 9 7 17 18 5 7 12 6 8 11 12 10 6 12 3 8 9 7 3 6 11 13 12 12 7 5 7 9 11 11
30 31 33 32 31 29 28 26 25 26 28 27 25 30 28 26 15 18 7 26 10 3 6 8 6 10 14 11 7 7 10 2 4 6 7 9 0 5 6 6 14 1 6 10 10 8 9
31 29 29 31 30 29 28 25 26 29 27 29 33 32 30 17 5 17 13 8 4 5 6 9 9 13 15 12 10 11 12 10 6 5 7 8 16 6 6 8 7 12 4 3 4 6 8
30 31 31 30 28 28 26 26 28 27 29 33 37 36 6 11 11 18 15 3 5 6 6 5 14 16 9 17 7 11 13 10 12 5 3 5 4 15 12 16 5 17 14 5 6 8 10
31 30 30 29 28 28 27 26 28 27 32 33 32 21 1 11 13 8 6 4 3 8 12 12 13 9 5 12 5 8 11 8 10 13 6 6 4 3 7 7 13 6 10 14 15 21 13
31 30 29 28 28 27 27 28 28 28 34 42 18 4 2 13 13 9 2 1 1 6 19 17 7 7 8 15 8 10 12 6 9 16 13 3 4 6 4 8 12 12 0 5 6 6 15
29 28 29 28 28 27 27 30 28 30 33 31 7 3 9 20 15 4 3 2 5 13 11 3 7 9 8 13 9 10 7 2 9 11 18 7 6 4 3 12 14 10 8 6 6 8 9
28 28 28 28 27 27 27 29 29 32 34 16 3 1 15 25 3 2 2 2 7 9 1 4 7 10 13 13 11 9 10 4 8 11 10 11 5 8 16 12 15 17 16 19 9 13 8
29 28 28 27 27 27 27 28 29 33 33 22 0 1 9 4 3 3 3 2 5 3 2 3 4 3 5 9 6 8 5 3 12 12 12 11 5 4 4 4 8 11 20 22 20 12 19
28 28 27 27 27 27 27 28 29 33 42 14 3 1 2 2 2 8 11 4 5 4 4 7 6 7 7 5 2 6 7 4 11 12 6 10 6 7 10 14 3 7 15 20 18 11 18
28 28 26 26 25 26 26 29 29 33 41 9 2 2 2 2 5 8 6 4 10 3 3 3 4 3 5 4 5 4 5 3 4 9 9 8 6 11 21 24 22 23 26 22 19 27 16
27 28 25 24 25 26 27 28 30 34 33 6 3 3 0 4 10 10 4 7 6 3 3 2 3 9 6 4 3 5 5 7 6 10 11 6 6 4 13 19 22 24 24 22 20 23 27
26 27 26 24 23 24 26 27 30 33 30 5 6 4 3 2 6 6 4 6 6 6 1 3 3 3 5 7 7 7 6 3 3 7 13 4 2 2 7 13 18 9 8 10 7 10 18
26 26 24 23 22 22 25 26 27 28 27 17 8 4 2 3 4 5 7 4 6 8 3 2 5 3 2 3 4 5 10 14 14 14 9 6 4 3 6 7 4 4 7 11 11 15 17
24 24 24 22 21 21 22 22 24 25 25 26 11 2 3 2 4 7 4 4 5 4 2 2 4 2 2 1 3 4 2 3 6 10 14 12 4 3 3 5 12 7 6 6 4 5 5
23 23 22 22 22 21 21 22 23 24 25 27 8 12 3 2 7 7 6 10 6 4 2 2 1 2 2 2 2 3 2 2 1 2 3 7 8 3 1 4 4 7 7 4 2 3 14
21 21 20 21 21 20 20 21 22 23 23 21 4 14 5 3 2 12 10 7 4 4 2 0 1 1 2 4 3 4 3 2 2 3 4 3 2 5 6 5 7 6 7 2 5 7 13
19 20 20 20 21 20 21 20 22 22 22 22 12 7 7 3 3 2 4 4 3 4 4 4 3 2 2 4 3 3 3 2 3 2 4 7 5 4 4 4 4 1 3 4 4 5 7
18 19 20 20 20 21 20 21 20 20 21 21 7 16 17 3 3 2 1 2 3 5 4 4 1 3 2 2 3 2 3 2 4 3 3 4 4 2 5 4 3 2 6 7 5 6 4

GFSGBSN_925_spd_021.txt.gz
Wind_Speed
19 20 19 20 21 21 21 21 23 22 23 24 24 23 22 22 24 25 18 18 16 14 12 10 7 5 4 8 7 5 4 7 11 17 17 13 14 13 11 10 9 13 16 12 12 14 14
20 20 20 21 23 23 23 22 23 23 23 25 24 23 22 22 23 24 20 16 19 15 13 10 6 5 9 12 2 4 2 4 11 21 18 14 7 7 6 6 10 1 10 13 13 15 15
19 21 20 23 24 25 24 23 24 23 24 25 26 24 23 23 22 22 21 17 21 16 14 11 7 6 9 11 1 3 5 5 5 17 16 11 4 4 7 5 8 9 13 14 17 18 15
22 22 24 25 24 26 25 24 25 25 25 26 25 24 23 26 25 22 22 15 17 21 17 13 9 6 6 3 6 4 5 7 5 9 9 10 7 4 5 4 4 6 10 11 5 7 12
24 24 25 25 26 28 26 25 26 25 24 25 26 24 26 25 26 21 20 25 14 21 19 15 8 7 5 3 6 13 9 10 9 9 8 11 7 4 3 9 8 11 9 13 9 8 7
24 25 26 28 28 31 28 27 26 26 24 24 25 25 23 21 22 17 19 25 15 21 18 11 2 4 7 6 7 8 13 11 11 13 10 7 6 6 10 11 7 9 14 10 10 5 8
25 28 29 29 30 31 30 27 26 25 25 24 22 24 20 18 18 17 18 10 5 5 14 8 12 2 7 8 9 10 17 16 12 13 8 9 7 12 16 15 15 5 9 10 9 7 15
26 29 30 30 32 31 28 27 26 26 24 23 22 21 19 20 19 22 17 2 11 7 8 11 5 8 5 10 6 11 18 11 13 13 11 6 12 16 11 10 11 12 13 15 14 12 12
28 30 30 31 32 30 29 27 26 26 23 23 22 22 16 19 21 21 16 13 19 9 4 15 11 13 8 9 7 16 17 12 16 16 16 10 4 11 13 11 10 12 13 13 15 16 17
27 29 29 30 30 30 28 27 26 23 23 24 23 18 22 18 16 11 14 11 18 3 5 11 11 8 8 6 5 16 19 9 6 14 13 11 7 5 11 13 11 12 9 11 12 10 7
28 28 28 30 31 29 27 27 25 24 24 25 21 23 19 19 13 8 10 9 6 2 6 15 11 10 13 10 14 11 17 3 10 10 7 4 7 13 11 12 9 7 3 4 6 10 12
30 30 30 29 29 28 27 26 26 26 25 25 24 26 29 23 16 15 9 21 9 4 4 6 6 12 16 14 7 10 10 5 2 6 11 9 2 5 9 6 11 3 4 6 7 4 7
30 29 29 29 29 27 26 26 27 26 25 28 30 36 30 13 6 11 10 5 2 5 11 8 9 14 17 12 11 13 13 11 8 5 9 11 14 7 9 9 7 9 2 2 4 5 7
29 29 28 28 28 27 27 26 27 26 27 31 38 29 11 6 8 18 8 4 7 8 8 7 12 17 9 17 10 14 14 12 14 11 4 8 6 19 14 15 6 13 11 5 6 8 12
27 28 27 27 27 27 27 27 27 24 28 33 24 19 2 11 13 18 3 3 2 12 12 12 17 11 7 17 7 13 14 11 14 14 7 6 4 3 7 8 12 6 9 15 12 18 12
27 28 27 27 27 27 27 29 26 26 30 32 19 10 5 11 13 10 1 1 2 8 16 18 7 6 8 18 10 13 13 13 11 18 12 1 3 6 7 4 9 9 4 2 4 5 10
28 28 28 28 26 27 28 30 26 29 31 32 3 1 7 14 10 3 1 2 7 18 7 3 9 9 9 14 11 14 16 5 17 15 16 6 4 5 4 10 13 9 10 6 8 9 5
28 29 27 26 26 26 27 30 28 31 36 14 2 1 11 10 2 1 1 2 11 10 0 4 6 5 15 16 9 12 10 2 8 9 13 9 1 5 12 9 8 14 15 16 7 10 8
27 29 28 25 25 26 27 29 30 33 36 11 2 2 3 5 3 4 1 2 5 3 1 3 4 2 9 13 6 6 8 4 10 12 11 10 5 3 3 4 11 11 17 18 19 16 22
26 26 27 25 24 27 27 29 30 34 32 7 2 2 1 2 3 9 4 8 6 4 7 8 9 10 10 12 2 8 6 4 9 11 8 6 5 7 8 10 6 6 14 17 17 10 19
25 25 26 25 23 25 27 28 30 35 26 6 3 2 1 1 3 10 2 4 9 4 3 3 4 3 4 4 5 4 6 6 6 7 5 5 4 9 17 22 21 20 23 23 20 20 17
24 25 24 23 23 23 25 26 29 33 23 5 3 3 5 2 6 12 4 6 6 4 2 2 3 5 3 3 2 3 5 6 6 10 10 4 3 4 16 21 21 20 22 18 19 19 19
22 23 23 23 22 23 24 25 27 28 23 4 3 3 3 2 5 6 4 7 6 4 4 4 3 4 2 1 4 4 3 2 2 4 11 5 3 3 5 10 19 9 4 8 11 13 10
22 21 21 22 22 23 23 23 24 25 25 9 3 3 3 2 7 5 5 5 7 4 3 3 0 2 3 6 5 4 7 9 10 11 8 4 4 2 6 10 3 2 5 8 10 14 9
19 19 20 21 21 21 22 22 22 23 25 16 7 4 3 1 5 4 7 4 7 5 2 3 1 4 2 2 3 3 2 1 8 14 10 11 4 3 3 6 15 6 3 4 4 7 12
17 18 18 20 21 22 22 22 23 23 23 21 9 12 2 3 5 3 5 6 5 4 4 2 2 2 2 2 1 1 2 3 2 4 3 8 9 4 2 3 4 5 9 3 1 2 15
15 15 16 17 18 21 21 21 21 20 22 20 3 11 3 3 2 6 6 6 4 5 1 1 2 1 3 1 2 2 4 1 3 3 6 4 3 5 6 4 8 7 5 1 2 7 13
16 15 14 15 17 18 20 20 21 20 20 18 8 4 5 3 7 5 7 4 3 5 3 4 3 3 2 2 1 2 3 2 3 5 4 6 5 4 4 5 6 3 5 7 6 7 7
16 16 14 15 16 16 19 20 20 20 19 17 6 11 11 4 4 7 6 5 5 2 1 4 3 3 1 2 2 2 2 3 4 3 3 4 6 3 5 3 7 5 9 8 5 7 6

GFSGBSN_925_spd_024.txt.gz
Wind_Speed
20 21 22 21 24 24 24 24 23 24 24 24 25 26 25 24 24 23 22 21 18 18 16 13 9 8 3 7 7 3 6 15 15 15 19 12 12 10 11 8 11 12 15 11 9 9 7
21 23 23 23 25 25 25 25 25 25 25 26 25 25 25 25 24 23 23 22 19 14 17 14 10 7 5 11 5 6 6 8 12 20 18 14 7 9 5 12 8 5 9 11 13 6 8
22 24 26 25 26 25 27 27 26 24 25 27 27 27 25 24 25 26 25 22 20 21 18 14 12 9 10 12 4 6 6 4 7 20 13 17 2 3 5 4 7 5 10 10 12 11 9
23 25 27 28 29 28 29 29 28 25 24 25 24 27 27 24 25 24 26 21 21 16 20 18 13 11 6 7 9 4 7 9 5 7 22 12 6 2 2 4 1 4 9 8 10 19 13
24 27 29 30 32 32 32 30 27 24 25 25 23 24 26 25 24 21 21 19 21 23 14 19 9 9 7 7 8 13 8 10 7 3 10 10 7 3 2 1 4 7 6 10 9 5 4
24 28 30 31 32 32 32 29 28 26 26 25 23 22 23 23 20 18 17 20 18 17 13 12 8 8 8 9 9 15 12 9 9 8 8 6 3 4 3 5 5 6 8 8 8 5 3
27 29 30 31 31 32 32 30 28 27 26 25 22 21 23 21 18 18 17 10 2 6 10 5 13 2 15 14 13 11 15 12 9 9 6 9 5 7 12 13 12 12 7 10 7 6 6
28 28 29 29 32 33 32 30 28 27 26 24 22 23 21 16 20 15 15 4 4 6 5 15 16 4 15 15 9 11 18 8 7 9 6 4 8 10 8 6 5 6 8 10 10 10 7
28 30 31 32 31 31 31 29 28 26 25 23 23 23 18 19 17 18 11 16 3 13 4 8 10 12 11 7 9 14 15 10 10 9 8 6 1 11 11 6 4 7 7 8 11 11 11
28 31 31 31 31 31 29 28 27 25 26 25 23 23 20 19 14 8 9 10 9 11 3 11 9 8 9 6 6 16 14 6 5 13 8 7 6 3 8 9 6 5 2 5 8 7 4
29 31 30 29 30 29 28 28 27 27 26 24 25 27 24 17 7 7 10 9 9 5 5 13 8 13 10 6 13 11 16 4 8 8 5 4 6 6 4 5 6 3 6 5 5 6 7
29 30 29 29 28 29 28 28 27 28 26 25 29 33 34 23 14 15 13 11 9 0 2 4 6 12 13 12 5 10 8 3 3 2 9 3 5 2 6 5 4 6 2 3 4 3 4
29 29 30 28 27 28 28 28 28 27 26 28 32 36 27 11 3 9 14 4 1 3 7 7 8 13 16 12 8 13 10 7 5 5 4 6 6 3 3 4 3 5 1 1 2 3 6
28 30 29 28 27 27 28 29 30 26 28 32 35 30 16 3 3 25 11 3 4 8 3 6 13 15 9 15 7 11 11 9 10 6 6 6 5 13 9 8 5 8 5 3 5 3 4
27 31 30 28 28 27 28 28 31 26 31 35 34 19 5 7 12 22 2 2 3 6 9 10 17 6 9 12 7 9 9 7 10 10 6 5 2 9 11 5 8 4 7 2 5 5 3
27 30 30 28 28 27 28 29 31 28 34 39 15 8 5 7 15 8 1 2 5 6 15 15 5 5 9 15 8 9 12 12 10 15 10 2 1 2 7 4 6 6 5 2 1 3 5
28 29 29 27 27 27 28 30 31 32 36 30 3 1 1 6 8 1 2 3 2 18 9 1 9 8 9 13 6 8 11 3 15 12 13 3 2 3 5 8 9 5 6 3 3 4 4
26 28 28 27 26 27 28 31 31 33 39 8 3 3 3 3 1 2 1 3 7 7 1 5 4 10 11 13 5 9 9 7 12 9 11 5 2 3 9 9 13 11 8 13 4 6 5
25 27 28 26 25 26 29 31 33 35 31 6 2 1 2 4 1 1 3 3 5 5 5 3 4 5 15 12 6 8 7 5 3 5 11 8 3 2 2 3 8 6 7 12 16 11 17
24 26 27 26 25 26 28 31 35 37 29 4 1 2 1 2 3 3 2 5 4 5 10 8 7 7 12 7 1 7 7 1 5 3 8 8 3 5 3 2 3 3 6 9 10 8 13
23 25 25 25 24 26 27 30 34 38 27 5 3 2 3 1 3 3 5 4 6 4 4 5 3 5 9 4 5 6 8 8 4 5 4 1 3 4 8 13 13 12 17 17 17 18 15
21 24 24 24 24 25 26 28 31 34 26 5 2 2 4 3 5 6 3 3 4 6 7 3 5 6 3 5 7 6 6 7 5 7 5 4 3 3 10 14 16 16 17 17 18 19 19
19 21 22 23 23 23 24 26 30 31 29 5 6 4 2 3 1 5 3 6 3 3 5 7 5 4 5 8 7 4 4 4 4 7 8 4 2 2 4 7 10 7 7 6 8 12 12
18 18 19 21 22 22 23 24 25 27 29 10 4 3 2 2 4 2 2 2 4 4 6 5 4 4 1 4 4 2 4 3 4 4 6 5 4 2 4 7 2 3 9 8 9 15 12
17 17 18 19 19 20 20 21 21 23 24 22 11 5 3 3 2 1 3 3 5 4 6 5 4 3 2 3 2 3 3 3 6 10 11 6 3 2 2 3 9 1 4 2 3 6 5
17 17 17 18 19 18 18 19 19 18 21 20 5 11 3 3 1 9 4 5 5 4 3 4 3 4 2 1 2 1 1 3 4 3 3 10 5 2 1 3 3 3 3 3 4 4 2
16 17 16 16 18 18 17 17 18 18 18 17 4 12 4 2 3 7 2 4 2 1 3 3 3 2 2 1 1 1 2 3 2 5 5 3 3 7 5 3 6 6 2 4 2 5 6
16 16 16 16 17 17 17 17 17 17 16 16 8 3 7 3 7 5 8 3 2 1 3 3 2 1 1 2 2 1 1 2 3 2 5 7 6 4 3 3 6 0 4 2 3 5 5
17 17 17 17 18 18 17 16 16 15 14 13 5 11 12 4 5 9 17 13 3 3 2 3 1 2 2 3 1 1 2 3 3 3 1 3 3 3 7 5 6 3 7 4 2 3 5

GFSGBSN_925_spd_027.txt.gz
Wind_Speed
22 22 25 27 26 26 27 26 28 26 26 24 24 24 22 22 22 22 22 22 23 22 20 16 12 10 5 5 7 5 4 21 18 17 15 8 6 3 6 6 6 6 6 9 8 9 5
27 23 24 25 28 29 30 31 31 28 27 24 22 24 24 22 22 22 23 23 24 22 19 15 15 12 5 6 13 5 8 16 16 19 14 11 5 7 4 6 4 3 2 3 6 7 6
25 24 28 28 30 30 31 31 31 27 24 22 25 24 24 23 22 22 23 22 23 22 21 12 16 13 6 11 5 11 9 11 14 19 7 19 7 4 2 2 3 4 3 7 6 7 6
24 24 26 29 29 30 30 30 30 29 27 26 25 22 23 23 22 21 22 20 21 21 22 19 18 12 5 12 14 8 10 9 7 12 21 10 6 3 1 3 2 4 3 2 8 10 8
25 27 27 27 28 29 30 31 30 28 27 26 24 21 20 21 22 21 19 18 20 20 20 21 15 9 5 8 15 14 11 8 8 4 15 8 4 3 2 5 2 2 3 6 7 7 5
27 27 29 29 30 31 30 30 29 27 26 25 22 20 19 21 21 19 20 20 24 15 17 11 7 3 4 8 11 21 12 11 5 10 7 4 3 3 3 2 5 5 4 4 5 4 5
26 27 29 30 29 29 30 29 27 27 26 23 21 20 21 19 19 18 17 10 3 1 9 5 6 4 5 12 16 17 19 6 5 3 3 4 3 6 9 8 4 4 4 4 4 5 3
25 27 29 29 28 28 28 27 27 26 24 24 23 23 20 13 21 18 16 3 0 6 6 9 7 9 15 15 6 11 14 6 5 5 3 4 2 5 7 7 6 4 5 5 6 6 6
26 27 28 28 27 28 28 27 27 26 25 25 23 20 19 20 19 14 7 10 5 6 6 8 3 11 5 3 5 13 9 5 8 6 6 7 3 11 4 2 0 2 3 3 4 7 5
26 27 28 28 27 28 27 27 27 25 27 24 22 23 23 23 7 5 9 10 12 7 3 10 5 6 5 3 4 9 11 5 4 7 7 1 3 2 5 3 3 1 4 5 4 4 4
27 27 29 28 27 27 27 28 29 28 27 24 25 29 29 25 5 3 5 11 11 7 4 11 8 14 6 1 13 8 3 3 7 7 5 5 3 5 3 2 3 3 5 5 3 3 5
27 26 30 29 28 27 28 28 29 30 25 27 31 33 35 11 4 12 9 16 5 1 3 5 7 10 6 11 3 6 3 2 3 8 5 4 2 3 4 2 4 5 3 3 2 2 2
27 28 30 30 28 28 28 28 29 30 26 30 33 35 22 6 1 5 12 5 4 4 3 6 9 10 13 5 6 10 7 4 4 5 3 4 1 2 4 5 2 4 5 3 2 1 6
26 29 30 30 28 29 30 30 30 30 30 34 37 20 12 6 5 14 10 1 1 3 5 9 11 13 7 9 4 7 7 5 3 3 4 4 2 8 4 5 6 5 5 4 5 3 4
25 28 30 29 29 28 30 30 32 31 34 35 24 12 10 8 13 13 2 2 1 4 5 9 13 8 6 4 6 5 3 4 4 3 5 4 3 4 6 3 6 4 5 2 1 3 3
25 27 29 29 29 28 30 31 32 34 39 25 5 5 9 8 4 1 2 5 5 3 14 9 4 4 6 7 5 6 7 7 4 7 2 2 4 3 4 3 3 4 4 3 2 2 5
25 27 28 28 28 28 30 32 33 36 30 11 7 2 10 9 5 2 2 4 5 12 4 1 4 6 8 6 5 5 11 4 9 9 5 2 1 2 3 5 7 3 4 2 2 4 3
24 26 27 28 28 28 30 32 34 36 29 13 3 3 11 13 2 1 2 1 7 6 6 3 5 7 11 8 7 4 8 3 9 12 6 3 3 3 9 6 8 4 6 5 3 5 4
22 25 26 27 28 30 31 32 34 33 22 5 3 1 5 5 4 2 3 4 4 6 5 2 4 5 13 5 6 2 4 4 10 9 11 5 2 1 3 3 2 5 7 8 7 1 13
21 23 25 25 26 28 31 32 33 34 15 4 1 3 3 2 2 3 5 6 2 7 6 7 11 13 8 3 2 8 3 4 4 3 9 7 4 6 4 3 4 3 5 8 11 5 9
19 21 22 24 25 26 28 32 35 37 11 3 3 1 1 2 1 3 4 3 8 5 6 7 5 8 5 4 9 8 7 3 5 1 4 3 2 1 5 9 6 7 11 11 12 15 11
18 19 20 22 24 24 25 29 34 37 14 8 2 3 5 4 2 1 3 4 6 4 5 5 6 9 11 5 2 7 8 4 4 3 3 2 2 1 6 9 8 7 11 12 15 17 19
17 17 18 20 22 23 24 25 27 29 21 7 6 3 1 5 2 2 3 4 1 2 5 4 4 5 7 4 4 3 4 3 7 8 5 5 3 1 4 5 6 3 6 8 7 7 10
16 16 16 18 20 21 22 23 22 23 23 4 3 3 2 3 1 2 2 3 2 3 4 3 6 4 1 3 2 4 5 4 5 5 6 5 4 1 3 5 1 3 6 7 9 9 9
16 15 16 17 18 18 20 21 22 22 20 15 6 2 2 3 3 3 0 3 4 4 3 3 3 1 2 1 2 3 2 2 5 5 6 4 3 2 2 2 6 4 3 5 5 5 3
16 17 16 16 16 18 18 18 19 21 21 19 4 7 1 1 3 6 4 5 3 2 1 2 1 3 3 1 1 3 3 3 3 3 4 5 4 2 0 2 3 3 2 1 5 3 5
14 16 14 14 15 15 16 16 17 18 18 19 4 13 2 2 3 4 3 3 2 2 2 2 2 2 2 1 1 2 2 1 3 5 4 4 2 5 4 3 6 8 5 4 1 4 3
14 16 14 15 15 15 15 14 14 14 15 16 9 5 6 3 7 3 3 2 4 3 3 3 2 1 1 2 2 1 1 2 1 3 5 6 6 4 4 3 7 5 2 2 5 2 2
14 16 14 14 16 16 16 16 14 12 12 12 5 12 10 3 5 9 19 21 11 3 2 2 1 2 3 3 0 1 1 2 0 3 3 3 5 4 7 6 6 3 5 3 2 2 3

GFSGBSN_925_spd_030.txt.gz
Wind_Speed
21 21 20 23 26 26 27 28 27 28 27 25 22 22 20 21 20 19 17 17 20 21 22 22 24 18 10 5 8 4 7 23 20 20 16 7 5 5 6 6 4 3 3 4 7 9 4
21 23 23 26 26 24 26 26 27 26 27 26 24 23 21 23 20 20 19 17 20 20 22 21 19 18 7 9 11 7 7 23 21 20 14 9 7 7 4 4 7 2 7 5 4 4 4
21 23 24 26 25 28 28 28 28 27 26 25 23 20 20 20 20 18 17 18 20 19 21 21 18 18 6 13 6 15 11 24 22 23 7 14 13 5 5 0 5 3 5 3 5 4 4
22 23 24 26 26 27 26 27 28 26 26 25 22 20 19 18 19 17 18 17 18 19 19 17 17 10 5 16 9 4 13 12 15 21 19 14 12 3 3 1 2 5 4 1 4 4 7
23 24 25 27 27 26 26 27 26 25 25 23 21 18 17 17 19 18 17 17 21 20 19 15 12 8 5 6 10 17 13 7 12 19 18 10 5 2 2 5 3 3 2 4 7 8 6
22 24 25 26 26 25 27 26 26 25 24 22 20 19 18 18 17 17 16 20 24 18 12 8 13 3 3 5 10 16 12 9 4 6 8 4 3 3 2 4 6 6 4 3 5 4 3
23 25 26 26 26 26 26 26 26 25 23 24 23 21 18 14 14 20 16 10 4 1 5 3 9 4 7 9 15 12 11 7 3 3 5 6 2 9 14 8 4 3 1 2 5 4 4
24 26 25 28 27 26 26 25 26 25 23 24 23 20 20 18 20 13 11 2 2 2 3 8 9 6 9 12 8 10 11 5 5 4 8 3 3 8 9 6 5 1 3 5 6 1 3
24 26 25 28 27 26 26 26 26 27 24 24 20 21 21 22 19 16 4 6 4 1 1 4 5 3 7 6 4 11 12 3 6 5 4 5 5 8 6 6 5 2 3 2 4 5 2
25 26 26 29 28 26 25 26 26 28 27 24 23 24 28 26 17 4 4 5 10 5 1 4 4 3 3 6 4 4 6 3 3 5 5 4 4 7 6 3 4 3 1 3 4 5 4
24 25 27 28 28 27 26 27 27 28 28 25 25 30 30 23 4 3 2 9 12 3 3 7 5 9 4 1 13 7 1 2 4 7 5 3 3 5 5 3 4 3 5 4 2 3 4
24 26 27 28 27 28 27 28 28 30 27 27 30 29 25 6 1 3 3 15 3 1 3 4 6 10 7 4 3 6 2 3 4 6 6 2 1 2 4 4 5 6 4 6 4 3 2
24 25 28 29 27 28 29 29 30 31 31 30 29 22 15 5 3 12 11 2 2 1 3 4 8 9 12 4 5 4 4 4 4 5 3 2 2 2 4 7 4 5 5 3 4 2 6
24 27 28 28 28 28 30 31 32 34 37 27 13 16 17 13 10 14 7 4 3 3 2 9 10 12 6 8 7 7 5 4 2 4 4 4 0 4 2 5 6 3 5 4 5 2 4
22 26 29 28 28 28 30 32 34 36 31 16 19 18 21 17 12 2 2 3 4 4 2 9 13 6 4 5 6 4 1 5 2 2 5 4 1 2 3 3 6 3 3 3 2 1 3
21 25 27 27 28 29 31 32 34 35 27 11 10 5 13 9 6 2 2 6 2 4 13 5 5 0 4 4 4 3 5 3 3 6 2 5 4 2 2 4 1 4 6 3 2 1 4
21 24 26 26 28 29 30 31 33 34 26 7 3 3 5 8 4 3 3 5 4 9 4 2 4 4 7 5 4 4 9 2 6 4 3 2 4 4 4 4 6 3 3 2 3 4 3
19 22 25 25 27 28 30 32 33 34 24 9 3 3 5 10 3 2 2 3 6 5 6 2 5 7 6 4 4 3 8 4 8 5 5 1 4 3 7 3 5 4 5 6 4 4 2
18 20 23 26 27 28 30 32 35 34 19 4 2 2 4 4 3 2 2 4 6 2 3 2 3 3 5 5 5 3 5 4 10 6 8 3 2 2 2 2 2 4 5 4 2 1 6
16 18 21 25 27 28 29 31 35 36 19 2 2 3 4 2 1 3 5 5 4 6 8 5 5 12 4 3 3 4 3 5 4 5 8 6 3 5 5 4 3 3 4 8 9 3 4
14 16 19 22 25 27 29 29 32 34 16 3 3 2 2 3 3 1 2 5 5 6 5 4 4 6 3 3 6 5 3 3 5 3 3 4 3 3 5 7 5 5 8 8 12 18 8
13 14 16 19 22 24 26 28 32 35 15 7 2 3 3 3 3 3 1 4 5 4 5 4 5 2 3 4 2 5 6 3 4 1 3 1 1 2 4 5 7 6 10 11 14 15 18
10 14 14 16 18 21 23 26 27 29 24 7 6 3 2 5 4 2 2 0 4 2 4 4 1 4 7 3 4 3 4 6 6 7 3 5 4 1 4 3 5 5 8 11 5 6 8
7 13 12 14 15 17 19 21 23 24 24 7 5 4 2 4 2 2 1 1 3 3 2 3 4 3 1 1 3 5 6 6 6 3 4 4 4 1 4 4 1 5 2 6 8 7 10
6 11 10 13 14 14 15 17 18 20 19 16 7 4 2 3 4 5 6 1 3 4 3 2 3 1 1 2 3 2 1 1 4 4 6 5 4 2 2 2 6 3 3 4 5 8 5
7 9 11 11 12 13 14 14 15 15 17 18 4 10 1 2 4 3 3 3 3 2 3 1 1 2 3 2 2 3 4 5 3 2 4 4 3 3 2 2 3 3 1 3 4 4 5
8 9 12 9 11 11 12 13 13 13 14 15 2 12 2 3 4 2 4 2 0 3 2 1 2 1 3 2 2 3 3 3 5 6 4 3 3 4 4 3 6 7 3 4 2 5 4
9 10 13 9 10 11 9 10 11 10 10 11 7 6 5 3 8 4 3 3 3 2 4 3 3 2 2 2 3 2 2 2 1 3 5 6 6 4 3 4 7 4 3 3 4 4 4
11 11 12 12 11 10 11 10 10 9 8 7 2 9 10 4 5 9 20 27 13 3 2 3 2 3 4 3 1 1 1 1 2 3 1 3 5 4 7 5 5 3 4 4 2 4 4

GFSGBSN_925_spd_033.txt.gz
Wind_Speed
20 21 23 22 23 23 26 25 25 25 25 26 25 22 21 19 21 19 19 18 16 18 19 21 21 20 10 5 7 6 6 18 27 26 22 8 5 5 6 6 3 3 2 4 4 6 4
20 22 23 24 24 25 24 24 24 26 25 24 25 22 20 20 20 16 17 16 16 19 19 19 19 17 5 10 12 16 4 24 24 23 17 12 7 5 5 3 7 4 7 6 4 5 3
20 24 24 26 26 26 24 25 25 23 24 24 24 21 20 19 18 15 15 16 18 18 17 16 17 13 6 13 5 6 9 25 22 21 8 14 5 4 4 3 5 2 3 1 5 3 5
22 23 25 26 26 26 25 26 25 24 23 23 21 20 18 18 17 16 15 17 17 17 15 15 12 6 5 16 10 2 8 18 19 20 16 18 10 1 2 2 3 5 3 3 3 6 5
23 24 26 27 27 27 26 26 24 24 23 22 22 20 20 19 18 16 16 16 17 18 15 13 10 5 3 3 9 12 9 9 17 15 11 14 8 4 2 5 3 2 4 4 5 6 4
24 26 27 26 29 28 26 26 25 25 23 22 21 21 21 18 16 14 22 18 20 14 7 6 8 5 4 5 8 9 7 11 4 8 8 5 3 4 4 3 8 5 5 2 4 1 4
24 26 27 27 30 28 26 26 25 25 24 21 22 19 18 18 18 21 19 10 4 1 3 5 4 5 1 3 14 8 7 7 3 4 6 6 5 11 11 7 3 5 3 3 3 1 4
24 26 27 28 30 28 27 26 26 25 26 23 22 19 19 19 20 17 12 1 3 1 3 10 7 1 5 8 5 7 15 5 4 3 6 5 9 6 6 6 3 2 0 3 5 1 2
24 27 28 28 29 28 28 27 27 27 27 24 21 20 22 26 21 11 4 4 5 2 1 3 5 2 7 7 4 8 6 4 4 4 3 5 4 9 5 5 4 1 3 3 3 5 2
24 25 27 28 28 29 28 29 29 28 27 24 23 23 26 25 14 9 3 4 7 5 3 4 6 3 1 8 5 4 6 3 3 8 10 4 6 10 7 7 5 4 2 2 3 3 3
23 26 27 28 27 28 30 30 31 30 30 28 26 24 25 8 5 3 1 4 6 0 5 4 6 2 2 2 12 1 3 1 4 5 5 2 5 6 4 4 4 3 3 4 3 3 2
22 24 26 27 27 27 29 30 32 33 34 28 21 17 11 5 6 5 4 8 2 2 5 3 3 8 7 4 4 5 1 2 4 6 7 3 1 4 3 3 3 7 4 6 4 2 2
22 25 27 26 26 28 30 31 33 34 31 20 17 13 14 8 5 8 13 1 2 4 2 4 5 10 10 6 6 3 1 5 3 5 3 5 3 2 5 7 5 4 5 2 4 3 5
21 24 25 25 27 29 30 32 34 33 24 15 17 18 16 17 13 8 0 1 5 4 2 7 13 13 6 5 6 2 4 4 3 6 3 3 2 3 2 4 5 2 5 4 5 1 4
20 22 24 24 25 28 30 32 33 33 21 12 9 8 11 8 4 3 1 4 2 3 2 11 13 9 5 6 3 3 3 3 3 2 5 4 2 1 2 2 4 3 1 2 4 2 3
19 21 23 24 25 27 30 32 33 32 25 15 8 8 5 10 3 0 3 5 4 5 8 5 5 2 3 3 4 2 3 2 4 3 2 5 4 1 1 3 5 3 6 3 3 1 3
17 20 22 24 25 25 28 31 33 31 28 12 5 3 3 17 5 4 3 4 3 6 7 5 3 5 5 4 4 2 6 2 2 3 3 3 4 2 4 3 6 2 1 5 4 3 3
14 16 21 23 24 26 27 29 32 32 23 11 3 3 13 14 4 3 2 3 4 4 2 3 4 5 4 4 3 3 6 3 6 6 4 1 4 3 5 2 3 3 5 5 3 3 2
14 16 18 22 24 26 28 30 31 30 17 5 2 2 5 6 3 3 1 2 2 3 2 3 3 2 3 4 4 2 4 3 7 6 6 4 1 2 2 3 3 3 4 4 4 3 6
13 15 17 20 23 25 27 29 31 31 14 3 2 3 4 4 2 3 4 5 2 2 3 4 4 5 5 2 2 5 3 4 7 6 6 6 3 4 5 4 4 3 5 6 6 3 3
12 14 15 18 21 24 27 29 30 30 13 2 3 2 2 3 3 3 3 3 5 6 5 5 4 5 3 3 3 3 2 2 4 3 3 4 3 2 5 6 3 4 5 7 8 11 5
11 13 14 15 18 21 24 26 30 33 9 7 2 2 3 3 3 5 3 4 4 4 5 4 4 1 2 3 3 5 5 2 2 3 3 0 1 2 4 3 5 5 9 9 9 9 12
12 11 12 14 16 19 21 23 25 29 18 6 4 2 1 4 5 2 2 2 2 1 4 3 2 4 6 3 2 3 3 6 4 6 3 3 4 1 3 4 5 6 11 11 5 5 8
12 11 12 12 14 16 18 19 20 22 23 4 4 0 1 4 2 2 5 3 2 3 3 2 2 2 2 1 2 4 7 6 6 2 4 4 4 2 3 3 1 6 4 7 11 6 12
10 11 13 11 12 14 15 16 17 17 19 11 7 1 1 2 3 6 3 1 0 3 3 1 2 1 1 3 3 2 2 2 3 3 3 4 4 1 1 3 6 4 3 5 5 6 6
11 12 11 10 11 12 13 14 15 15 16 12 9 8 1 1 4 1 4 3 3 1 3 1 1 2 3 2 2 3 4 3 3 2 3 4 5 2 3 2 3 2 1 2 4 4 4
11 11 10 11 10 10 13 12 13 12 12 14 3 9 3 3 3 1 4 3 1 2 2 2 1 1 3 2 2 3 3 4 4 5 5 3 2 6 4 3 6 6 4 4 1 4 2
10 10 9 11 10 10 10 12 11 10 9 9 8 5 4 3 7 4 3 2 3 1 3 3 3 1 2 2 3 3 3 3 2 3 5 6 6 3 4 3 7 5 3 3 4 3 2
9 9 9 10 15 8 9 11 12 9 9 9 3 5 6 3 5 8 18 22 11 4 2 2 2 3 4 3 1 2 2 3 3 3 0 4 6 4 7 5 3 3 4 4 3 3 2

GFSGBSN_925_spd_036.txt.gz
Wind_Speed
22 21 25 25 24 26 27 24 24 25 24 25 23 23 23 22 20 17 16 17 16 14 15 16 17 14 13 2 8 4 7 10 28 25 21 8 11 5 6 6 4 4 2 5 5 5 3
22 24 25 27 25 27 26 25 25 24 23 24 23 22 20 19 19 16 15 15 15 13 15 15 14 11 8 8 10 16 17 12 28 25 20 10 6 5 5 5 6 6 6 4 4 4 3
23 25 25 27 28 28 29 26 25 24 23 22 23 20 19 17 18 17 15 16 15 15 14 13 12 11 10 10 3 6 6 17 28 25 12 17 7 4 6 4 5 4 3 2 5 4 5
22 24 26 28 27 29 29 25 24 23 22 22 21 20 19 19 17 16 16 15 17 14 13 12 11 12 6 8 14 12 6 15 19 22 22 19 7 5 3 3 4 6 3 2 3 7 5
22 25 27 29 28 30 28 25 24 24 25 23 21 19 20 18 15 13 11 19 18 15 13 9 6 4 3 2 9 19 8 13 20 18 20 21 6 3 2 6 4 2 4 4 5 6 3
23 25 26 29 29 29 28 27 26 25 24 26 22 19 18 16 15 15 17 23 16 9 8 5 4 3 2 3 5 9 5 15 8 14 6 5 4 5 3 4 6 6 2 2 5 1 2
24 26 28 30 29 28 28 28 27 28 28 27 23 21 17 16 15 11 16 8 4 3 1 5 4 4 4 8 11 4 9 8 4 12 9 7 6 15 10 5 3 6 4 4 3 0 3
23 25 27 29 30 28 28 30 29 29 28 27 25 21 18 18 18 15 10 1 3 2 2 6 8 10 3 8 6 3 5 4 4 5 7 7 8 7 8 8 6 4 4 2 3 1 1
21 23 25 28 29 28 29 30 32 33 33 29 28 25 22 20 20 9 7 5 3 3 2 4 3 6 3 6 4 5 5 2 5 4 11 6 4 10 8 8 7 2 3 3 2 4 1
23 25 26 28 28 28 30 32 34 36 36 32 26 21 18 16 6 8 2 3 6 4 4 1 2 1 1 9 3 2 3 3 2 8 12 3 2 4 5 6 4 3 2 2 3 3 3
20 24 26 27 28 28 29 32 34 37 33 27 22 18 10 9 11 2 3 5 6 1 5 2 1 1 4 5 9 1 2 2 4 9 3 2 4 10 7 4 7 1 3 4 3 3 3
21 23 25 26 27 27 28 31 33 34 30 27 23 15 6 11 11 7 6 8 2 3 5 0 2 7 6 3 3 3 3 3 2 9 11 4 1 3 3 5 2 8 5 5 4 2 2
20 22 24 24 26 27 28 30 32 30 28 22 21 19 13 6 3 7 7 1 3 5 1 3 4 6 10 5 5 4 2 3 3 5 3 4 2 1 4 6 4 3 5 2 4 3 4
19 20 23 24 26 26 28 28 30 29 25 19 16 16 16 11 5 3 5 3 8 4 5 6 11 13 6 5 5 3 3 3 6 5 3 3 2 1 1 3 5 2 4 4 4 1 3
18 20 22 24 25 26 27 28 28 28 21 18 15 11 7 12 7 6 3 5 3 3 1 9 9 7 5 6 4 4 3 3 2 3 5 4 3 1 3 2 3 3 2 2 5 2 3
17 19 21 23 25 26 27 28 29 28 23 16 9 8 6 18 8 1 2 6 3 2 2 5 5 1 3 3 3 2 1 1 4 2 1 3 4 2 2 3 6 3 6 3 3 2 3
17 17 20 23 25 26 28 29 31 31 24 11 4 3 7 17 6 4 4 3 3 4 2 4 3 4 4 4 3 4 3 2 2 3 5 4 4 1 2 1 6 2 2 5 4 2 3
16 17 19 21 24 25 27 29 32 33 26 6 3 3 12 10 4 2 3 4 4 4 2 4 4 5 4 3 3 2 6 1 4 5 4 1 4 3 1 1 1 2 4 4 4 3 2
14 17 17 20 22 24 27 29 30 32 22 8 2 2 5 5 3 3 3 3 2 4 4 2 2 3 1 4 4 3 3 2 6 3 5 4 2 3 3 4 3 3 4 4 4 3 5
15 15 17 18 20 23 25 28 30 31 18 5 2 3 4 4 1 3 4 3 3 2 2 3 3 3 4 3 4 4 2 3 6 5 7 5 3 4 5 4 3 2 4 5 5 3 3
14 15 17 18 19 21 25 27 30 30 13 4 3 1 2 3 3 4 2 2 2 4 4 4 4 2 5 3 2 3 2 2 4 4 3 3 3 2 4 4 3 4 4 7 7 5 6
14 14 16 17 19 20 23 26 29 32 8 6 2 1 0 2 3 4 4 5 4 2 2 2 5 1 2 4 5 6 6 2 3 3 3 1 3 2 3 2 5 5 8 9 9 6 10
12 15 14 15 17 18 20 22 25 29 15 6 5 2 2 2 2 2 2 4 4 3 4 4 3 2 4 1 2 3 2 4 6 7 3 4 5 2 3 4 5 5 8 13 5 5 9
12 13 13 15 14 16 17 19 20 22 21 6 6 3 2 3 1 3 3 2 3 3 1 3 4 2 2 4 2 6 7 6 6 3 3 4 4 2 3 4 1 5 4 9 11 5 11
11 13 15 14 12 14 14 15 16 17 19 9 10 3 2 3 3 5 2 3 1 3 2 1 2 0 2 3 3 3 1 2 1 2 3 3 4 2 1 3 6 3 4 5 6 4 9
12 14 14 12 12 12 12 12 13 13 14 10 8 9 2 2 3 3 4 3 2 1 3 0 0 1 4 2 2 3 4 4 3 3 3 4 4 3 3 2 3 3 3 3 3 1 2
11 12 12 11 14 10 11 10 11 11 11 12 4 8 2 2 3 2 3 3 1 0 2 2 2 1 3 2 2 3 3 4 5 6 4 4 3 4 4 3 6 6 3 2 1 4 2
8 10 11 11 11 14 8 10 10 10 9 9 5 2 3 2 5 3 3 3 3 1 2 2 3 1 2 3 3 3 3 4 3 4 6 7 7 4 3 3 7 4 4 4 3 2 3
9 9 9 11 11 13 13 9 9 10 8 8 3 3 3 3 5 9 18 23 15 11 3 2 2 3 4 3 1 2 2 1 3 3 0 4 5 5 7 5 3 3 2 3 4 4 3

GFSGBSN_925_spd_039.txt.gz
Wind_Speed
21 24 24 25 26 27 27 28 24 23 23 22 20 21 19 17 15 15 14 14 14 13 11 10 9 8 7 7 7 4 8 0 30 27 21 11 13 10 9 5 5 2 4 5 2 4 4
22 23 24 25 26 27 28 28 25 24 24 22 21 19 16 15 14 13 13 11 12 12 11 10 8 6 5 9 6 22 12 7 30 27 22 11 11 5 7 6 5 8 4 3 2 2 1
22 23 25 26 29 27 29 27 25 25 24 23 22 20 17 16 14 13 12 11 9 10 11 10 7 7 6 12 6 13 6 10 34 27 16 11 19 7 6 5 4 6 4 2 5 3 3
23 24 26 27 29 29 29 27 27 26 25 25 22 20 16 16 14 12 11 9 12 12 9 7 8 7 6 9 19 3 8 6 27 24 24 16 10 5 3 5 4 5 3 4 2 8 5
22 24 25 27 29 30 28 29 29 29 28 27 25 20 17 16 13 11 14 15 16 13 7 5 4 5 4 3 7 13 8 5 21 19 23 19 8 3 3 6 4 2 4 5 3 8 3
23 25 26 29 29 29 29 29 29 29 30 27 25 21 17 15 12 11 10 16 11 3 4 2 3 1 3 3 5 12 5 9 10 14 12 9 3 4 3 4 8 6 4 3 8 2 3
23 24 25 28 29 28 27 29 31 32 33 33 28 20 16 13 11 9 12 4 3 4 2 5 5 4 3 3 5 4 4 13 9 11 6 9 4 14 10 4 4 7 5 4 2 2 1
22 24 27 28 27 28 28 29 32 34 35 33 31 24 19 16 13 9 4 2 2 2 1 4 7 8 8 4 4 2 6 5 6 12 7 6 8 8 9 5 6 5 5 3 1 3 0
21 24 26 27 27 28 28 31 31 33 33 34 33 29 16 9 10 7 7 3 2 0 2 4 2 4 5 4 5 3 4 5 6 5 12 11 6 12 11 6 6 2 4 3 2 2 2
21 23 25 26 26 27 28 30 31 30 31 30 30 26 20 6 12 8 4 2 2 0 4 3 2 3 1 4 5 1 1 2 4 10 8 3 3 13 12 11 7 4 2 4 4 3 1
20 22 25 26 27 27 29 30 30 29 27 27 26 22 21 17 8 4 2 4 4 1 5 5 4 5 5 5 6 3 3 2 5 10 5 3 5 8 9 6 5 4 5 4 3 4 2
18 21 23 25 27 27 29 29 29 28 24 22 25 25 14 10 10 7 4 4 2 5 6 4 6 8 5 3 3 1 5 6 3 12 11 4 2 4 2 7 5 6 5 6 4 2 0
17 20 22 25 27 27 29 29 28 28 23 19 17 16 16 11 2 3 4 3 4 6 1 3 3 4 3 5 6 2 2 4 2 5 3 4 5 4 3 7 6 0 4 1 2 1 3
17 20 22 24 27 27 28 30 29 28 25 16 13 10 6 8 5 4 6 3 9 5 5 4 5 9 5 5 6 4 3 3 5 7 3 3 4 4 5 3 6 5 3 3 4 3 2
16 18 21 24 26 28 28 29 30 29 30 23 13 5 2 5 7 2 2 6 2 1 4 7 6 7 5 5 4 4 3 1 2 1 4 4 3 1 4 2 2 3 2 3 6 1 1
14 17 20 23 26 28 29 29 30 31 29 21 9 5 4 17 2 4 3 6 3 2 2 4 4 2 3 3 3 2 1 1 3 2 1 3 5 2 2 3 7 2 5 3 2 3 3
13 16 19 21 24 27 30 30 31 33 30 13 3 3 5 16 2 5 4 3 3 4 2 2 3 4 3 4 3 2 1 1 1 2 4 4 3 0 2 1 5 2 1 5 4 1 3
13 14 17 21 23 26 29 31 32 33 29 9 4 3 13 11 4 2 3 3 3 3 2 2 4 3 4 4 3 2 3 1 2 4 3 1 4 3 2 1 1 2 4 4 3 4 1
12 13 17 20 23 25 27 30 31 32 24 7 2 2 6 4 3 3 4 3 1 5 4 3 2 2 1 3 3 2 3 3 3 2 5 4 2 3 4 3 2 3 3 3 4 3 5
11 12 15 19 21 24 26 29 30 31 19 5 2 2 4 4 1 2 4 3 4 1 2 3 2 3 3 4 5 3 2 3 2 2 6 6 3 4 5 3 4 3 4 5 5 3 3
10 13 13 16 19 23 24 26 29 30 14 4 3 1 1 1 2 2 1 2 2 3 3 3 3 2 3 3 2 2 2 3 2 4 3 3 3 2 3 3 3 4 4 8 7 4 5
11 13 13 16 17 19 21 24 27 30 12 6 2 2 1 1 2 1 0 1 1 2 1 2 5 3 2 4 5 7 5 2 3 1 3 2 3 1 2 1 4 4 7 8 9 4 8
11 13 15 15 15 17 19 20 23 27 14 7 6 2 0 2 1 1 2 2 1 2 0 2 1 1 3 1 2 3 1 3 6 7 3 4 5 2 3 2 4 6 9 12 6 5 9
10 13 16 15 15 15 16 16 18 20 18 6 5 3 2 2 1 1 4 3 1 0 2 1 2 3 2 4 3 6 6 6 6 3 3 5 4 2 1 3 1 4 4 6 13 5 11
9 12 15 16 14 13 14 14 14 15 19 7 10 4 2 3 2 4 2 3 5 4 0 1 0 1 2 3 3 3 1 2 3 2 3 2 4 2 1 3 5 1 3 6 5 2 11
8 13 14 13 12 16 11 12 12 11 13 8 9 9 1 2 3 1 2 2 1 1 3 1 1 1 3 2 2 3 4 4 3 1 4 4 4 3 2 2 3 3 3 3 2 2 5
9 10 11 11 13 13 12 10 11 10 10 10 5 10 1 2 3 3 4 3 1 1 2 2 3 2 2 2 2 3 4 4 5 6 4 3 2 5 4 3 6 5 4 6 2 3 2
10 9 9 10 12 12 14 15 8 9 8 8 5 2 3 1 5 3 2 3 3 2 3 2 2 1 2 4 4 3 3 5 3 4 5 8 6 3 3 4 7 5 3 6 3 2 3
10 9 9 8 11 14 14 16 9 7 7 7 2 4 5 3 6 8 18 23 18 13 3 2 2 3 4 3 1 3 3 2 4 3 2 5 6 5 7 5 4 4 1 2 3 4 2

GFSGBSN_925_spd_042.txt.gz
Wind_Speed
21 22 23 24 25 27 27 27 26 25 26 25 22 21 19 14 13 11 11 11 9 9 9 8 7 4 3 7 9 9 8 6 27 24 24 18 21 17 17 13 11 14 6 8 5 8 6
22 22 24 24 25 26 26 27 26 26 26 24 22 19 18 15 13 11 11 10 9 8 8 8 5 5 7 11 7 13 9 5 25 28 25 21 17 14 14 11 15 13 4 13 9 7 5
21 22 24 24 26 25 27 27 28 27 27 26 23 20 18 16 11 10 10 9 8 7 8 6 4 5 9 12 6 4 12 5 19 27 21 21 15 14 10 8 7 7 15 7 10 10 8
21 23 25 26 26 28 27 26 27 27 27 27 26 20 17 15 9 10 9 10 9 8 8 5 4 5 6 13 20 9 6 9 16 24 26 16 19 12 8 5 9 11 7 11 12 14 5
21 23 24 25 27 25 27 27 28 29 30 28 27 22 14 12 9 8 8 9 9 11 7 4 3 6 5 8 8 14 8 6 20 26 21 16 22 14 6 13 8 14 11 17 5 9 11
21 22 23 26 25 28 28 26 29 29 30 29 28 22 11 8 6 6 5 9 5 5 4 4 2 4 6 11 9 10 9 7 21 20 15 14 10 13 13 14 15 17 17 13 14 5 9
20 22 24 26 25 26 26 28 28 31 32 30 30 29 15 9 5 4 4 1 2 3 4 3 3 3 6 6 6 7 6 3 18 16 10 17 7 16 21 18 3 10 16 10 9 4 5
20 22 25 25 25 25 27 28 30 30 29 28 28 28 19 3 5 5 1 1 2 3 3 4 6 7 12 7 5 6 5 9 9 19 13 9 15 14 13 12 9 14 14 10 5 4 4
18 21 23 25 26 26 27 27 28 28 27 27 28 25 19 18 8 9 3 5 2 3 3 4 3 5 5 6 7 5 3 4 18 18 19 15 12 14 14 12 11 9 12 9 3 5 1
17 20 22 23 25 25 26 26 27 26 24 24 26 22 18 4 10 7 5 2 2 3 2 4 1 2 2 3 5 4 8 3 5 6 10 8 2 17 18 15 13 9 4 7 5 4 4
18 20 22 24 25 26 27 26 25 24 22 20 21 19 16 14 4 6 2 3 2 3 3 8 4 3 6 4 9 6 6 4 9 6 4 3 7 18 18 19 13 4 7 8 3 2 2
17 19 21 23 25 26 27 27 26 25 23 20 16 14 11 8 9 4 4 4 2 3 8 4 6 6 5 3 3 6 4 10 6 8 11 4 4 3 3 9 7 15 10 7 3 1 3
15 18 20 22 24 26 28 29 27 27 25 21 17 8 8 8 1 1 6 1 2 6 3 6 4 5 6 4 6 5 4 5 3 4 3 3 3 3 3 10 6 6 10 3 3 3 2
13 17 20 22 24 26 27 30 31 29 29 25 16 5 3 2 3 2 2 3 9 6 5 2 4 12 5 4 5 3 7 3 4 3 3 3 4 4 2 2 5 5 4 2 4 5 3
12 16 19 22 24 26 27 29 32 32 34 28 9 0 2 3 3 4 1 7 3 2 2 6 8 7 3 6 5 4 4 2 2 2 2 4 4 3 6 6 4 5 4 1 4 1 2
12 15 18 21 23 26 28 29 31 34 35 21 5 1 1 9 3 3 1 5 1 1 2 2 2 1 4 3 3 4 3 1 3 1 2 3 5 2 4 1 8 1 8 2 0 4 4
12 14 17 20 23 25 28 30 32 34 34 14 3 1 2 4 4 3 4 3 3 2 2 3 2 2 4 3 2 2 2 2 1 2 2 5 2 3 3 3 6 4 3 2 2 1 2
12 14 17 19 22 24 27 30 32 33 33 11 4 1 4 4 2 2 2 2 3 3 2 2 3 3 3 2 3 2 3 1 1 3 3 2 4 4 2 2 3 2 3 5 3 5 0
11 14 15 18 20 24 26 29 31 32 26 8 3 2 4 2 3 2 1 1 2 2 3 1 2 0 1 3 2 2 2 2 2 1 5 5 3 4 2 1 1 5 6 4 4 2 5
9 13 15 18 20 24 26 29 30 32 21 6 2 1 2 3 2 2 2 1 1 2 1 2 3 2 4 2 3 4 4 2 0 1 5 2 3 1 3 3 4 4 9 10 5 4 5
8 12 15 16 19 22 24 26 30 32 16 4 3 2 2 1 3 3 0 0 1 1 0 0 2 2 3 3 3 4 3 3 2 3 2 1 2 1 1 1 3 3 6 13 10 9 6
8 11 14 17 17 20 22 24 27 31 13 5 3 2 2 1 1 1 1 1 0 0 1 1 2 5 3 2 2 6 6 4 3 4 3 1 3 1 2 1 6 8 11 12 15 15 14
8 11 13 17 16 17 19 20 23 27 16 5 5 3 2 0 2 3 3 2 1 1 1 2 3 3 3 1 1 1 3 4 4 7 6 4 5 2 1 0 4 8 17 19 11 10 15
7 10 13 17 15 16 15 17 18 20 20 6 5 3 2 1 3 1 1 1 1 1 1 1 1 0 5 6 8 7 7 6 6 3 5 6 5 2 1 2 4 2 3 5 18 11 16
6 7 11 12 15 14 13 14 15 15 18 8 8 3 2 3 3 4 2 3 4 1 2 1 0 2 6 2 3 3 2 2 3 3 4 4 4 2 2 4 9 5 4 6 6 6 17
6 8 10 12 13 14 15 12 13 12 13 12 10 8 2 3 0 1 2 2 2 3 2 2 2 2 0 1 2 4 4 3 4 3 3 4 3 4 3 3 4 3 5 5 4 4 5
7 8 9 11 12 12 13 16 16 9 10 9 5 11 1 2 2 3 3 2 1 2 1 1 3 3 0 3 4 4 4 1 5 6 5 5 3 9 7 5 6 4 6 4 3 4 1
8 9 9 9 10 12 14 13 15 11 9 8 5 3 4 2 6 3 3 3 3 2 2 2 3 3 2 6 5 4 5 6 4 5 6 9 6 4 6 5 7 6 5 4 4 3 2
10 8 7 9 12 14 15 13 13 13 13 8 3 5 5 4 5 6 11 15 10 8 2 2 3 1 3 5 3 2 3 3 5 4 3 7 6 4 7 4 2 7 2 3 2 1 3

GFSGBSN_925_spd_045.txt.gz
Wind_Speed
21 22 23 23 25 25 26 25 25 26 26 26 26 22 19 16 15 13 11 11 10 8 7 7 6 8 6 11 14 4 10 21 22 24 22 17 20 19 19 18 15 15 10 16 8 6 9
21 22 23 24 25 25 26 26 27 27 27 28 28 26 20 17 15 12 10 10 9 9 7 7 6 8 11 14 10 8 4 11 23 24 25 24 17 19 11 9 19 11 13 10 11 8 7
21 21 22 25 26 25 26 27 27 29 30 29 25 25 21 15 13 7 9 8 7 5 7 7 5 8 12 14 6 6 14 8 23 29 22 25 18 18 6 8 10 13 17 9 14 12 7
20 22 23 25 26 25 29 27 29 29 30 29 27 25 22 12 10 5 8 8 9 9 7 5 4 7 7 15 20 5 7 11 10 26 24 17 17 15 6 4 9 12 12 14 13 12 8
21 22 24 25 25 25 25 29 28 29 30 30 28 26 18 6 4 4 6 6 9 10 8 5 5 8 8 4 16 19 12 11 14 19 18 15 11 14 8 12 11 13 12 18 13 18 10
20 22 23 25 25 25 25 28 29 30 29 29 28 26 17 3 2 3 4 6 2 6 6 5 5 5 11 9 15 17 10 9 18 18 12 8 7 12 12 14 15 18 19 19 17 10 15
19 21 23 25 25 25 25 26 28 29 28 28 29 26 15 6 4 3 0 1 4 3 6 2 3 7 7 5 13 13 10 7 19 17 12 12 8 19 25 23 17 13 17 16 12 7 8
18 20 23 24 25 25 25 26 27 28 27 27 28 21 17 5 7 3 1 3 8 5 2 2 5 6 11 8 10 11 8 3 13 16 17 7 9 18 19 18 16 9 13 14 4 10 6
18 19 21 23 25 26 25 26 27 27 26 24 24 18 10 13 8 6 4 5 4 7 2 5 4 7 6 5 9 8 3 5 9 21 19 15 7 16 15 15 13 13 13 13 6 9 8
17 19 21 23 25 26 26 26 27 27 27 26 23 19 15 1 3 4 4 3 3 4 2 1 2 2 3 5 5 13 7 2 3 17 16 9 7 15 18 19 15 12 4 7 6 9 6
16 18 21 23 25 27 27 27 27 27 26 27 21 17 11 5 1 3 1 3 3 3 2 2 3 1 4 3 11 5 6 5 3 9 3 5 15 17 16 17 15 4 10 7 3 4 4
15 18 21 23 25 27 28 29 28 27 27 27 22 16 9 6 1 2 2 3 4 3 8 5 3 4 7 6 4 6 3 4 5 7 9 4 4 4 3 2 8 13 13 8 3 1 4
15 17 20 22 24 27 28 29 29 29 29 29 25 13 7 4 4 2 4 3 2 6 1 6 4 4 5 4 4 6 5 4 4 4 3 4 4 4 2 11 8 8 13 4 4 4 4
13 15 18 20 23 25 28 30 30 30 32 33 20 7 6 6 2 2 2 2 9 5 7 4 5 9 4 2 4 1 6 7 3 6 3 2 3 2 4 2 7 12 15 3 6 6 7
11 13 17 19 21 25 28 31 33 33 36 34 9 2 4 3 3 4 3 6 3 2 1 5 7 5 3 5 5 3 1 4 5 2 2 4 4 1 3 3 4 3 6 2 2 2 1
10 12 15 18 22 25 27 31 33 36 39 24 7 5 2 5 5 5 1 4 2 1 2 4 2 3 6 5 3 4 2 3 3 2 3 4 6 6 8 7 0 3 3 2 2 4 5
9 12 13 17 21 26 27 29 34 36 39 16 4 3 2 2 4 1 4 1 4 2 2 3 2 2 3 4 2 2 1 3 1 3 1 4 3 5 5 7 9 5 4 3 3 2 3
8 12 14 17 20 25 28 30 32 34 38 12 5 3 0 5 1 1 4 3 1 2 1 2 2 3 3 4 4 2 3 2 3 1 3 3 4 4 2 2 4 5 6 9 4 5 1
7 10 14 16 19 22 26 28 31 31 28 11 6 3 2 3 0 3 4 4 1 1 2 2 2 2 2 4 2 4 3 2 2 1 2 4 4 4 2 3 3 5 8 7 2 3 5
6 11 13 15 17 21 24 26 29 31 24 6 4 3 1 1 2 2 4 4 4 2 1 0 2 2 5 4 1 5 5 2 1 2 5 1 2 2 2 3 3 5 10 11 8 4 5
6 9 13 16 16 19 21 24 27 31 17 4 2 2 2 2 1 1 2 1 3 4 2 3 3 4 3 3 4 3 5 5 3 3 1 2 1 1 2 1 2 3 7 13 13 11 6
5 8 12 16 19 16 19 22 25 30 14 5 4 3 5 4 4 4 2 2 1 2 2 4 3 5 5 2 2 4 7 7 6 8 5 3 2 1 3 3 6 9 11 11 15 15 17
4 8 11 15 15 16 16 19 21 25 17 7 6 3 3 1 2 4 1 2 1 1 1 3 1 3 4 2 2 3 2 2 1 6 9 5 5 3 1 0 5 10 19 19 15 11 15
5 7 12 13 15 15 16 17 19 19 19 8 6 4 3 2 4 3 4 3 3 1 2 3 2 3 3 5 6 5 3 3 4 3 5 6 5 3 1 2 4 1 2 2 19 12 15
4 7 10 12 13 15 14 16 17 16 17 8 9 4 3 4 5 7 4 5 6 4 3 3 1 2 5 2 4 4 3 4 4 4 6 7 7 2 2 5 10 10 6 5 8 7 18
3 6 9 11 11 13 15 15 19 11 15 9 7 6 2 4 3 6 5 3 5 6 4 3 2 2 3 1 2 3 4 3 4 5 4 6 7 4 3 3 4 4 3 4 3 3 7
4 7 9 12 10 11 13 14 14 14 11 9 4 8 3 3 3 4 3 3 4 5 4 2 4 4 2 5 4 3 4 1 4 5 6 7 6 9 8 4 7 0 6 5 3 4 7
7 10 10 9 9 12 14 13 12 10 11 7 6 4 3 3 8 5 5 7 5 4 5 4 3 4 4 6 4 4 7 6 5 5 6 10 6 6 7 5 7 7 6 4 6 5 5
5 7 7 8 8 10 13 14 13 11 10 5 3 5 4 5 6 10 14 15 13 10 4 3 4 4 2 5 6 4 4 3 7 5 8 6 7 3 6 4 3 7 3 5 3 4 2

GFSGBSN_925_spd_048.txt.gz
Wind_Speed
20 21 23 24 25 25 25 26 26 27 30 31 30 26 25 20 14 14 11 8 9 8 8 7 6 3 4 4 11 6 17 29 27 25 22 14 19 15 13 15 9 17 12 16 18 8 2
20 21 23 24 26 23 25 25 28 29 30 31 31 27 26 20 13 10 7 6 7 7 4 6 5 3 4 10 13 9 5 19 22 31 23 17 15 15 9 10 14 9 14 11 10 7 1
20 21 23 25 24 24 24 26 28 29 31 32 32 29 28 20 9 7 4 5 5 6 4 6 4 5 9 14 4 7 10 2 20 28 18 20 17 12 3 7 11 4 6 12 5 6 2
19 20 22 24 24 25 25 26 28 30 31 31 34 32 27 16 3 3 3 3 5 8 9 8 4 6 6 9 16 11 7 12 9 24 21 22 18 5 2 1 3 8 4 9 9 9 5
18 19 21 22 23 24 25 26 27 30 31 31 33 31 24 9 5 2 2 4 8 10 7 5 5 7 5 2 14 13 6 8 3 25 20 17 3 2 4 6 4 7 8 11 10 13 6
17 18 20 22 23 25 26 25 26 28 29 29 30 29 22 7 5 3 3 6 2 5 3 5 6 4 6 5 7 14 11 13 5 17 7 8 4 4 5 8 10 16 15 13 13 13 13
16 17 20 22 23 24 26 25 25 26 26 27 27 24 22 6 5 4 6 4 2 2 4 0 5 3 8 17 11 18 16 8 6 8 6 7 5 15 20 17 6 9 11 13 13 9 12
15 17 20 22 23 24 25 26 24 25 25 25 24 23 17 9 4 4 4 1 3 2 3 1 4 3 10 4 4 6 7 4 7 12 10 6 12 11 12 12 15 9 6 14 2 8 5
14 17 19 21 23 24 24 25 26 25 24 24 22 20 17 8 7 6 6 6 4 6 2 5 2 5 2 3 4 4 4 2 13 16 13 9 6 11 16 13 13 12 8 7 4 6 1
13 16 19 21 22 23 23 24 25 25 24 24 23 17 14 7 4 3 1 3 5 5 1 5 5 2 2 2 6 3 5 4 2 14 12 5 4 10 9 15 14 11 7 7 6 5 3
13 15 18 20 23 24 25 25 25 25 24 24 24 19 10 5 7 3 2 1 3 3 2 4 6 10 6 2 10 6 4 4 3 8 4 2 7 8 8 12 9 6 9 7 4 2 4
12 14 17 19 22 25 25 26 26 27 27 26 25 17 6 3 7 2 3 3 2 1 7 3 1 4 3 4 4 5 4 6 3 6 9 4 5 2 3 6 3 8 9 8 3 0 2
11 13 16 19 22 25 27 28 29 29 31 31 25 12 2 2 3 2 3 4 2 5 3 3 1 5 7 2 5 1 4 4 2 6 3 4 3 2 2 5 2 7 9 3 1 1 4
9 12 15 19 21 25 28 30 31 32 33 38 18 3 1 5 2 3 3 2 5 3 4 3 2 6 3 1 4 5 8 3 6 7 3 3 3 2 4 1 5 5 7 3 5 4 4
9 12 14 18 21 24 28 31 33 34 39 29 7 3 2 2 5 4 3 3 2 2 3 2 5 3 4 3 3 6 7 5 5 3 3 4 3 2 1 4 5 3 1 3 3 3 3
9 12 14 16 21 24 27 29 34 36 39 21 9 4 3 3 8 4 1 4 2 4 4 4 1 1 4 6 5 6 2 4 7 7 7 7 5 1 4 3 5 3 4 3 1 2 4
8 11 14 16 21 23 27 30 32 35 39 16 4 3 4 6 8 3 2 2 6 1 3 4 3 2 3 3 2 2 5 2 3 4 5 3 4 6 5 4 5 1 1 4 2 2 2
8 11 15 17 19 23 27 30 31 32 36 16 5 2 5 9 2 3 2 4 1 1 2 1 2 5 1 3 1 2 6 5 4 1 3 3 4 3 2 6 7 6 6 3 3 4 1
6 10 14 18 20 22 24 27 30 31 28 11 4 2 4 3 2 2 1 3 2 2 2 1 2 2 2 2 1 3 5 0 2 3 2 4 3 3 2 2 4 4 7 8 0 3 3
4 9 12 16 20 21 24 28 30 33 24 5 2 3 1 3 1 4 4 4 3 1 2 2 2 2 4 3 2 3 5 2 1 3 3 3 2 2 2 2 3 4 7 8 5 3 3
4 8 11 16 19 18 21 25 29 34 17 6 1 3 2 3 3 5 2 3 4 3 3 2 3 5 4 3 4 4 7 4 4 4 1 3 3 3 2 4 4 2 5 8 7 6 4
4 8 11 16 17 18 20 24 27 31 16 7 3 3 5 5 3 5 4 3 2 2 2 4 4 4 3 2 2 3 5 5 4 5 4 2 2 2 2 4 2 5 7 8 9 10 10
4 6 10 13 15 17 19 20 24 29 21 8 7 5 2 7 1 3 4 5 4 2 2 4 7 2 4 6 7 5 5 4 2 6 6 5 4 2 0 3 3 6 14 16 11 9 15
3 5 8 11 14 16 15 18 21 20 17 10 8 3 3 3 3 4 6 5 6 3 5 4 4 3 1 2 2 0 2 4 1 1 1 3 5 3 1 1 1 5 2 2 18 9 10
1 3 7 11 11 12 15 14 15 17 17 10 10 4 3 3 8 8 11 6 8 5 3 4 5 3 1 2 3 3 2 2 4 2 5 5 4 2 2 3 8 6 5 3 5 8 14
2 3 7 13 11 11 13 15 14 14 13 9 9 8 2 3 4 7 7 5 3 5 4 4 3 4 3 2 1 1 3 5 4 5 3 3 4 3 2 3 3 2 3 0 2 3 5
3 4 7 11 10 11 13 13 13 10 10 11 3 10 4 2 1 5 3 4 5 5 3 2 3 2 1 1 2 3 2 2 3 4 4 3 3 6 5 3 6 2 6 3 1 2 6
4 5 8 8 8 9 11 13 13 12 9 5 2 5 4 3 7 4 4 4 5 3 3 5 3 2 2 2 2 3 3 4 3 5 6 7 5 4 4 3 6 6 4 2 4 4 6
4 6 5 5 8 9 12 13 11 10 11 8 4 4 1 4 5 13 18 18 12 6 3 3 2 4 4 3 2 2 2 2 4 3 6 4 6 4 6 5 3 4 0 5 6 5 4

GFSGBSN_925_spd_051.txt.gz
Wind_Speed
19 21 21 22 22 21 22 23 24 25 27 29 30 30 26 23 17 8 6 4 4 5 4 5 6 2 6 4 10 11 6 34 30 27 23 10 12 6 7 5 8 7 7 11 8 9 9
18 20 21 22 22 22 22 23 23 25 28 29 31 30 27 21 12 2 3 1 3 4 4 5 5 2 2 6 8 17 4 27 29 29 23 14 10 10 5 10 5 8 10 6 2 11 7
17 18 19 21 22 23 22 22 22 25 27 28 30 30 26 17 9 5 4 3 2 3 3 5 4 1 4 11 4 9 4 9 21 31 13 18 11 12 7 5 5 4 7 3 8 6 4
16 18 20 20 22 23 23 22 23 24 26 27 28 29 20 15 11 7 4 3 4 5 5 5 3 1 5 12 12 17 9 2 7 23 20 23 17 3 2 3 6 5 6 7 9 7 3
15 17 20 21 22 23 23 23 23 23 24 25 27 25 17 12 10 7 4 4 7 8 4 1 2 2 6 8 6 8 8 3 6 20 20 15 6 3 3 6 5 5 5 8 10 10 6
15 16 19 20 22 23 23 23 23 22 23 23 22 23 18 11 9 8 8 4 4 5 5 3 4 1 4 6 6 6 2 4 4 13 15 9 4 3 5 6 13 16 10 7 9 9 6
13 15 17 19 20 21 23 23 24 23 22 21 21 19 17 10 7 6 10 5 4 3 2 4 6 7 5 13 5 4 7 5 3 10 10 10 6 13 12 3 5 7 8 3 7 6 8
12 14 17 19 20 21 23 24 24 23 23 21 19 15 15 10 6 6 8 3 3 1 4 5 3 2 9 4 2 3 2 6 3 8 11 6 5 5 8 6 6 4 7 11 1 5 12
11 13 16 18 19 20 21 23 23 23 22 21 19 16 11 10 9 2 6 3 2 6 2 2 1 3 2 2 6 4 5 1 10 8 11 8 7 7 8 5 8 6 6 5 6 3 4
11 12 15 16 18 20 22 23 24 24 23 22 20 18 11 8 5 3 1 1 1 2 2 11 7 5 3 5 3 1 4 5 2 7 9 2 4 8 7 8 5 4 5 4 12 6 4
10 12 14 16 18 21 22 23 24 25 24 23 23 17 8 1 6 3 2 1 4 0 5 8 6 3 5 3 6 9 8 1 6 10 1 2 3 4 3 2 4 5 5 7 4 4 4
10 11 13 16 18 21 23 25 26 28 28 27 24 15 4 5 3 3 1 4 3 4 4 1 4 3 6 6 3 4 3 3 1 6 8 4 3 4 3 3 3 2 8 8 5 3 1
9 11 13 16 18 22 24 26 28 29 31 34 24 8 5 5 4 2 2 2 4 5 4 2 3 0 2 4 4 3 3 5 3 4 2 2 3 2 3 4 5 3 7 2 2 1 5
8 11 14 16 20 22 25 29 31 33 34 33 14 1 4 5 7 5 2 1 8 3 3 2 2 4 3 1 3 4 4 3 3 4 4 4 4 2 1 4 3 7 5 5 6 4 4
7 10 14 16 19 21 24 28 32 33 38 32 9 5 3 6 7 10 2 5 4 3 3 2 1 2 2 3 5 6 1 4 3 3 5 4 2 2 0 2 3 3 3 2 2 2 3
7 10 14 16 19 22 25 28 31 33 37 19 10 2 4 10 9 6 3 4 3 4 3 2 3 0 1 3 2 7 7 5 6 5 2 5 5 1 2 1 2 2 2 2 2 2 4
6 9 12 16 19 21 25 28 30 33 36 18 0 2 5 9 8 0 3 4 4 4 0 0 4 1 3 3 4 3 3 4 6 9 6 7 3 3 5 5 5 4 2 3 2 4 3
5 8 12 15 19 21 23 27 30 32 32 16 5 2 11 14 1 2 2 4 4 0 3 3 1 2 1 1 2 1 4 1 2 6 6 5 4 3 4 4 8 2 4 4 4 4 2
4 8 11 15 18 19 22 26 29 31 22 9 3 2 9 7 1 1 3 2 1 1 0 2 1 1 1 2 2 3 4 3 5 2 5 4 2 3 3 1 6 4 5 4 2 1 4
4 7 10 14 17 18 22 27 31 33 21 3 1 3 1 2 2 2 4 5 4 2 2 2 1 2 1 1 1 3 2 1 3 2 0 2 3 5 7 4 5 5 11 11 6 2 3
3 6 9 13 16 18 22 25 31 34 17 2 3 2 2 2 3 3 1 1 3 4 2 3 2 4 4 3 4 4 3 2 2 1 1 3 3 2 2 3 3 3 5 13 10 8 5
2 5 9 12 15 18 21 24 27 32 15 7 3 3 3 3 5 3 1 3 2 2 4 4 3 6 4 2 2 4 6 4 4 2 3 2 2 2 3 4 2 4 7 7 8 10 7
2 4 7 12 14 17 19 22 24 26 20 8 7 6 2 5 5 1 2 3 4 2 1 2 2 2 2 2 1 3 4 2 6 7 5 4 4 2 2 2 3 7 13 15 7 6 13
4 2 6 12 12 13 17 17 20 22 17 9 7 4 2 3 3 4 6 4 7 5 0 3 4 1 1 3 2 3 5 5 5 4 4 5 6 3 3 2 1 6 3 8 16 9 9
5 2 4 9 11 12 15 16 16 18 15 10 13 5 3 3 4 6 11 4 6 5 2 1 3 1 4 1 2 2 1 1 3 1 1 2 4 2 2 3 7 3 3 5 6 7 13
7 3 2 7 8 10 12 15 16 14 14 12 9 11 2 1 2 5 3 4 2 4 4 3 1 4 3 2 2 3 3 4 3 3 1 2 3 4 1 3 4 3 1 2 3 5 2
6 3 3 5 7 8 10 13 13 13 11 10 4 13 2 2 3 4 3 3 5 3 3 2 4 2 3 1 0 2 3 2 3 5 4 2 1 5 4 3 6 6 4 2 3 4 4
7 4 4 3 4 6 9 11 11 12 12 10 4 4 4 2 6 3 5 2 4 3 2 4 1 3 1 2 3 3 3 4 2 4 6 6 5 3 4 3 7 3 3 3 3 1 3
7 5 4 4 4 6 7 10 8 11 11 6 3 4 3 3 5 16 22 22 15 2 1 3 3 2 3 2 1 2 2 1 5 3 1 3 6 4 7 5 5 5 1 3 5 4 3

GFSGBSN_925_spd_054.txt.gz
Wind_Speed
16 18 19 20 20 19 18 18 19 20 23 23 26 27 26 21 12 5 4 2 2 3 2 3 4 1 5 4 10 12 18 19 31 29 26 6 5 7 5 5 6 3 13 9 7 12 13
16 17 19 19 19 20 19 18 19 20 21 23 25 26 21 17 11 8 7 4 2 3 3 3 2 2 2 8 6 5 22 12 36 35 23 11 8 6 5 5 10 7 2 9 7 9 11
15 16 18 19 19 19 19 19 18 19 21 22 23 23 17 14 9 7 6 4 2 1 1 1 2 2 2 10 3 8 19 17 23 26 13 15 10 6 6 4 3 5 7 5 6 7 8
13 15 18 18 18 19 19 20 20 19 20 20 20 20 15 13 10 6 6 5 4 4 3 4 4 1 5 6 7 13 7 0 13 21 22 24 12 5 2 3 4 5 5 5 5 9 7
11 13 16 17 18 19 20 20 20 20 19 19 19 18 15 11 10 7 6 5 5 8 2 1 2 1 6 9 5 13 3 4 3 12 20 15 5 4 3 7 4 3 6 7 7 10 6
10 12 15 17 18 18 19 20 20 20 19 18 18 17 16 10 8 10 8 2 3 3 4 1 2 1 3 4 4 5 2 4 5 10 11 6 4 4 4 6 16 14 6 7 9 13 6
9 11 14 15 18 18 19 20 20 20 20 19 17 16 14 13 8 11 12 2 4 3 3 2 4 3 7 9 4 10 6 7 2 10 6 11 6 14 9 4 6 8 6 6 3 4 7
8 10 13 14 16 18 20 21 21 20 20 19 19 16 13 11 8 7 5 4 1 1 4 1 6 3 9 3 1 7 5 5 4 15 12 7 8 4 8 3 4 9 8 6 2 3 8
7 9 12 14 16 18 20 21 21 23 22 20 20 16 15 9 5 2 3 2 2 2 1 2 2 3 3 5 4 3 3 2 13 11 17 10 7 7 8 2 4 2 5 4 4 3 2
7 9 11 14 16 18 20 21 22 23 23 23 22 18 12 7 3 1 2 3 1 1 3 7 5 4 4 1 5 5 4 1 4 14 10 6 5 7 8 4 4 2 5 5 6 5 4
7 8 10 14 16 18 20 21 22 23 24 24 24 19 9 4 3 4 3 3 1 2 5 5 4 8 8 3 3 5 6 5 7 9 4 1 4 9 5 3 5 5 3 7 4 4 3
7 8 10 13 16 19 21 23 24 26 26 27 25 18 4 5 6 3 3 0 1 5 1 1 5 1 4 3 2 3 7 6 3 8 8 4 2 4 2 2 3 4 6 8 5 3 1
7 8 10 12 15 19 21 24 26 26 27 28 21 11 5 5 2 6 3 2 4 5 3 4 3 4 7 3 4 3 1 3 3 4 4 4 4 2 2 5 4 4 5 2 1 1 8
7 7 10 12 15 18 22 24 25 26 28 30 13 1 5 4 5 4 3 3 7 4 3 0 1 5 3 4 4 2 5 2 3 5 4 5 3 1 2 2 5 3 4 5 6 4 4
6 7 10 13 16 18 21 23 27 28 31 27 4 3 2 6 6 4 3 4 7 5 4 4 2 2 0 2 5 3 2 6 4 7 5 4 2 1 2 2 2 3 5 4 4 2 3
5 6 9 13 16 19 20 23 27 29 31 18 1 2 2 6 5 2 3 3 2 3 2 3 3 6 3 5 5 5 4 5 5 5 5 6 4 3 3 2 2 1 1 1 2 3 4
4 5 9 12 16 18 21 23 26 30 30 13 2 2 2 6 4 1 2 5 3 5 3 2 2 2 3 4 5 5 8 4 6 7 6 6 4 4 5 7 10 5 4 4 2 4 4
2 5 9 12 15 17 21 24 26 28 25 11 2 3 6 9 1 2 1 4 2 2 2 3 1 2 0 2 2 2 5 3 5 7 6 6 5 4 2 3 4 3 6 5 3 4 2
1 4 8 12 15 16 20 23 26 26 17 3 1 1 6 2 1 1 3 2 2 1 2 0 2 1 2 2 2 2 2 1 3 4 6 5 0 3 2 1 2 6 6 7 1 2 6
1 3 8 11 14 16 20 23 26 26 14 2 2 2 1 2 2 3 2 3 3 2 2 1 2 1 1 1 2 2 2 1 3 2 3 5 3 5 6 4 5 5 10 13 7 4 4
2 3 6 10 13 15 19 22 25 26 10 2 3 2 2 2 1 3 4 1 3 3 3 1 1 3 3 3 2 3 2 1 2 2 2 3 4 2 4 2 4 4 6 14 17 15 8
5 3 5 9 12 15 17 19 24 27 7 8 3 2 2 3 5 5 2 2 2 1 4 3 2 1 3 4 6 6 5 3 4 1 2 2 1 2 4 3 2 4 6 9 15 15 17
7 3 5 8 11 13 16 17 20 24 13 6 4 2 1 3 4 1 4 4 4 3 1 3 2 1 4 4 2 0 4 5 5 7 4 3 4 3 3 4 5 7 12 14 8 10 13
9 5 4 8 10 12 14 14 16 19 19 10 4 1 2 1 3 2 5 5 5 6 2 3 2 1 1 2 0 4 5 5 6 3 4 5 5 3 2 3 1 6 2 7 16 14 13
11 7 3 6 9 8 10 13 15 12 14 14 12 3 2 1 2 4 9 4 6 5 2 2 1 1 2 3 3 3 3 3 3 5 4 4 4 2 3 3 7 5 2 5 6 7 14
13 9 3 4 6 5 8 11 11 12 13 9 15 9 3 2 0 3 4 3 3 4 5 2 3 3 4 2 2 4 4 5 3 3 4 2 2 4 2 3 5 4 3 3 3 5 1
14 10 4 0 2 4 6 8 9 9 10 7 6 11 4 2 3 3 1 2 4 4 3 4 6 4 3 2 1 3 3 3 4 4 4 3 1 5 6 3 6 7 5 1 2 5 5
15 10 5 2 0 3 5 7 7 9 7 6 3 3 2 2 4 2 1 2 3 2 3 6 3 2 2 2 3 3 3 4 3 2 6 6 5 3 4 4 7 3 2 4 4 2 3
15 10 5 4 0 4 4 7 8 10 7 7 4 4 4 2 4 8 17 18 14 15 1 3 5 4 3 1 0 1 2 1 4 2 2 3 6 4 7 5 5 5 5 4 4 3 2

GFSGBSN_925_spd_057.txt.gz
Wind_Speed
12 14 15 16 17 18 18 18 18 19 19 20 21 22 18 17 14 9 6 4 3 3 2 3 3 0 3 1 6 12 4 8 12 21 18 6 7 9 8 5 6 9 10 15 5 9 8
12 13 15 16 16 17 18 19 18 19 19 20 19 20 16 15 12 9 6 4 2 2 1 3 2 1 1 4 5 9 13 16 14 25 21 14 9 8 6 7 7 6 10 10 14 15 13
11 12 14 15 16 17 18 19 20 20 19 18 18 18 14 12 10 7 6 4 3 4 4 3 2 1 1 8 1 2 13 22 21 29 13 17 12 6 5 5 5 4 7 5 6 10 6
10 11 13 15 16 16 17 19 19 19 19 18 17 16 15 10 9 7 6 6 6 7 8 5 2 3 4 5 4 7 17 4 26 27 22 23 11 4 3 2 5 5 5 5 9 12 4
9 11 13 14 15 16 17 18 19 19 18 17 16 14 15 10 7 8 9 10 5 7 2 2 3 2 5 6 9 7 12 4 14 19 24 21 9 3 3 6 4 3 7 6 9 18 8
8 9 11 13 15 16 17 18 19 19 19 18 17 15 12 12 8 9 12 9 6 2 1 2 3 1 2 2 5 7 1 6 3 13 11 9 4 3 3 7 16 7 6 6 8 9 5
8 9 10 12 13 15 16 18 19 20 21 18 16 15 12 12 10 8 12 3 4 3 1 1 3 2 5 11 2 7 6 4 2 7 7 6 4 11 6 4 3 5 5 4 1 4 4
8 8 9 11 13 15 16 18 20 21 21 20 18 16 12 12 9 6 3 3 1 3 3 1 3 3 7 5 2 4 6 5 2 12 10 5 9 5 7 7 4 7 5 5 1 2 8
7 8 9 11 13 15 17 19 20 21 23 20 20 17 12 10 6 1 1 3 1 3 1 2 1 3 3 6 4 2 3 1 6 12 17 12 7 7 5 4 7 2 7 4 4 3 3
7 8 8 10 13 15 17 19 20 23 23 24 21 20 11 6 3 1 1 2 1 2 2 5 4 3 2 3 5 4 2 4 5 7 14 4 3 8 4 3 4 3 4 4 2 4 4
7 7 8 9 13 16 18 20 22 24 25 26 23 20 8 5 2 3 2 5 2 2 4 2 3 3 3 2 7 4 6 4 5 8 6 3 8 11 4 4 4 2 3 4 3 3 2
7 7 7 9 13 16 19 21 23 25 26 28 25 18 4 6 4 3 7 4 3 5 3 4 1 3 2 3 4 2 2 2 3 10 11 4 3 4 2 3 2 6 6 7 4 3 2
7 6 7 9 12 16 19 21 23 25 27 28 26 12 7 8 1 8 5 3 4 5 3 4 1 1 4 1 3 1 3 3 4 6 4 5 4 2 2 6 3 2 5 3 2 1 4
7 5 6 9 12 15 19 20 23 25 28 29 17 2 7 4 7 7 4 4 6 4 4 2 1 7 3 3 4 3 2 3 3 5 4 4 4 3 3 3 5 3 3 5 6 4 4
6 5 6 8 12 15 17 19 23 26 30 27 5 4 5 4 8 7 3 4 7 6 4 4 1 2 1 2 5 1 2 3 4 2 5 4 2 2 2 1 2 4 4 4 5 2 3
6 4 5 8 11 14 17 20 23 26 28 19 1 3 2 5 5 2 3 2 2 3 1 1 3 4 3 5 5 3 3 3 3 3 2 2 4 2 2 2 2 2 1 1 2 3 4
6 4 4 8 12 14 17 20 24 25 26 11 1 2 2 4 2 1 2 4 3 5 2 2 2 2 4 5 3 5 9 1 3 5 4 4 3 5 6 6 8 3 3 3 2 4 5
7 3 3 7 11 15 18 20 22 26 24 6 1 2 2 4 1 1 1 4 2 0 1 2 1 2 4 7 5 4 6 4 7 7 7 4 3 3 5 2 2 7 6 6 4 5 3
8 3 2 6 10 14 18 20 23 25 17 5 1 1 2 1 2 2 3 2 1 0 2 1 2 1 1 2 4 3 3 1 6 5 6 6 1 3 2 4 1 5 7 7 3 1 6
9 4 0 5 9 12 16 19 23 26 13 0 2 1 1 1 1 2 2 3 2 1 2 2 2 1 1 2 5 4 3 3 6 6 9 8 4 6 6 4 4 7 11 15 10 4 7
10 5 2 4 8 12 15 17 22 25 10 2 3 0 1 1 1 3 2 2 2 1 1 1 2 2 1 1 2 2 3 4 2 6 4 5 5 4 5 4 5 6 7 15 17 21 7
11 7 3 5 7 10 13 15 22 25 5 6 2 2 3 1 3 4 4 3 1 1 3 0 2 3 2 2 5 6 5 3 3 1 4 1 2 2 3 4 3 5 7 10 18 19 21
13 9 5 6 7 9 13 15 19 25 11 5 2 1 1 3 3 0 2 4 4 3 1 1 3 2 1 2 0 2 3 4 6 7 3 3 4 3 3 4 5 7 10 13 7 7 14
15 11 7 5 5 6 11 16 16 18 17 5 1 2 2 1 2 1 4 4 7 6 3 5 2 1 2 3 1 3 6 5 5 3 4 5 5 3 2 3 2 6 3 6 12 12 12
18 13 7 5 4 5 9 12 14 14 10 13 4 0 2 1 1 2 6 3 5 4 3 4 3 1 3 3 3 3 4 3 1 4 5 4 4 2 3 3 7 4 1 4 5 6 6
19 14 8 5 5 5 8 11 11 11 12 6 11 6 2 3 2 1 2 2 2 3 6 3 4 6 3 2 2 3 4 4 2 1 1 2 2 4 1 1 4 5 4 2 3 4 2
20 15 10 6 5 5 6 8 9 10 9 7 4 11 3 2 2 2 1 0 3 3 2 2 7 6 2 2 1 2 3 3 3 4 4 3 2 5 4 3 7 7 5 1 3 5 4
21 16 12 8 6 5 7 7 7 9 10 6 4 10 6 1 4 2 3 3 3 1 2 4 1 0 3 2 2 2 2 3 1 0 5 5 5 3 4 3 7 2 1 4 5 4 3
22 17 12 10 7 6 6 6 7 7 8 6 3 7 7 1 3 7 11 11 10 10 1 3 3 3 3 1 1 0 2 1 2 2 2 2 6 4 7 5 5 4 6 4 3 4 3

GFSGBSN_925_spd_060.txt.gz
Wind_Speed
11 12 14 15 16 17 18 18 18 19 19 20 18 18 16 15 12 11 10 8 7 7 6 7 7 3 1 1 5 7 4 6 4 10 10 6 6 4 6 7 5 2 7 6 3 5 3
10 11 13 15 16 17 17 17 18 19 19 19 19 17 16 13 11 8 8 8 8 7 6 7 5 2 2 2 3 5 8 7 5 9 11 8 6 8 5 6 5 6 1 7 4 3 3
9 11 12 14 15 16 16 17 18 18 18 18 18 17 16 12 11 8 7 8 8 9 9 9 6 2 1 7 4 10 10 8 14 15 12 15 5 6 3 5 4 2 6 4 8 10 1
8 10 11 13 15 15 16 17 17 18 18 19 18 16 15 13 10 8 8 9 9 9 12 8 8 2 4 2 6 6 4 16 14 16 17 17 10 1 1 4 5 4 4 6 4 10 3
8 9 10 11 13 15 15 16 18 18 19 17 18 17 15 13 12 10 10 10 7 6 6 3 3 1 5 3 4 5 14 14 16 18 15 10 5 4 3 7 4 3 4 5 6 16 9
9 8 9 10 12 14 16 17 18 19 19 19 20 20 16 13 13 12 12 9 4 3 2 4 8 3 2 7 1 6 5 4 9 12 6 4 3 3 3 6 16 8 4 2 3 12 10
9 8 9 9 12 14 16 17 18 19 20 19 19 21 18 14 13 12 11 1 4 3 1 3 6 4 4 4 3 8 4 4 12 11 2 9 7 11 5 4 5 8 5 5 2 6 3
12 9 9 9 11 14 16 17 19 19 20 20 19 19 17 13 11 10 5 5 2 3 2 2 5 5 6 4 1 4 5 3 7 14 13 5 8 5 7 5 5 7 7 4 1 3 8
12 9 9 9 10 13 16 17 19 20 21 20 19 19 17 10 8 6 2 5 5 1 1 2 3 3 4 5 3 4 4 0 8 14 14 8 7 7 6 4 5 2 7 5 4 3 2
13 11 9 9 10 12 15 18 19 21 21 20 20 18 15 7 4 2 2 6 4 2 4 5 3 2 2 2 4 3 3 3 4 4 9 4 4 8 6 5 5 2 5 6 6 6 4
13 11 9 9 11 12 15 18 20 20 21 21 20 18 11 5 1 2 2 6 2 3 4 4 5 4 5 3 4 7 3 5 3 3 4 3 8 9 4 6 4 2 3 5 3 4 3
12 11 9 8 11 13 15 18 19 21 22 23 22 15 3 5 4 2 5 4 1 5 1 4 3 5 2 3 4 2 4 5 3 3 7 3 3 4 3 2 5 7 6 7 4 3 2
12 10 8 7 10 13 15 17 18 21 23 24 21 7 8 7 1 7 5 3 4 5 3 1 1 1 2 2 4 1 3 2 3 5 8 7 3 2 2 6 3 3 4 3 2 2 4
13 10 8 6 9 11 14 17 18 21 23 23 12 6 7 2 5 7 1 4 5 4 3 3 5 3 2 3 3 3 5 2 1 5 5 4 4 1 5 4 6 3 4 4 5 3 4
13 10 8 6 8 11 13 16 18 21 23 21 3 5 6 4 7 5 2 3 5 5 3 5 3 2 2 2 3 2 1 0 1 1 5 5 2 2 4 2 2 4 3 4 6 3 3
14 11 8 6 7 10 12 16 17 19 20 14 4 4 3 7 6 2 3 3 0 2 2 3 3 3 3 4 1 2 4 2 3 1 1 3 5 1 1 2 5 3 5 3 2 2 4
14 11 7 4 7 10 11 15 17 18 18 4 3 3 2 3 4 2 2 5 4 5 3 1 1 3 4 4 2 1 3 2 1 3 5 3 4 3 3 4 5 2 2 3 3 4 3
15 11 6 4 6 9 12 13 16 18 13 4 4 2 3 3 1 2 2 4 3 1 1 2 1 0 5 5 3 3 5 3 6 6 5 2 4 3 2 3 3 2 6 5 4 4 1
16 11 6 3 6 8 11 13 16 18 7 4 3 1 2 1 1 2 3 2 3 2 2 1 1 1 1 3 3 2 2 3 6 4 5 5 1 4 2 2 1 6 9 6 3 2 6
17 11 6 2 4 8 10 13 16 16 3 2 3 1 2 1 1 2 2 3 1 1 0 1 1 1 2 3 3 4 2 2 2 2 9 3 3 5 6 4 4 6 11 16 13 7 8
18 12 8 3 2 7 9 12 17 14 3 2 3 1 0 2 2 3 2 2 1 1 1 2 3 1 1 2 2 2 3 3 4 6 4 2 3 3 3 2 3 3 6 13 15 18 10
19 14 9 3 1 5 8 11 17 14 3 6 3 2 2 0 2 3 2 2 2 3 1 1 3 2 2 3 4 6 4 1 3 1 4 0 1 3 5 4 4 5 7 9 15 17 16
21 16 10 6 4 7 10 12 15 18 3 5 2 3 2 2 1 1 0 2 4 2 2 4 1 1 2 2 1 2 3 4 5 8 6 6 6 3 4 2 3 6 14 13 7 6 14
22 18 12 8 6 6 8 11 14 16 18 8 4 3 2 1 1 1 2 2 1 1 2 3 2 1 1 5 2 4 6 5 6 3 4 6 5 3 3 0 1 6 2 5 11 10 11
24 19 14 9 8 8 7 8 11 13 13 19 7 3 2 1 1 1 4 3 4 4 2 1 3 1 3 2 3 3 3 2 1 3 4 2 4 2 3 2 6 2 1 4 5 5 5
26 21 16 12 10 8 7 7 8 10 10 11 16 6 3 3 2 2 2 3 3 4 5 3 4 6 1 2 2 3 3 4 2 1 2 3 3 3 2 2 4 5 2 3 4 3 3
28 23 17 14 11 8 5 5 7 8 8 10 10 12 4 3 2 4 4 1 2 2 1 3 6 6 2 2 2 2 2 3 3 4 4 3 2 4 3 2 6 7 5 2 4 4 4
29 24 19 16 12 10 8 6 7 9 10 9 9 11 5 2 3 2 4 2 3 2 2 4 3 1 2 1 2 2 2 3 1 0 5 6 5 3 3 4 6 4 0 3 5 3 3
30 24 20 17 13 11 9 6 6 8 9 8 5 6 6 3 3 2 2 3 4 3 2 2 1 3 4 1 1 2 1 1 2 2 1 2 5 4 7 5 5 3 5 4 3 4 4

GFSGBSN_925_spd_063.txt.gz
Wind_Speed
12 12 12 13 15 16 16 17 17 17 17 18 18 17 15 14 13 11 11 10 10 9 8 9 8 7 3 2 4 7 6 8 9 13 5 6 6 4 5 8 5 3 6 9 7 11 7
12 12 12 12 12 15 16 16 17 17 17 17 17 18 16 15 13 11 9 10 9 8 8 7 7 7 3 2 3 7 8 2 8 8 5 4 5 4 5 5 4 6 5 6 5 7 4
12 11 11 12 12 13 14 16 16 17 17 16 17 17 16 15 12 11 10 10 10 9 9 7 6 3 2 8 5 9 10 4 5 4 5 7 2 3 3 6 4 5 6 3 2 5 3
14 11 11 10 12 12 14 16 17 17 17 16 16 16 16 14 13 11 11 11 12 9 9 1 1 2 4 5 4 7 6 7 9 7 10 8 3 1 1 3 4 6 4 6 4 8 4
14 12 11 9 12 12 13 15 17 16 17 17 16 17 16 13 13 12 12 13 13 8 4 1 2 3 5 1 5 5 4 3 7 10 12 5 2 3 3 8 4 2 6 5 4 10 7
13 13 12 10 11 12 12 15 17 17 17 18 18 18 16 13 12 12 14 13 5 8 4 3 1 1 3 3 1 4 8 8 4 16 9 5 4 3 3 6 14 8 7 5 6 9 7
14 13 12 10 11 13 13 15 16 17 18 18 18 18 16 14 10 10 12 3 4 2 1 3 5 4 4 2 3 11 3 9 13 6 5 5 7 11 6 3 4 6 6 7 3 8 6
14 14 13 10 11 13 13 14 17 18 18 18 18 17 15 13 7 6 6 2 1 1 5 3 4 4 9 4 3 10 9 5 9 12 4 4 9 4 10 7 9 10 6 3 2 6 7
14 14 13 10 11 13 14 14 16 18 18 18 18 17 15 10 5 3 1 2 2 2 0 4 0 3 3 6 5 6 4 4 13 7 6 5 7 7 7 5 7 3 9 4 5 4 1
15 14 13 12 10 13 14 14 16 18 18 18 17 16 14 7 2 3 2 5 2 1 4 4 3 1 2 2 4 3 3 4 2 7 7 4 5 7 7 4 5 3 4 5 7 4 3
15 14 12 13 11 12 13 14 16 17 18 18 18 16 9 4 2 4 4 7 3 2 5 2 4 3 2 2 6 6 2 6 7 9 4 1 7 8 6 7 4 3 5 5 4 4 3
15 14 13 12 10 11 13 13 14 16 18 19 17 12 2 6 3 3 8 4 0 5 1 3 2 4 2 3 3 1 1 4 4 4 6 4 2 3 3 3 4 9 6 7 4 2 2
16 14 12 11 9 11 12 13 14 16 18 19 16 1 9 8 2 9 8 2 4 5 3 2 2 0 2 4 4 4 2 6 3 4 3 8 3 2 2 6 4 3 5 2 1 0 4
18 16 12 10 9 10 11 12 14 16 17 18 4 10 8 3 7 8 4 3 5 3 3 2 1 2 0 1 3 4 1 3 3 4 4 4 4 1 4 3 7 2 4 4 5 4 3
19 16 12 10 8 9 11 11 13 15 16 15 6 7 6 5 9 4 2 3 5 6 4 4 0 1 2 2 3 3 2 2 4 5 4 5 3 2 3 0 1 4 2 4 5 2 1
20 16 13 10 7 8 10 11 12 15 15 8 6 4 2 6 6 1 2 3 0 3 2 2 2 2 1 2 1 1 1 1 3 2 3 3 5 3 3 1 5 2 5 3 2 2 3
21 17 13 10 8 7 9 11 12 14 14 2 3 3 2 4 4 2 1 4 3 4 2 1 2 2 2 1 1 1 4 2 1 2 3 4 3 2 4 4 6 1 2 4 3 3 3
22 18 13 10 7 5 7 10 12 13 9 4 3 1 4 5 1 1 2 4 3 1 2 1 1 2 5 4 2 0 5 4 5 4 3 1 4 3 2 2 2 2 4 4 3 4 0
23 19 14 10 7 4 6 8 11 12 3 4 3 2 2 1 1 2 4 2 2 1 2 2 1 1 2 3 2 1 1 3 6 3 6 5 1 4 3 2 3 2 5 3 4 2 6
24 19 15 11 6 3 4 6 10 9 4 4 3 3 2 2 0 0 2 1 1 1 0 1 2 1 2 2 3 2 2 3 3 2 7 5 3 4 6 2 4 5 11 15 14 5 9
26 21 17 12 6 1 1 3 9 4 6 4 3 2 1 3 3 1 2 2 1 0 1 2 2 2 2 3 2 3 1 1 4 4 3 3 3 3 2 2 3 4 5 14 16 16 12
28 23 19 13 6 4 1 2 7 2 6 3 3 3 2 3 1 3 1 1 1 1 1 1 2 1 2 3 3 6 5 3 3 2 3 3 2 2 3 2 2 3 7 9 16 18 19
28 25 20 14 10 8 4 5 8 7 7 4 2 2 3 2 2 3 2 1 1 3 3 4 1 1 2 2 2 2 2 3 6 7 3 5 4 2 2 3 3 6 7 11 5 4 11
30 26 22 17 14 9 5 6 9 11 6 7 4 4 3 1 2 2 0 1 2 4 2 3 2 1 2 2 2 3 7 7 6 4 3 5 3 2 0 4 3 5 2 2 9 8 8
32 28 23 18 15 11 8 7 9 9 10 12 7 4 3 3 2 2 1 2 4 3 1 1 3 3 4 1 3 3 4 3 3 1 2 2 4 3 3 3 5 2 1 3 5 3 4
35 30 24 21 17 14 11 8 7 8 8 15 11 6 3 5 2 1 2 3 2 2 2 3 3 7 2 2 1 3 4 4 2 2 2 3 3 3 2 2 4 5 2 2 1 3 3
38 32 27 23 19 15 11 9 8 8 7 6 10 6 4 4 1 1 2 3 1 2 1 2 6 5 2 2 2 2 3 5 4 5 4 3 1 4 3 3 6 6 4 3 3 4 2
39 34 29 25 20 16 13 12 12 11 7 4 10 10 3 3 2 2 3 2 2 2 2 3 1 2 2 2 3 3 2 4 3 1 5 5 5 3 3 2 6 4 2 3 3 4 3
40 36 31 26 22 18 15 14 13 11 8 5 5 7 9 6 4 4 8 6 2 0 3 3 2 1 1 0 1 2 1 1 3 2 1 2 5 4 6 5 3 2 2 2 3 5 5

GFSGBSN_925_spd_066.txt.gz
Wind_Speed
12 11 9 10 11 12 13 14 15 15 15 16 16 16 14 12 10 9 7 8 8 8 7 8 9 9 4 2 2 6 10 7 10 11 3 9 16 13 16 13 18 17 15 11 12 11 7
14 12 10 9 10 11 11 13 14 16 15 16 16 15 15 12 10 8 7 8 9 9 9 8 6 7 2 4 1 4 5 5 10 15 5 7 10 5 12 14 17 19 4 12 10 12 6
14 13 10 11 10 10 11 12 15 16 16 16 16 16 14 14 12 9 8 9 9 9 10 10 7 5 4 4 0 5 5 4 8 20 5 1 1 5 8 13 6 13 15 6 12 17 10
18 14 13 10 10 10 11 12 15 17 16 16 17 17 16 14 13 11 10 9 10 10 7 3 2 2 4 3 3 5 5 2 6 7 12 5 3 5 7 8 8 11 13 14 14 15 9
18 16 13 11 10 10 11 11 14 16 17 17 18 17 16 16 14 12 11 10 12 7 5 2 1 3 4 6 6 3 2 4 5 5 9 5 7 4 4 15 10 11 13 17 9 14 8
22 17 15 13 12 10 11 11 14 16 18 18 18 17 17 16 13 12 12 10 4 4 3 4 3 4 4 5 4 3 3 5 9 9 7 2 4 9 11 13 15 19 14 16 13 13 13
25 18 15 14 13 10 11 10 12 15 18 19 18 18 17 16 12 10 10 2 2 3 4 4 5 5 10 8 8 7 6 8 9 7 5 4 5 15 19 16 4 13 10 13 11 8 13
26 19 15 15 14 11 10 10 12 16 18 19 18 18 16 15 12 7 7 0 2 1 2 4 6 6 9 4 4 10 13 9 12 5 12 3 7 12 12 10 11 16 15 11 6 9 13
28 21 16 15 13 12 10 11 12 15 17 17 19 18 15 12 7 5 3 1 3 1 3 2 3 4 4 8 7 10 3 14 14 9 8 2 10 12 14 11 11 11 14 13 9 9 6
30 22 16 15 12 11 10 10 12 14 16 17 18 18 15 8 3 2 2 4 1 2 2 4 2 3 3 4 7 6 4 4 4 11 4 3 12 12 13 9 12 10 8 10 10 9 6
29 22 16 15 12 10 10 10 11 13 15 18 18 17 11 4 1 2 2 6 1 1 1 5 2 0 1 4 8 5 4 7 6 10 2 3 15 14 17 10 5 4 9 10 6 7 3
29 23 17 15 12 10 10 9 10 12 15 16 18 15 3 5 2 3 5 3 1 2 3 2 2 2 1 6 3 4 4 6 4 5 5 4 1 3 5 4 2 11 12 10 5 3 5
30 25 19 15 11 10 9 9 9 10 13 16 16 4 7 5 2 8 5 1 1 2 1 0 0 2 3 4 4 2 4 6 4 4 3 10 7 2 1 10 9 8 15 4 4 4 4
32 27 20 15 12 10 9 8 8 9 11 12 3 7 5 2 9 8 1 1 2 0 2 2 1 4 2 3 3 3 7 6 3 6 4 3 7 6 2 3 8 13 10 3 6 4 3
33 28 22 16 12 10 8 7 7 7 9 8 6 5 3 5 9 4 2 1 2 3 3 5 2 2 4 4 3 3 1 6 6 9 1 5 3 2 3 1 2 6 5 3 3 2 1
34 31 25 17 13 11 7 7 5 6 8 3 5 4 3 8 6 2 1 1 2 2 1 3 1 2 3 5 2 3 5 5 5 3 3 4 5 2 2 0 6 2 8 4 1 3 4
38 35 27 18 15 11 8 7 5 4 5 6 4 3 4 7 4 2 1 1 2 4 3 2 0 2 2 3 3 3 3 3 2 3 2 5 3 3 5 4 9 5 4 2 3 2 2
42 34 25 19 17 12 9 6 5 2 0 10 4 2 5 7 2 1 2 3 2 3 3 2 1 1 3 4 4 3 3 2 3 3 5 1 4 5 2 1 3 9 11 12 8 5 2
43 34 26 21 18 13 10 6 5 3 8 8 3 2 3 2 2 2 2 3 3 4 3 2 1 0 1 3 2 2 4 1 6 2 3 4 4 4 2 2 2 5 9 9 4 2 7
41 34 27 24 19 14 11 8 5 4 11 8 3 3 2 2 1 2 2 2 3 1 2 2 1 1 1 2 2 4 4 2 5 4 6 3 3 3 5 2 5 9 15 15 13 5 11
43 34 29 26 20 15 11 10 5 5 15 7 1 2 1 4 5 5 2 1 3 3 1 2 2 3 2 3 2 3 4 5 2 4 2 1 2 2 2 3 2 4 13 18 18 19 12
41 36 30 26 21 16 14 11 6 11 17 3 3 3 2 3 2 6 4 4 4 3 1 2 2 3 3 2 2 5 5 4 5 4 2 2 2 2 1 1 4 6 10 12 18 19 21
45 37 32 26 22 18 15 12 7 16 17 4 3 1 2 3 4 4 4 3 4 1 3 4 3 2 2 2 4 4 1 3 5 8 5 6 5 4 3 1 4 7 12 14 9 10 14
48 40 34 29 24 20 16 13 10 13 19 6 6 5 3 4 5 3 3 2 4 2 2 3 3 1 3 3 2 6 7 7 6 5 4 7 6 3 2 4 5 3 1 2 8 9 11
47 40 36 32 28 23 18 15 12 11 11 9 11 4 3 4 2 4 4 3 2 2 2 2 3 3 4 3 2 4 3 3 3 2 3 2 4 3 3 3 6 3 3 2 1 2 1
45 41 36 32 29 25 20 16 14 13 11 13 11 7 2 6 3 4 3 1 3 2 3 2 1 5 2 2 1 3 4 3 5 5 2 4 3 2 2 2 3 2 3 2 3 3 3
47 42 36 31 29 26 22 17 14 13 11 8 8 9 4 4 2 1 2 2 1 2 2 1 4 3 4 4 3 3 3 1 4 4 6 4 2 7 6 4 4 3 3 4 4 3 6
49 43 37 31 28 26 22 18 16 17 15 7 10 7 4 4 4 3 2 2 2 1 1 3 2 1 1 4 3 3 3 3 2 0 2 6 5 3 4 5 6 5 4 2 3 4 7
49 44 38 34 29 26 24 21 20 16 16 10 7 13 14 7 5 8 10 7 4 3 2 2 2 2 2 0 0 1 2 2 1 3 0 4 2 1 5 2 4 2 2 2 2 6 7

GFSGBSN_925_spd_072.txt.gz
Wind_Speed
24 20 19 17 14 12 13 13 15 15 15 14 16 17 15 17 17 17 15 12 11 12 12 13 15 14 11 6 4 7 10 7 7 3 9 8 11 12 14 15 12 7 11 13 5 19 16
27 27 22 19 17 13 14 14 14 16 15 14 16 17 16 17 19 17 16 13 13 12 12 13 14 12 10 9 5 9 9 3 3 2 3 9 4 11 11 14 14 8 10 14 3 4 3
26 27 27 22 18 17 15 15 14 14 16 14 16 17 17 18 19 18 16 15 13 13 12 13 11 7 10 9 4 4 6 5 3 4 9 5 8 5 8 15 11 9 4 6 4 3 5
31 31 30 24 21 18 16 16 15 13 16 16 15 17 17 17 18 18 17 15 15 14 13 12 9 9 6 2 3 7 6 2 1 5 7 14 10 7 5 6 17 12 9 8 10 9 4
30 31 29 23 23 21 17 16 15 13 14 15 15 17 17 16 18 18 16 16 16 14 12 9 7 9 6 3 3 7 5 6 4 2 3 8 4 4 9 13 8 8 5 3 6 5 3
29 30 23 23 24 23 17 16 14 12 14 15 17 17 17 19 17 17 16 13 11 11 8 8 11 6 5 3 3 10 7 2 2 3 4 4 1 4 6 12 11 5 6 5 8 7 4
30 29 27 27 27 24 19 16 14 12 13 14 16 16 17 18 15 13 14 8 3 4 8 6 8 9 9 4 1 6 4 4 4 2 2 3 2 6 13 12 10 17 6 12 13 10 7
33 31 29 27 33 25 20 17 15 13 13 13 14 15 15 15 14 11 7 4 5 1 6 5 6 5 3 4 2 5 4 5 2 2 7 2 7 10 11 12 4 12 18 9 7 10 10
35 34 32 30 34 30 22 17 15 13 12 12 12 13 15 13 12 6 7 4 1 5 4 3 2 3 1 1 4 6 5 3 2 5 2 4 6 6 4 4 9 5 7 10 7 4 14
41 36 35 31 32 32 24 17 16 13 12 11 12 12 12 10 5 2 3 2 1 3 2 3 1 3 2 3 4 1 12 2 3 6 5 5 1 7 4 10 5 8 5 11 15 9 2
44 40 34 31 27 36 25 18 17 13 11 9 11 12 9 6 7 3 1 2 1 2 1 2 3 1 1 4 8 3 5 3 6 7 1 2 1 6 10 4 5 5 7 7 7 5 5
45 40 36 33 28 37 27 20 17 13 10 8 11 10 2 2 5 2 2 1 2 2 1 1 1 2 4 6 3 4 3 3 6 7 9 4 4 5 6 8 7 4 9 9 5 3 2
42 39 40 41 28 35 30 21 18 13 9 7 7 2 9 4 1 3 2 4 1 2 3 1 3 2 5 4 4 3 6 4 2 4 5 6 4 3 3 7 2 5 8 3 2 1 4
43 37 39 37 35 32 32 24 19 14 10 5 5 9 5 2 4 3 4 1 1 4 4 2 5 4 2 2 4 2 6 4 4 4 3 2 2 3 4 3 2 4 6 4 3 4 5
41 34 38 39 39 32 33 25 21 16 11 7 12 6 3 4 4 1 3 2 3 3 5 8 9 1 2 1 1 2 2 5 5 3 2 4 3 2 3 4 4 4 2 1 2 1 3
44 37 37 36 40 32 33 25 21 17 13 16 10 7 6 5 4 3 1 3 2 3 1 10 2 5 4 6 3 0 4 2 6 5 3 5 5 1 2 3 2 2 3 2 3 1 2
44 38 34 38 33 35 34 27 23 19 16 21 7 3 6 6 3 2 2 2 2 4 3 1 4 5 5 7 5 3 4 2 1 5 2 3 5 3 4 3 6 2 2 2 2 1 1
45 48 36 39 43 37 35 29 25 22 20 21 5 3 9 6 2 2 3 3 2 8 4 2 3 3 5 7 8 5 6 1 5 7 3 4 4 4 2 3 3 5 3 6 3 2 2
42 42 42 44 24 43 36 31 27 26 33 12 4 3 4 4 3 4 4 3 4 6 6 3 3 4 4 6 3 7 5 2 2 6 1 2 2 3 2 2 4 5 6 5 3 3 2
39 43 41 41 39 45 38 33 30 28 28 10 4 4 2 2 4 3 5 6 6 2 2 1 1 2 3 4 0 6 5 2 3 2 5 4 3 1 1 1 3 5 9 8 5 3 4
39 45 40 46 35 44 39 34 32 30 28 8 2 4 6 5 7 9 5 6 9 5 3 4 4 6 4 3 4 5 5 8 3 4 2 4 2 3 2 4 4 1 6 9 9 8 5
46 47 45 54 42 44 39 34 33 31 30 4 4 3 1 4 3 12 8 6 9 6 6 6 3 7 3 3 5 5 11 5 4 4 4 5 2 3 3 1 2 2 6 7 9 10 10
40 45 47 23 45 43 38 35 35 33 31 7 2 2 1 5 6 7 8 7 8 9 1 4 2 3 3 6 4 5 5 2 6 7 6 5 4 2 1 1 3 5 8 11 6 6 6
39 41 42 28 28 39 36 34 36 34 30 3 6 4 2 3 6 8 3 5 8 4 4 4 3 2 1 3 4 3 3 4 6 3 3 3 3 3 1 2 1 4 4 5 3 5 6
41 42 41 36 34 31 35 32 33 31 22 6 9 3 2 4 5 4 7 6 7 3 6 7 5 3 2 3 3 5 2 2 4 3 2 1 3 1 2 2 3 4 1 2 3 4 2
41 44 54 52 29 36 31 31 29 30 27 11 10 4 1 5 3 2 6 8 5 5 4 3 3 3 2 2 1 3 4 4 5 4 2 3 3 1 2 1 3 4 5 3 1 2 5
39 46 59 25 40 36 31 28 25 29 33 14 5 6 2 4 4 6 3 2 3 3 3 4 3 2 3 2 2 3 2 3 5 6 5 2 2 3 4 2 5 7 6 2 1 2 6
38 40 27 35 37 35 31 27 26 31 26 16 8 6 4 4 4 7 6 2 2 2 3 2 3 0 2 2 2 1 2 3 2 4 5 6 5 4 3 3 5 3 4 1 1 6 7
33 36 18 13 29 31 29 26 26 26 26 15 7 13 16 6 5 15 16 13 9 8 1 3 3 4 2 1 1 2 0 2 2 3 3 2 1 2 2 3 2 5 8 6 6 4 4

GFSGBSN_925_spd_075.txt.gz
Wind_Speed
26 24 26 27 22 19 17 16 14 13 14 14 14 16 16 16 18 17 15 15 12 11 13 14 14 15 12 3 3 6 9 9 5 1 2 4 6 6 7 7 8 2 8 6 7 13 6
29 27 26 28 28 23 17 17 14 14 14 14 14 16 16 16 17 17 16 16 14 11 12 13 12 12 3 4 1 6 7 6 5 4 1 6 4 3 4 5 10 5 5 4 6 6 7
30 30 29 30 32 28 21 16 16 14 14 14 14 16 17 15 15 15 16 16 15 13 12 12 11 8 6 12 3 6 4 4 2 1 3 2 10 6 4 6 11 7 4 3 7 2 5
32 31 31 29 31 31 22 19 16 15 14 13 14 14 16 15 16 16 16 17 15 14 13 12 9 7 5 3 1 3 5 1 2 2 2 5 9 9 5 4 6 7 5 3 5 3 5
36 34 33 31 28 28 22 21 16 16 15 13 14 14 15 16 16 16 17 16 16 13 12 9 6 5 5 4 1 3 4 5 6 2 2 3 4 4 2 4 5 0 4 5 2 9 7
38 37 36 34 27 23 25 26 17 16 15 14 14 15 14 15 16 14 16 18 10 9 6 7 10 6 2 4 6 4 11 7 1 1 2 1 5 5 4 7 8 8 6 5 3 4 5
40 40 39 37 34 32 30 29 21 15 16 13 13 14 14 12 15 13 14 5 4 1 4 6 3 6 0 2 4 2 4 6 2 1 4 1 3 7 10 7 12 10 6 8 6 5 2
41 41 43 41 39 36 35 32 24 15 16 14 12 13 12 11 12 8 8 2 3 1 4 7 5 2 3 3 2 2 3 3 1 2 3 4 2 5 6 7 17 14 10 4 3 12 5
40 41 41 41 40 41 32 35 27 17 15 14 12 12 10 10 9 3 3 4 1 3 2 2 2 3 1 5 3 2 2 1 2 5 4 6 3 8 5 6 14 9 15 11 2 6 2
38 39 40 42 42 44 39 30 28 19 14 15 12 10 8 5 3 1 1 3 1 2 3 1 2 2 0 1 2 3 1 2 5 2 7 3 5 4 7 14 8 6 18 16 17 4 2
40 40 40 40 39 42 40 29 30 20 12 15 11 8 8 5 2 1 2 1 1 1 3 1 2 1 1 2 2 2 5 3 5 7 4 3 4 4 8 6 5 0 19 16 12 12 1
40 38 42 40 41 38 35 34 30 20 12 15 11 9 5 6 5 1 3 2 1 4 2 1 3 2 1 3 4 3 3 5 3 6 6 5 2 4 1 4 6 5 14 8 5 3 3
36 38 45 42 39 37 38 30 31 21 15 14 11 7 13 8 3 5 5 2 3 4 3 3 5 4 4 0 3 1 1 1 0 4 5 5 6 4 1 4 7 6 6 3 4 3 4
36 37 40 46 47 36 38 38 35 23 15 13 8 15 11 5 7 7 3 2 2 4 5 3 7 4 2 1 3 3 1 2 3 4 4 4 2 7 8 3 0 2 4 4 5 4 4
36 35 39 40 51 34 34 43 34 25 18 13 15 11 6 9 9 8 2 2 3 6 5 8 10 8 1 1 1 1 2 5 3 1 5 4 2 3 2 4 3 4 3 3 4 3 4
39 39 39 41 43 37 29 28 34 28 22 17 11 9 7 11 9 4 2 3 3 3 4 6 5 5 5 6 4 1 2 3 3 3 1 5 5 2 4 3 1 2 2 3 3 3 2
40 40 40 39 44 40 34 26 33 32 28 25 7 3 9 10 6 1 3 4 5 4 3 5 3 5 5 6 5 4 2 2 1 1 4 2 3 1 2 2 1 3 2 3 3 4 4
42 40 43 40 47 42 26 52 34 35 38 24 5 3 14 13 3 3 4 5 1 5 1 2 2 2 6 6 6 5 5 1 2 5 1 2 4 3 2 1 1 2 1 3 4 4 0
41 41 43 44 50 50 40 36 41 37 46 19 4 3 7 5 3 4 4 4 3 5 4 4 3 2 3 5 5 5 5 3 3 3 1 2 2 3 2 4 3 3 4 3 2 2 2
42 42 44 41 45 45 44 44 43 39 41 13 4 4 2 2 2 4 6 6 4 2 4 2 2 3 1 2 3 4 3 1 4 3 4 3 3 5 5 4 4 4 5 5 4 3 3
42 43 45 42 46 42 33 36 45 41 45 9 3 4 5 5 6 6 2 4 7 4 2 4 1 3 3 3 3 4 7 3 4 2 3 3 3 2 1 3 2 2 5 8 7 6 5
42 43 45 41 46 45 37 44 43 41 42 5 4 4 3 4 4 10 4 5 12 6 6 4 2 6 4 4 2 5 9 5 4 2 3 2 2 2 3 0 2 3 5 5 7 5 7
41 42 44 41 45 47 22 48 40 45 33 5 5 1 4 7 5 6 4 5 8 8 2 4 5 6 6 4 2 2 2 6 8 7 5 5 4 3 3 3 2 5 8 9 5 4 8
40 40 39 40 42 36 11 39 41 44 32 3 5 4 3 3 6 7 4 6 8 4 6 3 7 5 3 2 2 3 6 8 7 3 3 4 4 2 2 2 0 6 2 1 11 5 6
38 38 36 39 39 40 29 26 32 35 38 3 1 2 3 3 3 4 3 5 7 6 4 4 3 2 2 3 4 4 3 3 3 5 5 4 3 2 3 2 4 2 3 3 3 3 4
35 38 38 38 41 39 23 27 34 33 34 8 3 2 3 5 1 4 5 6 5 4 3 3 2 1 3 2 2 4 4 4 3 1 4 4 3 3 2 2 4 4 3 2 3 1 5
34 34 37 43 50 19 19 34 32 34 27 8 3 3 5 4 3 4 3 4 3 4 4 3 3 3 3 2 2 3 3 5 5 7 5 3 2 4 3 2 5 4 2 2 3 3 3
32 31 32 37 20 15 30 31 26 26 27 9 3 3 4 3 4 6 5 4 3 2 4 4 4 3 2 2 3 3 3 4 4 6 6 6 5 4 3 2 5 2 3 1 2 4 6
29 28 29 31 23 9 27 26 26 21 25 16 4 12 16 6 3 17 20 15 7 3 3 3 3 2 2 3 0 1 0 1 4 3 1 2 5 4 6 4 2 6 9 4 6 5 5

GFSGBSN_925_spd_078.txt.gz
Wind_Speed
28 29 31 29 28 30 34 27 19 17 16 16 13 12 13 15 15 14 16 14 14 14 10 11 13 13 8 2 5 2 8 6 6 1 5 6 13 8 13 7 7 14 11 8 3 8 5
31 32 30 32 33 33 31 33 20 18 17 16 13 12 12 15 15 14 15 15 14 12 12 10 11 10 2 4 2 5 5 8 4 2 2 8 3 4 8 6 7 7 3 9 11 3 6
34 33 32 36 34 33 35 31 26 19 19 15 15 11 12 13 15 14 16 15 14 11 13 11 11 6 3 10 4 5 7 4 4 2 2 0 8 7 7 4 4 10 6 6 8 3 4
34 35 36 38 36 34 32 30 29 21 20 18 15 11 10 12 16 14 16 13 13 11 11 10 10 5 5 5 4 4 5 4 1 4 3 2 3 4 3 5 2 9 5 5 6 1 4
33 35 35 39 40 40 36 29 29 28 21 18 13 13 9 13 14 14 15 15 12 11 10 8 5 4 5 6 7 7 7 6 2 3 1 1 1 2 5 3 3 0 4 8 4 1 7
32 34 36 38 41 40 38 36 33 35 23 17 15 14 9 12 11 14 14 17 7 5 3 4 7 5 4 4 6 7 8 11 4 3 3 0 2 1 6 3 10 5 7 6 6 3 7
32 33 36 37 40 41 42 41 41 34 26 16 16 11 10 10 10 11 12 2 4 2 2 6 4 3 2 4 5 2 2 5 4 3 3 1 3 6 10 8 5 8 11 9 6 5 3
34 34 34 37 40 40 41 41 44 30 27 17 15 12 11 7 8 6 6 1 3 2 4 8 8 1 2 1 2 3 1 3 2 3 3 3 4 5 7 8 7 10 16 6 4 5 3
36 36 35 34 36 40 39 38 42 43 30 18 13 15 8 2 4 1 4 2 2 1 1 3 3 3 3 4 3 2 2 1 3 4 3 4 3 5 9 15 11 9 10 8 5 12 8
37 36 37 34 35 40 41 39 34 35 25 19 15 14 6 3 2 3 3 5 3 1 3 3 1 2 3 2 2 6 8 3 3 3 4 4 3 5 9 5 2 6 10 10 10 2 4
38 38 37 39 35 38 40 40 33 33 26 22 15 13 7 8 6 4 4 4 3 3 3 5 1 3 1 2 3 2 7 4 5 2 1 2 6 7 9 5 6 6 15 16 13 5 4
35 36 36 38 37 38 39 39 41 31 27 24 14 13 7 9 6 5 5 5 3 5 4 2 2 2 2 4 2 3 2 2 4 6 5 2 1 3 2 5 3 20 14 5 3 2 4
33 34 35 36 39 39 39 41 41 39 26 24 17 14 13 12 5 10 8 3 4 4 3 3 4 3 3 1 1 1 2 3 2 3 5 8 5 6 5 6 8 18 7 2 3 2 4
34 34 35 37 38 35 39 45 49 24 22 24 18 13 18 10 9 12 6 4 3 5 5 4 4 2 1 3 1 2 1 3 4 4 4 3 2 7 8 4 2 2 4 3 4 3 3
34 34 36 38 36 37 34 45 46 39 25 24 17 19 12 9 12 11 4 2 6 6 6 10 6 3 1 2 2 2 1 2 0 2 5 4 3 3 1 2 1 4 5 2 5 3 3
35 34 35 36 37 38 38 41 45 24 36 29 21 12 9 14 12 7 3 5 4 4 6 10 6 7 5 3 2 1 2 1 2 3 3 5 4 3 4 1 3 4 1 3 3 3 3
36 37 37 37 40 39 37 41 39 11 25 30 7 3 13 18 10 1 4 6 5 4 3 6 5 4 3 5 4 2 2 1 1 1 1 4 4 3 3 5 2 4 2 4 4 2 3
37 38 38 39 41 42 39 41 38 31 26 25 3 2 22 21 3 3 5 4 4 5 1 3 4 2 6 8 3 4 4 3 3 3 2 2 5 3 1 2 0 0 0 3 4 2 2
38 39 40 40 41 42 42 41 37 39 40 16 2 2 16 8 5 4 4 6 2 4 5 5 5 2 4 6 5 4 3 3 1 3 3 1 2 3 5 5 3 2 3 2 4 3 3
38 39 39 39 41 40 39 40 47 27 47 13 3 4 3 3 1 4 4 9 4 4 4 4 3 3 5 3 2 6 3 3 3 3 5 3 3 4 5 5 3 3 4 4 5 3 4
37 38 38 37 40 39 35 43 38 23 53 13 3 3 4 7 9 7 5 7 5 5 1 5 2 3 4 4 3 3 4 2 4 3 4 3 3 3 0 1 2 1 3 5 7 4 5
38 38 38 38 39 39 38 42 32 28 41 2 3 4 2 3 9 13 4 5 8 4 5 3 4 5 4 4 5 6 7 3 4 3 2 2 1 2 4 4 4 3 5 4 5 2 5
39 38 38 37 36 34 39 41 33 42 36 2 3 1 4 7 5 7 5 5 12 9 1 5 5 5 7 6 3 5 4 6 7 7 4 3 4 3 2 3 3 6 7 8 4 4 6
39 38 38 37 36 34 34 36 18 47 34 3 3 2 3 3 6 7 8 4 12 6 6 3 5 6 3 3 4 6 8 7 5 2 4 5 4 2 1 2 1 5 1 3 7 4 5
38 36 36 35 33 35 34 34 28 42 38 6 6 3 2 3 2 4 2 5 6 6 5 4 4 2 4 5 4 4 3 3 3 4 3 5 4 3 3 3 5 3 3 4 4 1 4
36 35 34 33 33 40 41 33 17 40 38 13 10 9 1 5 1 3 3 6 5 4 3 3 3 2 4 3 3 4 4 4 4 2 3 4 4 3 2 3 5 4 1 2 3 2 5
36 34 32 30 32 40 38 9 17 42 40 17 5 8 3 4 4 4 3 4 4 5 4 3 2 2 3 2 2 3 3 5 5 7 5 3 2 5 4 2 6 5 2 2 5 5 2
34 33 29 27 31 33 25 18 25 37 30 19 2 4 3 3 4 5 4 3 3 3 5 4 4 2 3 3 3 3 3 5 3 5 6 6 5 3 2 2 7 4 4 6 5 3 5
32 30 26 26 29 32 17 29 31 31 28 18 4 16 16 6 3 10 16 16 7 2 4 3 3 2 3 4 1 2 1 1 4 3 2 3 5 4 7 4 2 2 4 2 5 5 4

GFSGBSN_925_spd_081.txt.gz
Wind_Speed
27 27 26 26 26 25 30 31 33 35 23 18 18 15 15 14 17 14 11 11 12 14 15 10 10 10 7 1 8 8 7 7 7 2 5 5 5 2 9 9 7 14 9 10 5 9 3
28 28 28 29 29 28 27 30 32 32 30 20 19 16 13 16 16 15 12 11 13 12 13 12 9 8 1 6 3 6 8 7 7 3 4 8 5 12 8 12 14 10 4 12 9 13 6
29 29 30 31 30 32 30 29 33 40 31 22 20 16 15 15 15 17 13 11 10 11 11 12 9 5 2 11 5 7 8 5 7 4 3 4 3 6 4 2 5 7 10 3 15 8 6
28 30 30 30 31 31 32 33 30 32 25 26 22 17 15 15 16 14 15 13 9 10 9 11 7 1 5 7 6 4 7 4 7 5 6 9 6 11 4 2 3 9 4 5 11 11 5
28 29 30 31 31 32 32 32 32 28 36 42 27 19 14 15 16 13 14 13 8 8 10 8 2 2 6 4 6 10 9 5 11 8 5 7 7 5 6 4 5 5 6 2 1 1 5
29 30 30 29 30 32 33 33 32 32 30 33 24 17 13 16 15 13 13 14 4 2 3 5 2 3 5 4 3 6 6 8 3 7 2 4 2 4 3 3 5 6 8 4 10 3 6
31 31 30 30 29 30 34 35 34 33 29 30 21 20 13 15 13 13 9 3 3 2 4 6 4 3 4 3 3 2 1 2 4 2 1 2 1 3 1 2 4 3 10 3 10 10 6
31 31 31 30 31 32 30 35 36 36 33 35 20 19 12 12 11 10 5 3 3 2 5 7 5 5 3 1 1 4 5 3 1 1 1 2 2 3 5 6 5 9 15 11 8 7 2
32 33 32 31 32 31 32 32 36 34 36 32 17 15 10 10 9 10 5 4 3 2 0 4 3 3 3 4 3 4 1 3 3 2 3 2 3 3 5 7 5 4 8 7 8 5 3
32 32 33 35 34 34 34 34 33 34 37 32 25 15 11 5 6 7 3 7 4 2 4 3 2 3 3 3 1 4 6 3 1 4 3 4 3 2 6 6 4 3 5 14 12 7 2
32 33 35 35 37 36 36 35 34 34 40 38 30 21 14 12 4 5 5 8 6 3 3 2 2 2 2 1 3 6 4 5 3 4 3 2 1 5 2 8 8 5 10 10 11 7 2
32 31 32 33 34 39 39 39 36 38 40 38 40 22 15 10 15 6 11 9 5 5 5 1 3 2 0 2 2 3 4 4 5 5 5 3 1 3 3 3 1 11 15 10 8 3 1
32 32 33 34 35 36 38 40 41 41 47 37 42 22 20 12 5 17 14 2 5 3 3 3 4 3 2 1 2 1 3 2 2 3 5 5 2 2 3 3 15 8 3 2 3 2 2
31 31 32 34 35 36 38 40 43 42 50 39 49 21 19 16 10 20 11 3 3 3 5 3 4 3 3 2 1 2 1 2 4 4 4 3 3 6 9 3 8 5 1 3 4 2 1
32 33 34 34 35 36 38 42 42 42 52 52 15 20 13 21 19 20 3 3 7 6 6 7 4 3 1 1 1 2 1 1 1 1 4 4 4 3 2 2 2 2 2 1 6 2 3
33 35 35 34 35 37 39 41 40 40 50 10 25 12 9 19 21 11 2 4 4 4 4 6 5 4 4 3 1 2 0 1 2 0 1 3 4 3 4 3 5 2 5 2 3 3 2
34 34 35 35 36 36 39 38 37 33 34 16 1 3 16 23 18 2 3 6 4 5 3 6 6 4 4 5 4 1 3 2 1 2 3 3 3 4 2 5 2 4 3 6 4 3 3
36 37 37 36 37 35 36 36 33 31 28 16 4 2 20 27 5 3 4 6 3 4 2 2 5 3 5 5 4 3 3 1 4 1 3 2 4 3 0 3 0 2 3 3 4 2 2
38 38 37 35 35 36 36 34 33 28 31 15 3 2 16 8 4 4 2 2 3 4 5 4 4 4 4 6 4 2 3 3 3 3 2 2 2 3 6 5 4 3 2 4 5 3 2
37 38 37 35 36 37 37 33 29 32 33 33 4 3 2 3 2 5 5 5 6 4 4 3 3 3 4 4 1 6 3 2 2 3 6 4 3 4 6 4 2 1 2 4 4 3 3
37 38 37 35 35 37 37 32 29 33 28 10 4 4 2 5 8 3 4 5 12 5 2 5 1 3 6 3 2 3 4 3 3 2 3 3 3 2 3 3 3 2 3 4 4 4 4
38 37 36 36 34 35 35 29 33 34 39 13 4 3 2 2 9 7 3 6 11 4 5 3 6 4 4 6 5 6 5 3 2 3 3 3 2 2 2 3 3 1 3 3 3 2 5
38 37 36 36 35 34 32 29 26 36 19 4 5 4 4 3 6 10 5 4 10 8 4 6 6 4 5 4 4 5 4 3 5 6 3 2 4 3 2 3 4 4 4 6 5 4 5
38 38 36 35 36 34 31 26 34 29 14 7 5 3 2 3 5 10 10 5 8 5 6 3 5 5 3 5 6 7 8 8 6 4 3 4 3 2 1 3 2 4 3 3 5 1 3
37 37 37 36 35 32 27 36 33 26 25 15 7 3 1 2 2 4 5 4 9 7 4 4 3 1 5 5 5 4 4 3 3 4 3 2 4 2 3 2 5 2 3 5 5 3 2
36 37 36 36 33 29 29 33 31 10 23 17 13 5 2 3 1 4 3 3 4 4 3 3 3 2 4 3 3 3 4 3 3 2 5 4 6 3 1 3 4 5 3 1 3 4 2
34 35 35 35 32 28 28 30 12 22 31 16 7 9 3 3 3 4 1 3 3 5 4 3 2 3 3 2 3 3 2 4 4 6 3 2 2 2 2 1 6 6 4 2 4 5 4
32 33 35 32 28 29 33 30 10 38 32 17 5 7 3 3 3 4 4 3 3 3 5 4 4 2 3 3 2 2 3 5 3 5 5 5 5 3 3 2 7 3 2 5 4 2 5
32 33 32 26 26 33 28 12 23 38 28 20 4 10 13 5 3 3 11 15 5 2 4 3 3 2 3 4 1 3 2 1 4 3 0 3 6 4 7 5 2 2 3 2 2 4 4

GFSGBSN_925_spd_084.txt.gz
Wind_Speed
26 26 27 27 28 29 28 29 30 29 31 22 24 20 17 15 15 16 16 16 15 16 14 12 9 7 5 1 8 11 8 7 8 6 6 5 6 4 8 5 11 21 12 11 10 12 13
26 27 27 28 28 28 29 29 29 31 30 22 16 20 17 17 14 16 16 16 16 15 15 12 9 6 1 7 5 7 8 8 7 6 6 6 7 3 7 6 9 9 16 7 10 11 4
26 27 28 28 29 29 28 29 30 30 28 22 19 22 22 17 13 15 17 17 17 13 14 11 9 7 3 11 6 10 12 7 6 5 3 9 7 2 5 4 14 18 10 8 6 6 6
26 27 28 27 27 29 30 30 30 30 28 26 27 30 26 14 11 14 17 16 16 14 11 8 7 3 5 8 9 9 7 5 3 8 10 13 8 5 9 3 3 7 6 7 2 12 8
27 27 28 28 28 28 29 29 30 30 31 29 28 31 19 13 10 10 15 17 15 13 9 7 4 3 7 4 6 8 8 4 8 10 9 8 3 3 3 4 4 7 2 7 2 12 10
26 26 27 28 29 29 28 30 32 33 32 33 31 32 21 14 8 8 12 15 15 9 5 4 3 2 5 3 4 8 5 4 4 7 4 4 4 2 3 5 5 6 5 3 4 2 14
26 26 26 27 28 28 29 30 31 31 32 34 34 37 19 11 6 6 8 4 2 3 4 7 6 4 1 1 2 1 0 1 3 4 2 3 2 3 2 7 3 6 6 9 5 4 5
26 26 27 27 29 30 30 31 32 31 33 32 38 42 18 9 6 3 3 3 5 4 5 9 3 4 3 2 2 1 3 1 2 2 3 3 2 3 12 8 7 4 9 5 8 9 4
27 28 28 30 31 32 32 32 31 32 30 34 33 30 11 7 5 6 8 9 5 5 1 3 4 3 2 6 2 2 1 3 3 3 5 2 1 2 4 9 3 4 7 8 4 4 9
29 32 32 32 33 33 35 33 33 33 35 35 39 34 28 10 4 5 4 6 8 2 4 3 3 3 4 2 2 3 6 3 4 2 3 2 2 3 5 4 4 3 8 10 13 5 1
29 29 30 30 32 33 34 36 36 37 37 38 42 32 36 16 8 4 1 10 6 1 2 1 3 3 4 3 2 3 6 5 4 3 2 1 2 4 3 3 5 5 8 9 10 8 5
30 29 30 31 31 32 32 33 34 37 38 38 41 33 20 14 8 6 8 8 1 4 6 2 4 2 1 3 3 2 5 5 4 3 3 2 1 2 2 6 5 8 11 8 6 5 3
30 30 31 32 33 34 34 34 34 38 39 40 35 50 19 10 5 15 13 4 3 3 2 3 4 3 2 1 3 0 1 3 2 1 3 3 5 3 4 6 2 5 3 3 3 2 1
30 31 32 33 33 34 34 34 36 38 38 43 44 45 19 23 6 21 11 3 2 3 5 3 4 3 2 2 1 2 2 2 1 1 3 4 3 6 7 3 5 3 3 2 4 3 3
30 32 31 34 34 37 35 34 35 37 38 40 43 9 16 23 13 22 3 3 6 6 6 8 4 3 1 1 1 2 1 1 2 2 4 3 4 4 4 3 2 3 2 2 5 3 4
31 33 33 33 37 36 33 33 33 35 35 34 33 6 10 24 21 15 2 6 3 3 4 5 4 3 4 3 2 1 1 1 1 3 1 2 5 3 4 6 4 2 2 1 3 3 3
32 33 33 34 37 35 33 31 31 32 34 31 15 2 12 23 22 4 4 5 3 6 4 5 5 4 3 4 4 2 2 2 1 2 3 2 3 1 1 1 2 2 2 5 5 3 3
33 32 33 35 35 35 33 31 31 31 30 20 5 2 11 27 4 2 3 3 4 4 2 3 5 4 5 5 3 2 3 1 3 0 3 2 4 4 2 2 3 3 2 3 4 1 2
33 33 33 35 35 34 31 31 31 29 21 19 3 3 11 9 3 3 1 3 3 3 3 4 3 3 3 5 4 1 2 4 0 3 3 3 2 3 7 5 4 4 4 5 6 2 1
32 33 34 35 35 33 31 30 30 27 21 17 3 2 1 2 1 2 4 3 4 3 2 3 4 5 4 3 3 4 2 3 3 3 8 4 3 4 5 3 1 2 1 3 4 3 3
32 34 34 35 34 33 31 29 28 21 21 15 2 3 2 3 4 3 3 4 5 4 1 2 3 2 6 3 2 2 2 2 4 4 4 3 4 3 4 4 2 2 3 3 2 4 4
32 33 35 34 32 31 30 30 26 23 23 11 3 2 2 1 7 7 5 3 6 1 4 3 5 4 4 6 5 7 5 3 2 5 3 4 1 3 5 6 5 1 2 4 3 3 3
32 34 34 34 32 31 31 28 25 22 19 7 3 3 2 2 4 7 5 4 6 5 6 6 7 5 4 5 3 4 5 5 5 4 2 3 3 3 2 5 6 4 5 5 3 2 5
32 33 33 33 32 33 30 28 24 29 23 14 3 4 2 2 2 4 4 4 7 0 6 3 4 5 1 5 5 6 8 9 8 6 3 4 3 2 1 3 2 4 1 1 4 3 6
33 33 32 32 32 32 30 26 27 31 14 11 9 3 2 2 2 5 5 6 4 5 4 3 4 1 5 5 4 4 4 2 4 5 4 3 4 3 3 2 5 1 2 4 5 4 5
32 32 33 32 35 33 27 23 27 20 16 18 12 6 2 4 1 3 2 5 3 3 3 3 3 3 5 3 3 3 4 2 1 3 3 5 5 4 2 2 3 4 1 3 2 4 2
30 32 34 34 34 28 25 26 25 9 23 20 9 6 4 3 3 3 0 2 2 4 4 2 1 3 1 2 2 2 2 2 4 6 4 3 2 2 2 1 6 5 2 1 4 4 3
28 31 34 35 30 28 30 25 15 15 24 21 11 7 4 3 2 3 4 3 2 2 4 3 3 2 3 3 3 2 2 4 2 2 4 5 5 3 2 1 6 2 3 5 3 1 4
26 29 32 33 29 35 33 18 4 32 21 15 7 13 12 5 3 0 7 13 5 2 3 3 2 2 3 4 1 3 2 2 4 3 1 2 5 5 7 5 2 1 1 1 3 4 3

GFSGBSN_925_spd_087.txt.gz
Wind_Speed
23 24 25 25 25 24 24 25 26 27 28 27 27 21 21 19 15 14 13 14 11 11 13 12 13 11 2 1 8 7 8 7 5 2 3 3 7 8 9 5 9 18 16 9 20 16 12
23 23 24 25 24 25 25 25 24 26 28 28 26 25 24 21 19 15 13 10 11 9 12 10 10 5 2 10 8 6 6 6 6 4 4 5 7 6 10 8 14 8 14 23 21 23 10
23 24 24 24 24 24 24 25 25 27 27 28 28 29 27 25 23 16 12 11 10 10 8 10 7 7 3 13 6 7 12 12 8 6 3 7 7 4 4 6 14 10 11 7 25 17 7
25 24 23 24 24 25 26 26 27 27 27 28 28 30 28 27 22 14 10 11 8 8 5 7 4 5 6 10 11 12 9 5 6 7 9 14 10 9 5 10 4 5 2 6 11 12 5
25 25 25 25 25 25 24 26 27 29 28 29 29 31 30 31 18 12 8 9 8 6 2 4 3 3 6 4 5 5 7 6 7 11 9 8 3 5 6 4 5 7 6 10 1 12 8
25 24 25 25 25 26 26 26 27 28 29 27 30 32 32 20 16 8 7 9 4 5 4 4 2 3 5 3 2 3 2 4 4 5 4 3 4 2 2 3 4 10 8 3 4 7 9
25 25 25 25 25 26 26 26 26 26 29 30 32 32 39 13 15 8 5 4 1 1 4 7 7 4 2 2 1 2 1 2 3 4 2 4 4 3 5 12 10 9 10 6 3 5 6
26 25 26 26 26 27 27 26 26 26 27 29 35 32 40 27 5 5 5 3 0 1 4 14 6 6 4 3 2 3 3 1 3 3 2 3 5 5 3 3 4 8 16 8 8 9 5
27 27 27 26 27 28 29 29 29 28 27 31 33 31 32 38 7 6 8 6 5 3 1 3 5 4 3 7 3 3 4 1 4 2 5 5 2 2 4 3 5 9 15 9 6 7 7
29 30 29 29 29 30 30 31 31 30 30 30 29 32 27 35 6 7 4 8 8 5 3 4 4 3 4 3 2 4 6 3 3 3 3 5 1 2 7 0 2 4 4 10 14 7 2
29 30 31 30 30 30 32 31 31 31 31 32 30 30 25 35 6 4 3 10 11 1 3 2 3 5 4 4 2 5 4 4 4 3 2 1 1 4 4 3 2 1 7 6 4 5 4
30 31 30 31 31 30 33 32 31 30 30 32 34 29 27 21 9 3 12 13 4 3 4 3 4 4 3 4 3 4 4 3 4 1 3 2 1 1 1 6 0 8 13 7 5 3 2
31 32 31 32 30 31 32 34 32 30 31 31 29 33 27 15 4 12 13 5 2 3 2 4 4 4 3 3 3 3 3 2 1 2 0 1 2 1 3 7 7 5 2 2 2 3 1
30 31 32 32 31 32 33 33 32 31 31 32 31 34 28 23 22 18 8 2 3 2 4 1 4 5 3 1 1 2 2 2 5 3 2 4 3 6 7 3 3 1 1 2 4 3 3
30 31 33 32 30 32 32 34 33 32 33 33 36 27 21 17 26 26 5 2 6 4 5 7 3 4 1 1 1 2 2 2 2 2 2 4 4 4 6 1 0 0 4 2 4 3 4
30 31 32 32 32 31 33 33 33 32 33 33 24 16 8 26 31 18 2 3 1 2 1 2 3 2 4 4 3 1 1 1 3 1 3 2 5 5 5 3 3 2 2 1 3 3 3
29 30 32 32 32 32 32 33 32 31 31 25 14 4 7 30 23 3 2 4 1 2 2 3 3 4 3 4 3 2 1 2 3 3 3 2 3 1 2 2 2 4 3 3 4 3 3
27 29 31 31 31 32 31 32 30 29 31 14 5 3 5 25 3 1 2 2 3 4 3 3 3 4 5 4 3 2 2 1 6 4 4 2 5 3 1 1 2 1 3 1 2 1 3
26 27 30 31 31 32 31 30 27 27 25 14 5 3 3 6 2 3 1 3 4 3 3 3 1 2 2 4 4 2 2 4 4 4 1 1 3 3 5 4 3 4 3 3 4 3 1
25 26 29 30 32 31 29 27 26 26 22 10 3 3 3 2 3 4 3 3 1 3 3 3 3 4 4 3 5 3 2 4 3 3 7 5 4 3 4 2 0 2 3 3 4 3 2
25 27 28 30 32 30 28 27 26 22 14 12 1 2 3 2 1 3 2 2 3 4 1 2 3 3 5 4 3 3 2 1 4 6 5 4 4 4 4 4 2 1 1 1 3 3 3
25 27 29 31 29 28 26 25 23 20 16 3 2 2 1 1 6 5 2 2 4 4 1 0 5 4 3 5 5 6 5 2 2 5 3 3 1 2 6 6 4 1 1 2 1 3 3
25 26 29 29 29 27 26 24 21 17 12 2 3 3 1 2 2 4 4 2 3 2 5 2 6 5 4 3 4 5 4 5 4 5 3 3 4 2 2 5 7 4 3 4 2 1 6
24 26 28 29 29 29 28 24 20 16 15 12 8 2 2 1 2 3 4 6 2 2 1 3 4 4 1 4 7 6 9 8 9 6 2 5 4 2 2 2 1 3 1 1 4 3 4
25 26 27 29 30 30 28 23 19 21 21 9 8 4 2 1 0 3 3 3 2 5 4 3 5 2 4 4 4 4 4 4 5 6 6 4 4 3 2 2 4 2 1 2 3 2 4
25 26 27 29 31 31 23 24 23 20 7 14 11 4 1 3 1 3 1 3 2 3 2 3 3 2 2 3 3 2 2 2 0 3 4 3 5 4 2 3 3 4 3 2 2 3 1
25 25 27 30 31 28 26 24 22 12 12 17 5 3 2 3 2 3 2 2 2 4 3 2 2 3 3 3 3 2 1 1 3 6 3 1 2 3 2 2 6 5 3 0 3 4 2
23 26 28 30 31 27 30 26 7 6 21 7 6 2 1 3 2 2 3 2 3 2 4 2 3 4 3 2 2 2 2 3 2 3 4 5 4 3 2 1 5 5 3 5 4 0 2
21 23 28 31 33 33 34 10 9 20 22 8 5 10 11 5 3 2 5 9 4 3 2 3 3 2 3 4 2 3 1 1 3 2 1 2 5 4 7 5 2 3 3 1 3 4 4

GFSGBSN_925_spd_090.txt.gz
Wind_Speed
21 22 22 23 23 23 23 24 23 25 25 27 26 28 27 21 21 20 15 12 10 8 8 8 5 3 3 3 8 6 9 7 4 3 5 6 9 9 12 9 11 19 21 18 21 21 20
22 21 22 23 23 23 23 25 26 26 26 26 27 27 27 25 24 15 17 13 8 8 6 6 2 3 3 7 3 5 6 4 7 8 8 7 6 7 9 10 12 9 13 21 20 18 19
21 22 22 24 24 24 24 24 25 27 26 25 25 27 27 27 29 18 21 12 8 6 5 7 6 6 5 10 3 5 8 8 10 11 11 10 9 8 3 9 11 17 16 15 19 19 11
22 23 23 23 24 24 25 26 25 26 26 27 26 28 27 31 34 21 20 10 8 6 5 6 5 4 6 5 5 11 10 9 10 10 11 10 10 12 14 3 7 11 11 10 5 12 15
21 25 24 24 25 23 24 25 25 26 26 26 28 31 30 35 34 16 16 9 6 4 5 6 5 5 5 2 3 6 6 9 9 11 11 10 6 8 4 3 6 6 4 11 6 15 14
23 25 23 24 24 24 23 24 25 24 25 26 28 31 32 33 32 15 11 6 2 4 6 5 4 3 4 3 4 3 2 6 7 6 8 9 6 5 4 5 5 5 6 6 11 11 18
23 24 25 25 24 24 24 24 24 25 25 25 28 30 31 33 25 13 10 8 5 3 10 9 8 3 4 4 4 5 4 5 6 5 5 7 6 8 9 9 13 11 9 10 8 9 12
25 25 27 25 26 26 26 25 26 26 25 24 25 28 30 28 28 4 5 3 4 2 5 16 6 7 4 4 4 6 6 6 5 5 4 5 9 7 3 10 9 13 13 6 3 10 3
27 27 26 27 25 27 27 29 28 27 26 23 23 27 28 30 24 7 6 7 4 1 4 4 6 6 4 9 4 5 8 3 5 6 7 6 9 5 6 6 10 16 12 8 5 8 3
26 27 27 27 27 27 26 28 28 28 27 25 24 24 24 27 11 4 5 10 8 4 2 6 6 6 5 4 4 5 10 3 5 4 4 7 3 6 8 3 3 8 8 8 7 8 3
24 26 27 27 30 29 26 28 27 30 27 25 24 23 21 19 17 6 6 3 9 2 3 8 5 6 6 5 3 7 4 5 6 3 3 1 1 6 7 2 3 3 12 10 8 3 1
23 25 26 28 29 30 28 28 28 30 28 27 24 24 21 17 11 13 4 10 4 3 5 6 5 7 6 6 3 4 5 3 3 3 2 5 5 3 3 0 6 7 9 6 3 3 3
23 23 26 28 29 29 29 27 29 31 29 27 26 22 22 21 5 2 10 4 3 4 2 6 5 7 7 6 5 6 4 3 2 3 3 2 3 4 2 3 4 8 4 2 1 3 4
21 23 27 27 28 29 29 28 32 31 30 28 26 28 29 22 13 13 13 3 6 3 3 4 5 9 5 6 3 4 4 0 4 2 0 1 2 7 6 3 3 3 4 4 2 3 4
21 20 27 27 27 28 29 30 31 32 31 30 36 28 23 26 20 22 5 4 2 1 4 7 8 7 4 4 2 4 2 1 2 2 2 2 4 5 4 3 2 2 1 5 3 5 4
13 24 25 26 26 27 29 31 31 31 30 31 22 18 10 12 27 23 2 1 2 1 4 9 2 2 6 6 4 2 1 2 2 2 3 2 4 7 3 3 2 1 2 1 2 2 4
17 20 24 24 25 28 30 31 30 29 30 28 11 4 11 26 27 4 2 3 2 2 4 2 2 4 3 4 1 2 3 3 4 3 1 1 3 5 4 6 8 3 1 2 2 3 2
23 19 23 24 25 27 29 30 29 28 29 16 4 2 13 18 4 1 3 4 4 4 3 3 1 3 4 3 3 2 3 3 5 4 4 4 4 3 3 2 4 4 6 5 3 3 3
19 21 23 24 25 28 28 28 27 27 24 12 6 3 12 7 3 2 3 4 3 1 3 2 1 0 1 3 4 2 3 3 5 3 3 2 3 2 1 1 2 3 4 4 2 2 4
17 22 22 23 27 27 26 25 25 23 19 14 3 2 3 3 3 5 3 2 2 5 5 2 2 2 3 4 5 4 4 4 3 4 6 2 4 3 2 4 3 2 5 7 5 3 6
18 20 22 24 26 26 24 24 24 22 17 7 3 3 2 2 3 5 3 1 3 3 5 2 2 2 4 3 4 4 3 3 3 4 2 1 4 4 6 5 2 3 5 8 7 5 5
18 20 22 24 23 24 24 24 22 18 16 5 2 2 2 2 5 5 1 0 2 4 2 3 1 5 2 4 2 5 5 1 1 3 3 2 4 4 3 4 5 3 5 5 5 3 5
17 19 22 23 24 25 26 23 18 13 10 2 1 3 2 2 2 2 3 3 2 3 3 4 1 5 9 4 4 7 5 6 4 1 2 3 3 1 2 4 2 4 4 2 3 1 1
17 20 21 22 24 25 24 21 15 12 6 5 4 2 2 2 0 1 2 7 2 4 2 5 4 2 2 10 13 12 13 10 10 9 4 3 3 3 2 5 3 2 2 3 3 4 4
17 19 19 22 24 25 25 18 18 13 8 11 3 3 1 2 1 1 1 3 2 5 5 3 5 2 6 2 5 4 2 2 6 8 7 2 3 3 1 0 2 2 2 2 2 2 1
16 19 21 22 24 26 23 22 17 13 8 7 8 7 2 1 2 2 2 1 3 2 1 3 4 2 3 2 2 1 2 2 3 3 5 5 4 2 1 1 3 3 2 2 2 3 2
17 18 20 23 25 26 25 24 13 4 5 10 6 3 1 2 1 2 0 3 2 2 2 3 2 2 3 2 2 1 2 1 3 5 4 3 2 3 3 2 3 3 3 2 2 3 4
16 19 21 24 26 26 25 14 3 9 13 7 4 1 1 2 2 1 2 0 2 0 1 4 2 1 2 1 1 1 1 2 2 2 3 4 5 3 4 3 4 5 5 4 3 2 3
15 19 21 24 27 27 18 6 10 16 15 4 4 8 7 3 3 2 3 5 3 1 2 1 2 1 2 2 1 2 2 2 2 2 2 4 3 1 5 1 2 4 1 1 1 1 3

GFSGBSN_925_spd_093.txt.gz
Wind_Speed
19 21 20 19 21 21 21 22 22 23 24 25 25 25 26 29 27 26 23 19 16 12 9 6 6 7 5 7 11 9 8 4 7 7 7 7 8 10 14 11 14 16 21 24 23 21 22
18 19 20 21 21 22 23 24 25 25 26 26 25 26 27 29 27 28 27 19 16 12 9 6 7 7 8 9 3 6 6 6 8 8 9 8 6 8 10 11 17 14 17 20 22 24 21
18 19 20 21 22 23 22 23 24 26 26 26 27 27 28 29 30 28 31 28 18 11 7 7 7 8 9 13 3 6 8 7 7 9 9 10 10 8 6 13 13 13 17 17 22 21 22
21 21 22 21 22 23 23 23 23 24 25 27 26 29 30 31 33 33 34 18 14 9 6 7 8 10 7 4 8 10 9 10 8 9 11 9 8 12 16 12 14 16 15 12 12 17 18
22 23 23 24 23 24 23 23 23 23 25 27 27 27 30 32 36 44 17 18 12 9 6 8 7 11 7 4 8 8 8 9 6 9 11 9 5 9 9 11 7 9 9 14 12 15 10
22 24 24 23 24 23 24 23 23 24 23 25 26 28 30 31 35 24 11 15 11 7 8 7 3 5 7 6 8 5 4 4 4 5 6 11 6 9 5 5 8 6 14 12 13 6 18
23 24 25 23 24 24 23 24 24 25 26 26 25 27 30 28 28 27 6 9 5 3 9 8 9 4 8 7 6 6 6 8 5 5 8 13 8 10 15 15 18 18 16 16 15 9 16
23 24 25 25 25 23 24 24 24 25 24 26 25 24 29 29 25 24 10 3 6 3 6 20 12 14 3 5 4 8 9 7 5 8 12 6 12 14 6 8 12 17 18 18 5 8 11
26 25 24 24 24 24 27 26 24 24 23 26 24 21 22 30 31 9 9 7 5 4 4 6 16 13 7 9 5 10 12 4 7 8 11 13 9 5 5 8 10 13 15 11 5 10 7
30 27 24 23 23 25 27 26 24 24 24 24 22 20 20 23 18 16 11 7 4 3 3 8 8 6 8 6 5 8 12 4 5 8 12 9 12 6 7 10 8 10 11 6 6 8 2
36 30 25 20 24 26 26 27 24 23 25 25 20 19 17 15 18 10 9 10 7 2 4 9 7 9 9 7 8 8 5 5 9 7 4 2 5 7 11 6 7 5 4 5 10 10 4
49 35 16 17 26 25 26 25 25 25 26 24 20 16 15 15 12 16 14 2 4 2 5 5 6 8 9 9 6 5 4 1 5 3 6 12 4 5 5 10 10 11 7 10 13 9 1
55 39 14 24 24 24 25 25 26 27 26 24 22 20 17 16 10 5 4 3 3 5 6 5 7 9 12 8 8 8 7 5 3 2 3 1 2 4 7 6 7 8 8 3 5 1 3
24 16 20 28 21 25 24 27 28 28 28 25 24 23 24 23 12 13 4 0 6 5 5 3 9 12 6 10 5 7 2 1 3 1 2 3 2 5 6 2 1 3 4 4 4 2 4
19 27 26 19 23 23 27 29 29 29 28 29 30 21 13 20 17 10 2 3 6 5 4 6 10 9 5 5 3 4 6 3 5 9 3 0 3 5 3 4 5 3 2 5 5 5 5
25 22 21 22 24 24 27 29 30 29 30 30 20 9 3 6 18 12 1 4 4 6 3 8 2 4 5 7 5 4 3 3 2 1 3 1 3 3 5 5 5 3 6 2 1 2 5
19 21 22 22 24 26 29 29 29 29 30 24 9 3 16 23 18 1 2 3 5 7 6 4 3 4 2 5 1 2 3 3 5 3 2 4 2 1 4 5 7 3 6 3 3 3 2
19 23 22 22 24 27 28 28 28 29 29 23 6 4 12 12 3 1 1 4 4 6 5 3 3 5 2 2 3 2 6 6 8 6 3 4 4 2 2 1 2 2 9 9 4 4 4
19 23 21 22 25 26 26 27 27 27 24 13 3 3 6 6 2 2 4 4 5 4 5 6 3 5 1 2 1 4 4 4 7 6 7 6 3 1 2 2 0 6 11 10 2 3 4
20 20 21 22 25 25 25 26 25 25 22 7 2 2 3 2 2 6 3 4 3 4 5 6 3 3 3 4 3 5 5 4 5 6 5 6 5 6 6 5 4 5 11 13 6 6 12
19 19 20 22 23 24 25 25 23 21 19 3 3 2 2 2 4 2 4 3 2 4 5 4 2 2 2 2 4 4 3 5 4 4 4 6 4 4 8 6 5 4 7 11 12 11 10
18 18 21 22 22 23 24 24 19 18 13 8 2 2 2 2 2 3 3 3 2 3 4 2 2 5 2 4 5 4 2 3 4 3 4 3 2 3 3 5 5 5 7 6 7 8 10
17 18 20 21 22 23 24 20 15 13 9 4 1 2 3 4 2 3 2 3 0 3 3 5 7 3 8 7 9 7 7 8 6 4 3 3 2 3 3 6 4 3 7 5 4 4 3
15 17 19 21 22 22 22 18 15 9 3 1 0 2 2 3 1 3 4 4 4 7 4 6 8 2 2 3 7 8 9 9 9 7 5 2 3 1 1 3 2 3 4 5 4 2 4
14 17 19 20 23 23 23 18 12 8 4 5 3 2 1 2 2 3 1 3 2 3 5 5 6 4 5 5 3 2 2 2 5 6 7 5 0 1 2 1 3 1 1 2 4 5 3
11 17 20 22 24 26 25 20 13 5 2 9 5 5 3 3 3 2 3 1 2 1 4 3 3 5 4 2 1 2 3 4 2 2 4 4 3 2 1 0 0 4 3 1 3 3 3
12 13 21 24 27 29 28 16 6 7 10 7 4 4 3 1 2 2 1 3 2 0 3 3 2 4 6 2 1 1 2 3 1 2 1 1 2 3 1 2 2 5 3 1 2 4 4
11 12 18 24 26 27 17 7 10 10 12 5 4 2 3 2 3 2 3 2 3 2 0 4 4 3 0 2 2 1 2 1 2 2 1 3 2 2 1 2 2 4 2 2 3 2 3
9 11 14 19 20 18 11 11 15 15 7 4 3 4 4 2 3 1 1 3 3 5 3 2 3 2 2 1 1 1 2 2 3 2 2 3 2 3 3 2 2 4 4 3 2 2 1

GFSGBSN_925_spd_096.txt.gz
Wind_Speed
20 19 20 21 21 22 22 20 21 22 23 24 25 25 26 27 28 28 29 26 25 14 15 13 9 10 5 6 7 18 14 9 9 10 8 7 9 8 11 9 9 12 13 16 17 18 19
22 22 22 21 21 21 21 21 21 21 22 23 25 26 26 28 28 28 32 26 31 26 13 12 12 11 5 6 5 14 10 9 10 10 9 9 7 6 6 7 7 8 15 18 17 19 19
22 22 22 21 21 22 22 22 21 21 23 23 24 25 27 28 30 31 31 39 32 19 17 14 13 12 8 10 4 8 9 9 8 9 8 9 7 6 5 8 5 6 9 17 18 19 21
24 24 24 24 22 24 22 22 21 21 22 22 25 26 27 29 30 33 37 35 18 17 15 12 12 9 5 4 14 10 9 8 7 7 8 9 4 9 10 8 10 13 9 12 10 19 22
26 25 25 25 24 23 23 22 21 21 22 23 25 27 27 27 29 32 36 20 12 17 14 12 8 6 3 7 8 10 11 12 7 5 7 8 5 7 5 4 5 6 8 14 16 18 7
28 27 26 25 26 25 23 22 23 23 23 22 22 26 26 25 26 28 30 22 13 13 11 9 3 5 6 7 11 9 7 6 5 6 2 6 5 6 5 5 7 8 5 10 12 4 10
32 31 30 29 25 24 22 23 25 24 22 22 23 25 27 24 24 24 26 14 3 1 4 6 10 2 9 9 11 8 9 10 7 7 7 12 5 10 11 14 16 15 18 18 17 12 9
38 37 36 32 25 21 20 23 24 23 20 21 22 23 25 24 23 25 12 2 2 8 4 13 10 13 11 6 5 9 11 7 7 8 10 3 10 13 15 11 11 15 19 19 16 15 10
45 46 39 43 11 12 21 23 23 22 21 20 22 23 21 24 24 9 10 9 8 9 3 4 13 12 10 6 4 15 12 6 7 11 8 9 6 3 8 10 12 13 15 17 7 8 8
53 51 46 18 22 20 21 22 21 21 19 21 21 20 18 21 13 22 6 21 10 6 1 7 8 6 9 5 5 12 14 4 5 5 7 9 15 17 7 9 8 12 8 13 15 6 5
43 32 29 30 31 21 18 22 21 22 22 20 18 17 16 12 13 6 14 20 0 4 4 7 9 9 8 7 11 6 8 4 7 5 4 2 7 6 9 13 7 8 13 6 9 7 3
37 26 31 29 20 17 21 21 22 22 21 20 18 16 12 12 9 7 9 10 1 3 2 4 5 6 11 9 7 6 3 1 3 4 6 12 1 2 4 12 12 14 12 9 7 4 3
37 31 26 22 21 23 22 24 24 24 23 21 18 15 12 7 3 8 15 2 2 2 1 6 6 9 11 8 8 7 6 4 3 3 3 2 4 5 4 6 6 6 6 1 3 3 3
30 26 24 24 24 25 26 27 27 26 25 24 23 22 10 11 8 4 4 1 1 5 5 7 8 10 3 10 4 7 2 1 4 3 3 2 1 2 1 2 4 2 4 2 4 3 1
25 26 25 24 25 27 29 28 28 28 29 28 22 8 5 1 9 5 2 1 4 3 5 7 10 5 3 5 1 3 0 3 6 8 2 2 3 4 8 5 2 3 2 4 4 5 2
23 26 24 25 27 29 29 29 30 32 34 24 11 7 8 10 15 7 2 4 4 9 4 2 2 2 5 5 2 3 5 4 2 7 9 3 2 4 4 4 6 4 7 3 2 5 3
22 24 23 24 26 27 30 31 31 33 34 15 8 5 10 17 11 1 2 4 5 11 10 8 7 4 7 6 4 4 5 4 8 4 5 5 3 4 4 4 5 3 4 3 2 2 0
22 22 21 22 27 29 30 32 31 31 28 17 4 5 5 9 0 1 3 4 4 8 7 4 4 9 7 3 4 4 5 7 7 6 3 3 1 0 4 4 2 4 5 5 3 7 4
21 20 21 24 25 29 30 30 29 28 21 7 3 2 4 4 2 2 2 5 3 7 6 6 7 6 3 4 2 4 5 3 7 4 5 6 4 1 2 1 3 4 10 7 1 2 4
20 18 20 24 24 27 30 30 27 26 16 9 2 2 1 2 2 3 4 5 3 4 5 5 2 1 1 5 4 3 3 3 4 4 6 2 5 5 3 2 3 4 9 10 4 5 8
19 19 19 21 23 25 27 28 25 25 17 8 3 2 2 2 5 6 6 3 4 7 4 6 0 6 5 2 5 3 3 4 4 2 1 4 3 4 5 3 3 4 6 10 11 7 6
18 18 19 19 22 25 26 27 23 22 15 7 2 1 2 3 5 3 3 3 4 4 6 5 6 6 12 9 6 4 5 6 5 5 3 4 1 1 3 6 5 7 9 8 8 8 9
16 16 19 19 19 23 26 26 21 18 10 6 4 2 2 3 3 4 3 1 2 3 4 5 8 5 8 6 7 5 5 5 4 6 5 4 1 3 2 4 4 3 6 7 4 8 2
15 15 18 21 21 20 21 24 19 13 7 4 3 3 2 2 2 3 3 3 6 6 4 8 9 5 5 9 9 3 6 7 8 8 6 3 3 2 2 2 3 3 2 3 4 6 7
15 15 16 20 21 22 21 20 16 10 6 1 1 2 2 2 2 2 3 3 4 4 4 5 5 4 6 5 2 2 3 3 5 6 7 6 3 2 2 1 4 4 1 1 1 3 5
14 13 17 21 23 23 22 17 11 5 2 3 1 2 3 2 3 5 3 3 2 1 2 3 1 7 5 2 2 3 4 3 3 2 1 4 3 2 3 1 2 2 3 1 3 1 3
13 12 14 20 23 23 18 12 1 3 7 3 0 1 3 2 3 3 3 4 1 3 1 2 3 5 3 3 2 2 1 1 2 4 4 2 2 2 1 2 1 3 2 2 1 3 3
10 10 14 17 19 21 15 12 9 10 9 6 2 3 2 3 2 2 3 4 4 4 1 2 0 2 2 2 2 1 2 1 2 2 1 2 0 3 0 1 4 2 2 1 3 2 5
7 7 11 13 14 16 9 11 14 10 8 5 3 5 3 2 1 1 1 2 0 2 3 4 1 2 3 1 1 1 2 1 1 2 1 2 2 1 1 2 1 1 3 2 2 3 3

GFSGBSN_925_spd_102.txt.gz
Wind_Speed
31 32 31 30 31 30 28 25 23 19 15 13 12 15 17 15 18 17 19 20 20 19 18 17 20 24 14 4 5 10 17 17 16 17 10 3 4 3 3 3 2 6 6 8 10 12 12
38 38 39 43 41 38 34 30 25 20 16 11 9 10 14 16 17 18 18 20 20 21 22 15 21 22 6 3 5 19 20 17 15 12 7 4 4 5 3 3 2 3 5 7 7 12 10
40 42 44 43 45 41 42 33 28 23 15 10 7 8 12 15 15 17 19 20 23 27 21 15 25 18 8 6 6 20 20 15 15 11 4 1 4 3 2 4 2 5 6 10 12 15 9
42 37 38 41 39 41 42 42 22 9 11 8 8 6 11 15 16 17 19 21 23 19 10 22 26 14 4 9 12 20 14 12 10 7 5 3 4 3 2 1 5 5 3 5 5 2 6
33 39 36 33 38 39 35 41 19 9 10 12 9 11 13 14 14 16 21 22 19 4 17 31 19 6 5 7 13 17 18 14 11 7 3 3 3 2 1 1 4 4 5 6 7 6 5
35 31 34 31 35 34 32 27 23 20 20 17 15 12 13 15 15 17 19 12 9 16 21 18 9 8 5 7 17 16 13 16 5 7 3 2 3 1 2 3 4 4 4 5 7 5 8
33 32 32 32 28 30 28 25 22 19 17 16 14 13 13 12 15 15 11 4 4 4 2 3 8 3 10 15 17 11 15 7 6 3 5 2 2 10 13 10 11 7 11 15 18 18 14
32 32 29 29 29 29 27 26 24 21 19 18 16 14 11 11 10 9 9 6 5 3 3 3 7 6 20 17 7 4 15 4 4 5 5 2 9 13 8 7 14 15 18 19 17 13 7
30 30 30 29 29 28 28 26 24 22 20 18 15 12 11 11 6 5 14 4 6 6 2 2 1 9 6 8 6 9 9 6 7 6 10 6 5 2 11 11 13 15 15 16 15 16 12
29 29 27 28 29 30 30 27 24 22 19 15 13 11 10 12 4 5 2 7 7 8 3 3 2 3 2 3 4 11 15 3 4 8 9 7 10 9 8 11 12 14 11 17 15 10 6
27 26 25 27 30 31 32 30 27 23 17 15 12 10 8 7 3 3 5 9 4 2 4 3 3 8 4 1 9 4 6 2 3 5 4 6 3 6 3 7 11 9 8 8 13 13 7
25 23 23 26 30 32 34 34 31 25 18 11 10 7 5 3 2 2 8 1 4 2 5 3 3 5 4 2 2 4 3 1 1 2 3 9 3 3 4 3 6 10 11 14 11 7 6
24 22 24 26 29 32 35 35 32 24 22 12 5 3 4 3 3 9 9 1 2 5 3 1 4 5 6 3 5 6 5 4 3 3 3 2 2 3 2 5 3 6 4 4 2 2 3
24 23 24 26 28 31 35 37 32 25 22 19 11 5 7 8 9 11 5 3 6 8 6 4 4 5 2 4 3 5 3 2 4 3 2 2 2 5 6 5 3 4 2 2 4 3 3
23 22 23 25 26 29 32 34 33 23 19 22 12 12 11 12 10 11 3 6 5 3 3 5 4 3 0 2 2 1 2 2 3 7 3 2 3 3 9 6 3 1 3 3 3 3 1
22 20 21 24 25 26 30 30 29 24 17 16 12 7 8 13 19 8 3 8 5 7 5 3 1 4 3 2 1 1 1 4 3 10 3 2 3 5 4 5 9 5 2 3 2 4 2
21 20 21 22 23 25 27 28 27 22 21 17 6 3 11 24 10 5 5 4 4 5 3 1 3 3 3 4 3 3 1 2 2 4 10 5 2 5 1 3 2 1 2 3 3 3 2
19 19 18 20 22 22 25 26 24 23 23 13 4 4 19 24 4 2 3 2 5 5 3 4 2 2 3 5 3 1 1 3 4 1 6 6 2 3 5 4 3 3 4 4 2 4 3
19 18 18 19 20 23 23 24 22 19 17 4 2 2 7 7 5 4 4 2 3 8 5 7 6 4 3 2 4 2 1 5 5 2 1 2 3 3 6 4 4 2 7 5 1 3 3
19 17 17 18 20 23 23 24 22 16 11 3 3 3 4 4 1 2 4 5 6 5 3 4 4 5 5 7 6 2 3 3 4 2 1 1 3 1 3 5 4 7 14 9 3 3 2
19 17 16 17 18 18 19 18 20 17 10 4 3 2 1 3 5 5 3 4 5 7 4 8 8 10 3 5 5 6 4 6 4 8 2 3 3 3 3 5 2 4 8 14 7 1 4
17 18 16 15 17 19 20 19 17 14 5 7 3 2 3 2 4 5 5 4 5 5 5 5 4 5 8 5 1 4 5 5 3 6 4 3 0 2 6 6 7 5 11 11 8 8 6
17 18 16 17 17 17 18 17 14 12 4 4 4 3 2 3 4 3 2 4 6 6 2 3 3 2 6 4 4 6 5 1 1 3 5 3 2 2 3 5 5 5 6 5 3 5 3
17 18 16 17 18 19 19 15 8 6 7 6 2 4 3 3 2 0 3 3 4 7 3 4 4 1 2 6 3 2 1 5 6 6 2 2 2 2 2 4 4 5 2 1 5 2 4
15 17 15 17 19 21 18 9 1 3 5 9 4 1 1 1 1 3 4 4 6 4 4 3 3 3 5 4 3 3 4 5 3 3 5 3 3 2 2 1 3 2 2 2 1 2 0
14 16 13 15 18 19 15 12 9 5 7 4 6 3 2 3 2 2 2 3 2 3 6 3 4 5 4 3 3 2 1 2 5 9 5 3 5 3 1 2 3 3 3 2 2 4 3
14 15 11 10 14 12 10 11 12 10 3 3 2 4 2 2 2 2 2 2 2 2 1 4 6 6 3 3 2 1 3 2 2 3 3 4 3 1 0 2 6 4 3 1 3 4 2
13 12 10 6 8 9 8 12 10 6 3 1 1 0 5 1 3 5 4 2 2 1 1 4 2 3 3 3 1 2 2 3 1 4 2 3 2 3 1 1 6 5 2 5 4 1 4
14 11 9 5 3 5 1 4 6 7 5 4 2 2 1 5 4 4 7 7 6 4 3 2 2 1 1 2 0 1 2 1 2 3 2 3 5 3 7 5 4 5 3 2 4 4 3

GFSGBSN_925_spd_108.txt.gz
Wind_Speed
30 29 29 29 28 31 34 39 39 46 54 15 17 8 6 7 6 5 6 7 10 10 10 12 12 10 18 5 2 14 6 14 17 14 7 4 5 3 4 2 1 1 3 4 5 9 6
30 27 27 28 28 31 33 36 38 39 49 43 30 20 14 12 9 8 8 9 11 12 10 11 16 11 7 4 5 11 12 12 15 11 6 4 3 4 5 2 1 1 3 8 6 10 5
28 26 26 26 28 31 33 33 35 36 32 32 25 20 15 12 9 9 10 12 14 14 13 9 5 14 4 6 10 8 6 11 9 13 5 5 7 5 2 2 1 3 6 7 5 2 5
26 26 26 26 29 29 31 32 30 30 30 24 19 18 15 14 14 14 13 15 17 14 7 4 11 9 5 5 12 17 10 12 13 14 14 9 9 5 3 2 4 4 2 5 3 1 3
27 27 26 26 28 29 28 28 28 26 25 24 21 20 18 16 17 17 15 11 15 13 11 17 9 4 6 8 5 14 13 9 15 12 12 9 5 2 3 3 4 4 2 3 8 2 2
27 26 27 27 28 28 28 27 26 23 22 21 21 19 19 17 16 15 13 10 20 22 20 15 10 6 1 4 7 8 8 14 6 6 5 5 4 3 3 3 2 2 2 5 7 5 3
27 26 27 28 28 28 27 24 25 23 19 19 19 19 18 19 16 15 8 7 5 5 9 8 5 7 6 11 10 2 12 9 4 5 3 1 4 4 7 5 4 1 3 10 13 14 9
25 26 28 29 30 29 26 23 22 21 18 16 17 17 17 11 21 18 16 5 3 1 7 13 9 9 12 8 5 2 10 3 2 3 2 4 4 8 6 5 5 6 8 12 13 12 6
24 25 27 29 30 29 27 24 20 19 16 12 15 16 14 6 11 23 23 10 4 6 4 7 6 6 4 5 4 6 4 2 2 3 5 4 3 5 6 2 4 6 8 11 12 11 13
23 24 26 27 29 29 26 25 21 20 16 13 14 16 14 2 6 9 7 11 4 2 4 6 5 4 1 2 4 2 3 2 1 5 4 4 5 4 5 5 7 11 9 15 16 9 4
24 23 26 27 29 29 25 23 25 22 18 14 12 13 15 14 4 5 7 3 3 1 5 4 2 4 5 4 5 1 2 3 3 2 3 6 2 3 6 6 11 8 6 9 12 13 12
24 24 25 27 29 29 27 24 21 23 18 15 13 11 8 8 10 9 5 2 2 5 4 2 2 5 2 4 3 2 2 1 3 4 2 6 0 3 5 4 7 7 9 13 11 6 4
23 23 23 25 26 28 28 25 23 19 18 14 15 13 11 8 2 9 4 2 5 5 1 3 5 2 1 2 3 4 4 2 1 2 2 3 5 3 3 5 3 8 6 4 4 3 4
22 21 23 24 25 26 27 26 26 22 19 12 9 12 8 9 4 4 4 4 8 4 4 0 4 5 3 2 2 1 2 3 5 3 2 2 5 7 5 7 2 5 3 2 4 3 4
22 21 21 23 25 26 26 27 26 27 26 15 9 2 3 11 4 3 3 5 3 2 3 5 3 1 1 1 2 4 4 3 3 9 4 2 5 2 6 4 3 2 3 2 4 3 3
20 21 20 21 24 26 27 27 28 29 29 18 8 5 6 19 6 7 4 7 3 3 2 2 2 1 2 2 2 1 2 4 3 7 6 2 5 5 1 3 6 4 3 1 1 3 3
18 21 20 20 21 24 27 28 30 30 30 15 3 3 11 12 5 6 4 4 4 4 1 3 1 2 1 3 3 2 2 3 4 5 8 3 2 5 1 4 1 3 2 2 2 2 2
20 20 22 20 21 22 25 27 28 30 31 11 3 3 16 4 4 2 2 4 4 3 1 2 2 1 4 4 2 2 3 4 5 6 5 6 2 4 5 2 3 2 1 4 2 2 1
19 20 23 21 21 22 24 26 25 24 24 8 2 1 11 6 4 3 4 3 1 6 4 5 3 3 3 2 1 1 2 3 3 6 3 3 0 4 4 2 2 3 5 4 4 2 2
18 19 22 23 20 21 23 25 24 22 18 7 3 3 4 4 2 4 4 5 5 5 1 2 4 1 3 4 4 1 5 2 4 2 1 2 2 2 3 5 3 5 9 6 3 2 1
20 20 20 23 22 23 25 24 20 18 14 5 3 1 2 1 4 3 2 3 5 7 5 7 4 5 3 4 5 5 3 5 3 7 2 1 1 3 5 5 3 3 4 7 3 2 2
17 20 20 22 22 22 25 23 16 14 11 4 3 3 3 2 1 3 4 4 5 6 5 5 4 6 6 4 1 4 4 4 2 6 5 4 2 1 3 0 3 3 4 2 4 4 4
15 18 20 21 21 23 23 20 13 14 9 3 2 2 4 2 2 4 1 1 3 5 1 3 2 3 4 3 5 8 6 4 4 3 3 3 3 4 4 4 5 2 2 1 0 1 5
15 15 18 19 18 19 18 14 12 14 13 4 3 2 3 0 1 5 6 2 1 2 2 4 1 1 2 6 3 1 3 5 5 5 2 2 2 1 3 5 3 4 2 3 3 5 6
15 14 15 17 15 15 13 10 9 10 14 9 4 1 2 1 1 1 6 5 2 4 3 3 2 3 5 4 3 4 4 3 0 0 2 1 3 2 1 2 6 1 3 4 3 5 7
15 15 13 14 12 12 10 9 8 7 10 7 10 6 1 4 4 1 1 2 4 2 3 4 3 4 3 3 3 2 2 1 4 8 2 3 4 3 1 1 4 2 2 1 2 5 5
15 15 13 12 9 8 6 7 8 7 7 8 5 7 3 1 3 5 4 4 2 1 2 4 4 3 2 2 2 1 3 1 2 2 2 3 2 3 2 3 7 3 2 2 2 5 2
14 16 14 12 8 5 2 4 6 6 6 5 3 6 3 1 4 5 4 4 2 2 1 3 4 2 2 3 2 3 3 2 3 4 3 3 3 4 2 2 6 5 2 5 4 3 3
14 17 15 12 10 7 5 4 5 7 6 4 1 3 3 3 4 5 10 8 5 6 3 1 2 3 3 3 1 1 2 1 4 3 1 3 5 3 7 5 5 6 7 4 5 5 4

GFSGBSN_925_spd_111.txt.gz
Wind_Speed
26 26 26 26 28 28 29 30 32 34 36 39 40 32 23 15 9 8 4 2 2 3 3 3 0 8 13 5 4 14 9 15 18 15 9 5 4 3 5 4 3 2 0 2 5 9 8
27 26 26 27 28 28 28 27 28 28 28 29 26 23 19 14 11 7 5 4 4 6 5 3 3 8 6 5 4 13 11 13 15 14 8 5 4 4 5 3 2 2 2 6 8 9 5
25 26 28 28 29 29 28 25 24 24 24 24 22 21 16 13 11 10 10 9 8 7 6 3 5 19 5 7 9 11 17 12 14 17 5 7 8 5 3 3 0 1 4 6 2 2 3
25 25 28 30 30 30 29 25 20 20 20 20 20 19 18 16 13 12 11 8 10 4 6 7 19 18 4 12 14 16 18 17 18 18 16 11 13 6 3 3 4 3 2 4 1 2 3
24 26 28 29 31 32 29 25 20 15 15 17 17 17 16 16 14 13 10 16 17 19 18 19 15 12 3 9 12 14 13 12 18 16 13 9 5 3 3 3 2 5 1 2 7 1 2
24 25 28 30 32 32 30 26 21 13 12 15 16 17 17 18 16 12 14 23 25 22 15 17 20 11 3 4 7 11 9 9 6 6 5 5 4 3 2 2 1 0 2 3 6 3 1
23 25 28 30 32 32 32 27 22 17 12 15 17 16 16 22 19 11 11 6 5 6 15 7 5 14 5 10 10 9 6 9 3 6 3 3 3 2 4 4 3 4 1 6 9 12 9
23 23 26 29 31 30 32 31 25 19 13 15 17 16 14 19 26 13 13 5 2 1 10 16 13 11 12 3 6 4 3 3 2 3 3 3 1 3 3 3 2 2 6 7 10 4 2
23 23 24 27 30 29 27 31 30 20 14 16 18 15 13 15 19 27 22 10 4 4 5 7 7 5 4 10 5 3 1 2 3 3 2 2 1 5 4 3 3 4 5 4 7 8 13
23 23 23 24 27 28 27 25 27 24 18 17 18 19 9 6 9 9 7 12 5 6 5 10 8 5 3 1 3 1 0 2 1 1 4 3 3 3 2 2 6 5 9 9 9 6 4
23 22 23 23 23 26 27 26 25 25 21 17 16 14 17 16 6 5 7 5 6 3 6 7 4 6 7 3 5 1 3 4 3 4 3 4 1 3 6 6 9 5 1 6 9 11 8
23 22 23 23 22 23 24 24 23 22 23 19 14 13 9 8 16 9 6 4 5 6 3 2 4 2 2 2 2 2 2 3 1 3 3 6 3 4 5 2 7 3 6 8 9 4 4
23 23 22 23 23 23 23 22 23 21 19 17 10 11 13 7 3 4 1 3 5 6 1 3 3 2 3 3 2 2 2 1 1 3 5 5 2 2 3 3 2 5 4 3 3 3 5
23 24 23 23 24 24 24 24 22 23 21 18 10 7 8 6 2 1 1 5 9 4 4 1 1 1 2 4 2 1 1 2 4 3 2 4 6 5 4 4 1 3 3 2 4 2 5
23 22 23 23 24 25 25 24 24 24 23 20 7 5 4 11 2 4 4 6 3 1 0 4 1 2 0 2 1 1 1 1 1 6 2 2 4 2 4 3 2 1 3 3 4 3 3
23 22 24 24 24 25 26 26 25 26 27 13 1 1 4 6 5 2 5 7 3 2 2 1 1 0 2 1 1 1 2 2 1 5 4 2 4 2 0 2 4 6 5 1 1 3 3
23 23 23 24 25 25 26 27 27 26 27 13 2 3 8 4 3 6 5 3 2 2 1 1 1 1 3 3 2 2 1 3 3 4 8 3 2 4 1 5 4 1 2 2 1 2 2
22 23 24 26 25 25 26 27 26 26 25 10 3 3 9 4 5 2 2 4 4 3 1 2 1 1 3 4 1 1 3 5 7 6 6 5 2 4 5 2 1 3 2 4 2 1 1
19 22 24 26 26 25 25 25 22 22 21 5 3 2 4 2 4 1 3 3 2 6 4 4 2 2 2 0 1 4 2 1 6 6 4 5 2 4 3 2 1 2 3 4 2 0 2
18 21 23 25 27 26 28 24 17 16 14 4 3 2 4 4 2 5 4 2 4 4 1 3 4 3 3 4 1 3 4 2 2 2 5 4 2 4 4 4 0 5 4 2 4 2 3
16 19 22 24 26 26 27 23 17 14 10 4 3 1 3 0 4 3 2 3 3 6 4 6 3 4 2 4 5 5 3 5 1 5 1 2 3 2 5 7 2 4 3 2 5 4 3
15 17 20 22 24 23 22 20 18 17 7 7 3 3 2 2 2 1 3 1 3 1 1 4 3 4 4 3 3 4 2 0 0 5 3 4 3 2 5 3 5 5 5 6 2 3 3
14 15 17 20 21 20 19 17 18 19 7 5 2 3 4 3 1 3 3 5 6 5 4 3 3 1 2 3 6 8 7 4 3 2 3 2 2 3 4 4 6 5 8 6 3 4 6
13 13 15 18 19 18 16 15 15 19 16 6 3 2 3 1 1 1 2 3 5 4 4 3 5 2 2 5 2 1 3 6 6 6 5 2 1 2 4 4 2 3 1 0 3 6 7
11 13 13 16 16 15 13 13 12 13 13 12 5 2 2 1 1 2 1 2 4 3 3 3 5 5 1 3 4 4 3 2 2 3 5 4 3 0 1 2 7 1 2 3 3 5 6
12 12 13 13 14 11 9 9 11 10 10 5 9 5 3 3 4 2 2 2 1 2 4 4 3 6 2 2 3 1 3 2 4 7 5 5 3 3 1 1 5 4 2 3 3 4 4
12 11 13 12 13 10 6 6 7 10 10 5 5 4 3 1 3 3 3 3 4 2 2 4 5 3 3 1 2 4 4 4 3 3 2 3 2 2 2 3 7 4 2 1 3 4 1
14 11 12 12 12 11 8 4 5 6 9 7 1 4 3 2 4 7 6 4 1 1 2 3 2 1 2 1 1 2 3 3 2 4 4 4 3 3 1 2 6 4 2 4 5 2 2
14 12 12 13 14 12 10 8 5 5 6 7 4 4 3 4 4 7 11 11 6 5 4 0 1 1 2 3 1 1 3 1 3 3 0 3 6 4 8 6 5 6 5 3 3 4 4

GFSGBSN_925_spd_114.txt.gz
Wind_Speed
22 24 26 28 29 29 28 25 24 24 25 23 23 24 19 14 10 8 6 4 3 3 3 3 3 16 17 7 5 5 6 17 18 12 11 8 8 5 7 5 5 4 3 3 6 7 11
23 23 26 28 30 30 29 26 21 21 21 19 18 17 15 13 10 8 5 3 1 1 2 3 6 11 7 11 5 9 19 19 14 12 8 5 5 7 9 4 2 2 3 7 8 10 8
23 24 26 29 31 31 29 26 22 19 19 17 16 15 13 11 11 9 6 5 5 3 5 6 11 8 14 8 14 17 20 18 10 14 7 7 10 3 7 7 3 1 4 6 6 2 3
23 25 26 30 31 32 30 27 25 18 19 17 16 15 14 12 10 10 7 5 4 8 8 10 20 11 6 13 15 19 19 18 15 15 16 10 11 9 3 7 3 2 3 3 4 2 1
24 25 26 30 30 31 31 27 25 18 18 19 18 16 16 12 10 12 15 22 23 18 19 16 12 11 5 14 10 16 10 11 16 14 11 8 4 4 4 3 3 2 2 4 3 2 1
24 24 26 29 30 29 32 30 25 22 19 19 18 12 18 14 11 17 21 29 28 27 27 24 16 7 6 5 5 4 7 5 6 10 7 3 3 2 2 1 1 2 1 4 7 1 7
24 24 26 28 30 30 29 31 27 22 21 20 17 13 17 18 13 10 9 5 2 7 17 11 13 17 12 12 8 6 4 9 5 2 3 3 2 3 4 4 4 3 2 8 10 6 9
24 24 25 26 28 29 28 28 26 22 21 20 18 12 15 17 9 5 10 5 3 3 11 20 16 10 7 4 6 4 3 1 2 6 4 3 5 3 5 5 3 2 5 7 9 1 9
24 25 25 25 25 26 27 26 26 23 20 19 18 17 8 12 9 18 19 9 4 2 6 8 10 6 4 4 5 4 5 2 4 4 2 3 6 7 4 4 3 4 7 5 6 11 10
24 23 24 24 25 23 25 25 25 25 24 21 18 18 13 4 5 8 4 5 4 3 5 11 8 5 5 1 5 4 4 2 1 3 2 2 3 5 3 4 5 5 4 7 7 9 4
23 22 22 24 23 23 22 23 23 23 21 19 18 17 13 9 5 3 2 3 8 1 5 8 5 5 7 4 4 1 4 4 3 2 3 3 5 5 3 4 9 3 3 8 11 9 8
25 23 21 22 23 23 22 23 21 22 22 17 14 19 12 7 8 3 3 7 2 1 6 3 5 4 3 3 2 1 2 1 2 2 1 3 0 4 5 4 11 7 10 11 5 3 4
25 23 23 22 22 22 22 22 22 22 20 20 13 12 15 7 2 7 8 4 1 6 1 2 2 2 3 4 2 1 1 2 3 1 5 5 3 2 5 4 1 5 5 2 3 3 2
26 23 23 22 22 22 22 22 22 22 22 18 7 10 10 7 4 4 4 2 10 4 5 1 1 3 4 4 2 1 0 2 1 2 1 3 2 5 7 4 1 3 2 2 4 3 7
24 25 23 25 23 23 22 24 23 23 25 10 1 6 7 9 3 3 2 6 3 1 1 2 3 1 2 2 2 1 1 1 1 6 0 2 1 3 7 2 2 2 3 1 4 4 3
21 25 23 25 24 24 23 24 24 23 23 7 1 3 7 6 3 3 5 6 2 1 2 2 1 1 1 1 1 0 1 3 2 5 3 1 3 2 2 4 4 4 2 3 2 3 3
19 22 25 23 27 26 26 26 23 22 20 4 2 2 11 4 4 5 4 4 2 2 2 2 2 1 1 2 2 2 1 4 5 6 5 2 2 0 2 6 5 2 2 2 2 3 3
18 19 24 25 29 26 28 25 22 20 19 4 1 2 10 3 2 2 3 1 1 1 0 2 2 3 1 1 2 1 2 2 4 5 2 3 3 5 3 4 7 1 0 2 3 4 3
17 19 22 25 28 28 27 24 20 19 18 3 2 0 3 3 2 2 3 4 2 2 3 2 1 3 3 2 2 2 1 2 6 5 2 4 2 4 2 4 4 5 5 4 3 3 6
14 17 19 23 26 25 25 22 21 20 14 3 2 1 2 3 2 1 3 2 4 3 3 1 3 1 1 2 1 3 4 1 2 2 4 3 3 6 4 5 2 4 5 7 9 4 3
12 15 17 21 22 23 23 22 22 20 10 3 4 2 1 2 4 3 3 0 2 4 2 1 3 4 1 1 1 2 3 4 2 4 1 2 4 3 12 14 9 9 10 7 13 11 6
9 12 15 17 20 21 20 20 22 21 9 5 1 2 2 3 1 4 3 1 2 1 3 2 4 5 5 3 3 3 1 2 1 2 2 1 3 4 6 3 8 11 12 12 10 12 13
9 10 13 15 17 18 17 17 19 21 10 4 2 1 2 1 3 1 1 2 3 4 2 4 2 2 4 5 6 8 8 6 3 2 1 2 4 4 4 5 9 11 15 15 7 7 6
11 10 12 13 15 14 14 14 15 16 16 6 2 1 1 3 4 3 2 1 1 4 6 4 3 4 6 7 3 2 5 8 9 10 8 3 2 2 4 6 3 3 3 1 8 7 11
12 11 9 12 13 12 10 11 12 12 11 10 3 2 0 1 2 4 7 4 2 3 3 3 3 2 8 5 4 4 3 3 6 7 12 9 3 3 3 3 12 1 2 2 3 3 4
11 10 9 9 12 12 8 7 9 10 10 5 7 3 2 2 3 0 3 4 3 3 3 4 3 3 1 1 2 3 3 4 2 2 2 3 7 5 3 4 5 3 4 4 2 5 3
12 10 9 7 8 11 9 6 6 7 8 5 4 3 2 2 2 4 4 3 3 1 3 2 1 2 1 2 3 3 3 1 4 3 4 4 5 10 9 6 8 4 5 4 4 2 1
13 12 11 9 8 8 9 8 6 4 5 5 2 3 1 1 4 6 6 4 3 2 2 2 2 2 2 3 2 2 3 1 3 3 3 4 3 5 3 5 6 5 5 4 4 1 2
15 13 13 12 11 10 9 9 8 6 4 3 0 3 5 4 3 6 13 14 7 5 3 3 1 1 2 2 3 1 3 3 3 4 3 4 4 3 5 3 3 5 4 2 3 7 8

GFSGBSN_925_spd_117.txt.gz
Wind_Speed
24 25 27 31 31 31 29 27 23 22 23 23 24 22 21 18 15 13 10 7 5 4 4 6 6 13 13 8 4 3 5 9 11 10 10 6 9 5 7 7 6 5 3 3 5 6 9
24 25 28 30 31 31 29 26 24 21 22 23 21 20 18 17 13 10 7 5 3 2 1 2 9 14 6 6 4 7 12 18 12 10 7 4 2 1 7 5 4 2 3 5 4 7 7
24 25 28 30 29 30 29 27 24 22 24 23 20 19 16 15 14 11 7 3 1 1 3 3 11 12 14 7 8 11 20 15 11 11 8 7 6 1 6 6 3 2 4 5 7 3 3
24 25 26 29 28 29 30 27 25 23 24 23 19 20 20 18 14 13 7 6 6 4 3 6 9 16 7 13 13 21 19 17 14 12 14 10 9 8 3 7 3 2 2 3 6 4 3
25 25 25 28 29 27 28 28 24 24 24 21 18 19 22 16 20 20 29 21 23 17 17 16 15 9 4 8 8 13 16 16 15 12 12 8 5 4 4 3 3 3 2 5 3 3 1
25 24 26 26 27 27 26 26 24 23 23 22 19 17 19 13 16 17 22 29 26 23 24 21 15 9 6 5 6 7 10 5 9 10 7 3 2 3 3 4 1 5 2 4 6 5 5
24 25 25 26 25 26 25 25 24 22 21 20 18 16 18 13 9 7 6 6 3 7 26 13 15 14 8 10 9 8 6 8 6 3 2 2 5 4 4 1 2 1 4 6 6 4 7
24 24 24 25 25 23 24 24 24 23 21 20 19 13 15 12 7 8 8 5 5 2 11 18 15 10 6 7 4 4 2 2 3 5 3 4 4 4 3 2 0 1 4 5 2 1 8
23 22 23 24 24 24 24 23 23 22 21 21 17 15 10 9 7 17 17 7 3 6 5 11 11 7 4 3 5 7 7 2 6 5 2 1 7 6 3 3 2 4 5 6 5 13 10
24 23 21 22 23 24 24 24 22 21 20 18 20 15 5 6 6 3 5 5 6 6 4 10 8 7 6 3 4 5 7 5 2 4 2 4 4 4 3 2 3 5 4 4 7 10 4
25 23 21 21 22 22 23 25 24 21 19 18 14 17 7 3 3 2 1 4 8 3 4 9 5 7 5 6 2 3 4 4 5 3 3 3 4 5 4 1 4 4 3 7 7 7 8
26 24 22 20 21 21 21 24 26 24 21 19 12 10 3 4 2 2 4 9 3 0 6 5 4 3 3 5 3 1 2 1 1 1 2 1 1 4 4 2 5 7 7 8 4 3 4
23 24 23 21 20 21 21 22 25 26 25 22 7 8 6 3 1 4 5 2 2 6 2 3 3 3 8 5 4 3 2 3 2 1 3 4 5 3 4 2 2 2 4 1 3 4 3
21 25 23 22 20 22 23 22 22 24 27 14 8 9 7 6 7 8 4 1 11 5 6 1 2 1 4 5 3 4 3 4 4 2 2 1 3 6 8 3 2 4 2 3 4 3 6
19 23 24 22 22 21 23 23 21 22 24 9 4 3 6 10 8 7 1 7 3 3 3 2 2 2 3 3 4 2 2 1 1 1 3 3 2 2 3 1 2 4 3 2 3 5 4
19 19 23 23 23 22 23 22 20 20 20 8 3 1 6 11 11 5 5 6 4 2 1 2 4 4 4 4 2 3 2 3 2 0 2 4 3 2 4 2 5 2 3 3 3 3 4
19 19 22 23 25 24 24 21 19 21 14 6 3 1 8 12 5 4 4 5 4 2 2 1 4 4 5 3 3 4 5 4 1 5 2 3 2 2 3 7 4 4 3 2 2 4 3
17 19 21 24 25 24 24 21 21 20 14 7 4 2 10 10 3 2 4 3 2 1 2 1 1 2 4 4 3 2 3 3 1 2 3 1 3 4 6 2 2 2 1 2 4 3 6
15 18 19 22 24 24 22 23 22 19 15 2 2 2 5 4 3 4 3 3 2 1 1 2 2 2 2 0 1 2 3 2 2 1 4 2 2 4 3 4 6 6 8 5 8 2 8
14 16 18 20 23 23 22 22 23 18 12 3 1 2 2 2 2 2 1 2 0 1 1 3 2 4 4 3 2 1 2 3 2 5 1 2 6 8 8 9 4 7 7 10 9 4 7
12 14 16 18 21 21 21 21 23 19 9 2 3 2 2 1 2 3 2 1 2 1 3 2 2 5 5 3 3 3 3 4 6 6 5 4 5 7 14 17 16 16 15 12 14 17 7
13 12 15 16 18 19 19 19 21 21 7 4 2 1 1 1 0 2 2 3 2 2 2 1 4 4 5 6 8 10 7 5 4 5 4 3 4 8 7 6 8 14 17 17 17 17 18
12 12 14 14 16 17 16 17 18 21 8 4 2 1 3 1 1 3 1 1 3 1 4 1 3 5 6 3 8 11 11 13 12 6 5 4 5 6 5 4 12 13 19 20 15 12 15
12 11 12 13 14 15 14 14 14 16 15 4 1 0 3 2 5 3 1 3 5 4 3 3 3 3 1 8 13 10 9 11 11 11 9 7 7 4 6 10 4 3 3 7 16 12 13
12 11 10 12 13 13 12 12 12 12 12 8 3 1 0 3 3 5 7 5 5 6 6 8 7 4 5 6 4 6 4 4 4 7 9 9 5 4 4 7 17 12 2 3 3 9 7
13 11 10 10 12 11 11 10 10 10 10 6 6 3 3 2 1 3 4 6 6 7 5 5 2 3 3 3 3 3 4 2 2 4 2 6 8 4 3 4 5 3 3 1 1 4 6
15 12 10 9 11 11 10 9 9 8 7 5 2 4 4 3 3 4 4 4 2 2 4 1 3 3 3 3 5 4 5 1 4 3 5 4 6 11 10 8 9 5 5 2 3 3 5
16 13 10 10 10 11 11 10 9 8 6 5 3 1 1 3 5 8 6 6 3 3 4 3 2 3 3 4 3 3 3 2 4 6 3 7 5 5 5 5 9 9 5 5 2 2 4
17 15 12 11 11 11 12 12 11 9 7 4 3 3 4 5 4 6 12 13 10 2 3 3 4 2 2 3 2 2 4 3 5 5 4 5 9 3 8 5 4 7 7 2 3 8 12

GFSGBSN_925_spd_120.txt.gz
Wind_Speed
24 25 28 29 31 33 32 30 27 26 27 27 25 24 24 22 20 16 14 13 12 11 10 10 4 20 7 8 6 7 3 8 7 5 7 5 5 5 6 6 5 3 4 2 2 2 3
24 25 27 29 29 31 31 29 27 27 27 25 25 25 23 22 19 14 9 8 8 10 10 11 11 9 6 8 9 9 5 12 8 4 4 1 3 5 7 7 2 5 5 1 1 2 4
24 25 25 27 28 28 29 28 28 28 26 24 24 26 26 22 19 12 9 8 8 9 9 7 18 19 23 9 13 6 16 14 7 9 6 8 5 3 5 4 2 3 2 6 6 1 1
24 24 24 25 27 27 28 27 27 26 26 25 25 27 25 28 28 28 20 14 13 11 11 13 15 22 7 12 18 20 14 14 11 13 11 8 11 6 4 5 3 3 1 2 3 4 3
24 24 24 24 25 26 26 27 25 25 25 25 24 23 19 20 25 33 29 24 24 22 22 22 14 7 6 9 10 12 5 10 11 11 10 7 4 3 3 2 3 2 1 2 5 3 2
23 24 24 23 23 24 24 26 26 25 25 24 22 18 14 14 16 18 18 28 28 22 19 18 6 5 5 5 5 7 6 6 5 7 5 2 2 3 1 1 2 3 2 1 3 5 5
25 23 24 24 23 22 22 23 24 25 24 22 20 16 11 11 14 12 8 3 4 7 22 11 11 15 8 5 6 3 6 7 3 4 3 1 2 3 2 8 6 6 4 2 4 8 3
24 24 23 23 23 22 22 23 22 22 22 21 17 10 7 10 21 13 17 5 4 4 12 14 14 8 6 2 7 8 2 1 3 5 2 2 7 8 6 3 2 1 3 3 5 3 5
24 25 24 24 23 22 22 22 22 21 20 19 18 11 6 8 9 17 18 8 5 4 4 12 9 7 3 2 8 11 11 5 4 4 3 8 6 5 2 1 1 5 2 5 3 8 7
25 25 25 24 24 22 21 21 21 20 20 18 15 13 6 4 4 2 5 4 4 4 4 9 10 7 6 3 5 7 9 4 3 5 7 7 2 3 1 1 1 3 6 3 4 6 2
25 25 25 25 24 24 22 21 20 19 19 14 11 10 7 7 5 3 4 6 6 2 5 7 6 4 5 6 1 5 5 3 8 5 3 3 5 3 3 3 1 5 5 5 5 6 4
22 27 25 26 24 24 24 22 20 18 20 13 8 8 5 5 4 5 10 12 4 3 6 5 4 4 4 7 4 1 1 0 1 1 1 5 3 3 4 3 2 7 5 6 3 2 3
20 24 26 26 24 24 25 23 21 19 19 9 9 8 6 5 2 9 12 6 4 6 2 4 4 5 9 7 6 5 5 6 3 3 3 3 3 3 1 2 1 2 2 1 2 1 4
20 21 26 25 25 24 25 23 21 20 17 5 9 10 9 8 5 6 4 2 9 0 7 2 2 2 5 6 4 4 3 3 4 3 3 2 1 6 8 3 1 1 1 1 3 3 3
19 20 23 25 27 25 25 23 21 21 15 5 6 5 2 9 6 4 2 7 3 1 1 3 4 2 4 4 1 1 4 3 2 1 3 1 3 4 6 2 1 2 1 2 1 4 2
18 19 22 25 27 25 24 23 24 21 14 6 1 2 3 11 7 3 4 5 4 0 2 4 4 3 4 4 2 1 3 2 3 1 1 2 1 3 4 1 2 2 2 1 2 3 4
17 19 20 24 26 26 25 25 26 22 11 5 1 2 5 12 3 1 3 4 4 2 2 3 3 3 4 3 3 3 4 3 3 4 1 1 1 2 4 6 7 3 3 1 2 2 2
18 19 20 23 25 25 25 25 27 22 11 5 3 2 10 8 3 3 3 4 3 1 1 1 3 3 4 3 3 0 3 4 3 4 2 2 3 3 5 5 3 4 3 4 2 0 3
20 18 19 21 24 25 24 25 27 21 15 4 2 1 5 6 3 3 2 3 4 2 1 2 1 2 3 4 3 2 4 2 3 2 5 2 2 4 1 2 3 2 5 3 2 2 5
20 19 19 19 23 24 23 24 27 21 12 3 2 2 3 2 2 2 3 3 1 3 3 3 4 1 3 2 3 4 4 3 3 2 4 3 3 4 4 3 4 5 4 11 6 3 5
17 18 19 19 20 22 22 23 25 23 12 4 3 1 1 2 3 3 3 2 3 2 4 3 3 1 4 3 2 2 3 3 6 6 3 2 4 5 8 14 13 14 13 11 14 13 7
16 15 17 18 18 20 20 21 22 24 9 6 2 1 3 1 2 2 3 3 3 3 3 5 3 4 3 4 2 3 4 2 1 6 3 5 4 6 7 13 8 10 14 16 18 16 20
13 14 14 16 15 17 18 19 19 22 12 5 4 2 3 2 1 2 1 2 1 2 3 3 2 3 6 4 2 7 6 8 7 3 2 3 2 3 5 7 11 7 6 15 11 12 9
12 13 12 13 14 13 15 16 17 17 16 6 4 3 2 1 2 4 1 1 4 5 4 1 2 4 4 6 8 11 12 10 11 10 7 3 2 3 4 7 3 7 3 1 6 11 12
12 13 13 12 13 12 11 13 14 14 13 11 6 4 3 3 1 4 3 5 5 4 4 5 6 2 5 5 4 6 2 3 8 7 9 7 3 3 2 3 10 9 3 2 1 3 5
13 13 13 12 12 11 11 10 10 12 11 7 8 6 2 3 1 2 4 5 3 5 5 6 3 3 2 2 2 3 3 3 1 3 3 4 6 2 2 2 5 2 4 1 2 5 4
15 14 14 12 11 11 10 10 8 8 10 6 2 5 1 2 2 2 3 2 2 4 3 1 4 3 2 2 3 3 4 1 3 3 5 3 4 9 6 5 8 4 8 4 3 5 5
17 15 14 12 10 10 10 10 9 7 8 8 4 1 3 2 5 5 2 3 1 2 3 1 2 2 2 3 3 4 3 2 2 5 4 7 6 5 5 5 9 7 4 6 2 3 3
19 17 15 14 11 11 11 10 10 8 6 6 5 3 2 5 5 5 12 16 9 2 2 2 1 2 2 1 2 2 3 3 4 4 1 4 6 3 7 6 4 7 4 4 4 3 3

GFSGBSN_925_spd_123.txt.gz
Wind_Speed
25 25 26 28 28 31 29 29 29 28 28 28 28 29 26 19 15 14 15 16 20 20 21 20 22 23 16 7 8 11 7 9 7 4 3 4 4 2 7 5 4 4 3 5 6 6 1
25 25 24 26 28 28 28 27 28 28 27 27 29 29 33 29 15 15 16 16 20 18 21 18 18 22 8 14 13 9 8 11 9 9 16 8 4 2 5 5 5 3 5 4 5 4 2
24 25 25 24 27 28 28 28 27 27 26 25 26 28 33 33 25 22 21 20 20 21 28 25 23 32 20 9 11 15 17 16 14 14 7 13 6 7 3 5 2 2 3 2 1 1 2
24 24 24 24 24 25 27 28 28 26 25 24 23 25 26 31 34 30 27 24 24 24 26 21 26 31 8 16 20 21 19 24 16 15 13 11 14 6 4 4 4 3 4 3 1 2 2
23 24 24 24 24 24 24 25 26 26 24 23 19 18 19 21 26 29 30 28 27 27 20 19 27 16 5 11 13 17 13 8 11 12 11 7 6 4 3 4 4 3 2 3 2 4 1
24 22 22 23 23 23 23 23 24 23 23 22 16 11 15 22 16 15 25 30 29 19 7 7 16 10 7 4 6 11 6 5 3 3 4 5 5 4 4 5 3 3 3 2 3 4 2
23 23 22 22 21 22 23 22 22 21 21 19 17 12 15 22 17 9 7 4 6 9 31 14 11 12 4 3 4 8 8 6 1 2 3 3 7 4 5 4 2 3 4 2 3 1 4
24 23 23 21 21 21 21 22 21 20 19 16 14 13 13 17 21 22 24 6 4 3 12 16 9 6 5 5 7 14 9 1 1 4 3 6 6 3 5 5 4 3 2 2 2 0 3
26 24 23 22 21 20 20 21 21 19 17 15 11 10 10 8 7 17 23 9 8 7 6 6 5 4 3 6 6 9 10 4 3 7 6 6 3 1 3 2 2 2 2 2 0 5 2
23 26 25 23 21 21 20 20 21 19 19 13 9 6 6 8 4 6 6 7 7 5 5 10 9 5 4 3 4 7 8 2 6 4 4 6 2 2 1 1 2 2 4 4 5 5 2
22 25 25 25 23 21 20 20 20 20 19 13 8 5 3 9 4 4 3 8 6 2 7 11 7 4 5 4 3 6 5 4 5 4 5 0 3 1 2 3 2 2 3 2 2 1 4
22 23 26 25 23 23 21 20 18 19 12 11 9 6 1 2 2 2 6 6 2 6 5 6 4 3 3 2 2 1 4 3 1 3 6 3 1 2 2 3 3 3 3 2 1 2 3
21 23 25 25 24 23 22 20 18 17 9 9 10 9 6 4 2 8 8 2 6 7 1 4 3 4 9 5 3 3 3 5 3 5 4 3 2 1 1 1 2 1 2 3 2 1 5
21 22 25 25 25 23 22 21 20 17 8 5 7 9 9 9 8 8 3 5 10 5 2 3 2 2 3 4 2 3 2 4 7 3 2 3 5 5 3 3 1 1 2 2 4 2 4
20 22 23 25 27 25 23 23 22 18 6 1 4 5 4 9 7 5 5 6 6 0 3 0 2 1 1 1 2 0 4 3 3 4 3 2 1 3 2 4 2 0 1 1 1 3 4
19 20 21 25 27 26 26 26 24 18 10 4 3 4 5 12 4 5 5 5 3 2 3 1 1 2 3 3 1 1 3 1 4 3 2 3 2 3 1 3 2 1 2 1 1 4 4
21 19 20 23 26 26 25 27 27 20 10 5 3 3 5 11 3 5 4 3 3 2 2 2 4 4 4 3 3 1 2 0 2 3 2 1 1 1 3 5 7 4 2 1 1 2 2
22 20 20 22 24 25 25 26 28 22 13 4 2 3 8 7 4 2 2 3 2 2 2 1 1 1 2 3 3 1 1 2 6 6 3 6 1 3 8 5 8 5 5 5 3 1 3
19 20 20 21 24 25 25 25 27 22 18 5 2 2 5 5 3 2 1 1 0 3 3 1 1 2 1 2 2 1 3 5 6 5 3 3 2 2 5 5 3 4 5 4 2 2 6
16 19 20 19 21 23 24 25 26 21 14 4 2 2 4 4 0 5 1 1 2 1 1 2 3 3 2 3 4 3 0 6 7 5 6 4 3 6 6 5 2 4 6 7 6 4 4
14 15 18 19 19 21 22 23 24 23 12 4 3 1 2 1 3 2 2 0 1 2 2 3 2 3 2 1 2 3 1 1 4 6 4 4 4 4 7 12 9 13 14 11 13 13 8
13 14 14 17 18 18 20 22 23 23 10 6 2 2 2 1 1 2 1 4 3 1 3 3 2 2 3 3 3 3 1 3 4 3 4 3 4 3 6 11 6 9 12 14 17 19 20
12 12 14 14 16 16 17 18 21 23 11 5 3 1 2 2 1 3 3 1 1 2 2 2 1 1 4 5 3 5 5 5 5 3 3 4 2 3 5 6 9 8 8 14 7 7 15
12 12 12 13 14 14 14 15 17 18 16 5 4 1 3 3 1 3 4 3 2 2 3 3 2 1 3 4 6 5 5 8 7 8 7 3 2 1 4 6 3 6 1 4 9 8 11
13 13 12 13 13 13 12 12 13 14 13 10 6 3 2 2 3 5 3 2 2 2 4 4 5 2 3 5 4 6 3 2 3 5 7 6 4 3 2 3 9 10 2 4 4 6 3
15 14 12 12 12 12 11 10 10 10 10 7 8 6 2 1 3 3 2 2 2 2 4 4 3 2 3 0 1 2 4 4 2 1 3 5 4 3 2 2 5 5 2 2 2 5 4
17 16 14 13 11 11 10 9 8 8 8 7 2 6 2 1 4 1 3 3 3 0 2 2 2 2 3 1 1 3 4 2 3 3 5 3 4 11 9 5 9 8 6 4 2 6 6
21 18 16 13 12 11 11 9 8 6 6 6 3 2 1 2 5 3 3 3 1 2 3 2 3 3 2 1 2 3 3 4 2 3 5 7 6 5 4 4 10 7 4 7 5 3 5
24 21 19 16 13 13 12 10 9 7 6 4 2 1 3 4 5 5 12 15 11 6 4 2 5 5 4 2 1 2 3 2 3 4 1 4 7 4 9 7 6 9 8 8 6 6 6

GFSGBSN_925_spd_126.txt.gz
Wind_Speed
21 21 22 24 25 25 26 25 25 25 25 26 30 37 28 22 20 17 16 19 21 23 30 34 20 18 17 9 6 16 10 9 9 10 6 5 5 5 5 5 4 5 3 5 4 5 4
21 21 22 22 24 25 25 26 24 24 24 23 26 32 34 26 22 19 18 22 27 23 28 35 31 27 23 17 15 16 15 19 19 22 16 10 3 5 6 4 5 2 5 6 4 3 4
21 21 21 22 22 23 23 24 24 23 22 21 23 27 31 28 24 22 21 26 28 28 27 29 31 35 25 13 12 18 23 20 18 22 10 11 6 6 3 5 2 2 4 4 5 2 2
22 21 21 21 22 22 23 22 22 22 20 18 22 24 27 23 26 23 23 25 30 27 24 19 26 27 8 16 17 26 21 21 18 18 15 11 12 8 4 4 5 5 5 3 1 1 0
23 22 21 21 21 22 22 22 21 20 20 18 18 22 24 17 22 24 25 18 21 25 26 16 23 12 7 11 8 15 15 8 12 14 13 10 7 5 4 4 4 5 3 3 1 4 2
23 23 21 21 20 19 21 20 20 19 18 17 18 22 22 15 11 16 15 28 33 12 10 11 20 10 7 4 5 12 12 8 7 4 6 8 6 4 4 4 4 4 3 2 2 3 3
23 23 22 21 20 19 18 20 19 17 16 14 15 19 20 22 19 15 4 3 8 8 26 14 8 9 2 3 5 10 10 5 3 6 5 5 7 4 3 2 3 5 4 3 1 1 2
24 24 22 22 19 19 19 18 18 18 15 12 11 12 11 16 21 21 26 6 4 4 10 14 8 4 4 3 6 15 9 5 5 5 3 6 4 1 2 4 5 5 4 2 2 2 2
22 25 24 22 20 19 18 18 18 18 17 12 7 7 3 8 12 13 22 9 6 5 6 5 4 5 4 5 4 9 7 3 7 6 6 6 2 1 3 4 5 5 3 2 1 6 2
21 23 23 22 21 20 19 19 17 17 17 11 8 5 3 8 2 7 4 6 3 2 5 9 9 4 5 2 5 5 6 3 6 4 4 6 3 3 3 4 3 3 3 2 2 4 2
19 21 22 21 21 20 19 18 17 15 14 12 9 7 5 7 1 2 5 10 5 2 7 14 7 5 6 6 2 9 8 7 5 3 5 2 2 4 6 3 3 2 2 1 1 1 4
18 21 22 21 20 20 20 20 18 14 11 11 10 7 3 3 2 3 7 7 2 7 4 8 6 6 4 5 4 4 5 5 2 5 6 3 1 2 1 2 2 1 2 3 3 3 3
19 20 22 22 21 20 20 21 20 15 9 9 9 8 7 4 5 5 4 3 6 7 3 4 3 6 7 5 3 3 4 5 3 4 4 5 3 1 2 2 4 2 5 3 5 2 5
19 20 21 23 24 21 21 21 19 14 7 6 7 7 6 6 7 6 2 6 10 5 5 2 2 3 2 3 3 2 3 4 5 3 3 4 5 3 3 4 1 3 5 4 4 1 4
19 19 20 22 24 23 23 23 20 16 10 7 8 6 4 10 5 3 5 6 6 4 2 4 1 1 2 2 3 3 2 3 1 2 4 3 0 2 1 2 2 1 2 3 0 2 3
22 19 19 22 23 23 24 26 22 17 12 7 8 4 5 12 6 4 6 4 2 1 2 1 1 3 2 2 1 2 3 2 3 1 0 0 2 3 2 1 2 1 3 2 1 2 4
21 20 20 21 23 24 24 26 27 20 10 6 4 3 7 11 4 6 4 3 2 1 1 1 1 2 2 1 3 3 1 1 2 1 4 2 2 3 2 5 7 3 3 2 1 3 2
18 20 21 21 23 24 25 26 28 22 12 4 3 3 10 8 4 2 2 3 1 0 1 2 1 2 1 3 1 2 4 4 7 7 4 4 3 3 8 3 6 3 5 6 3 4 3
16 19 21 21 22 24 26 26 27 22 17 4 2 2 5 5 3 2 1 3 2 3 2 1 2 2 0 2 1 1 1 1 8 7 5 4 2 2 6 4 1 4 5 5 3 2 7
16 18 19 21 22 22 24 26 26 23 14 4 3 3 4 4 1 5 3 1 2 2 2 2 2 1 2 2 2 2 2 2 5 4 5 3 3 6 6 4 4 5 6 7 7 5 4
14 16 18 20 21 22 22 24 25 24 12 3 3 0 2 2 4 2 2 4 2 2 2 3 2 4 3 2 1 3 1 0 1 3 3 3 4 4 7 11 8 12 13 9 14 14 8
11 13 15 18 20 21 21 22 24 25 10 7 3 2 2 0 1 3 3 5 6 2 5 3 3 2 2 4 5 2 2 3 5 2 5 2 4 2 5 9 6 10 14 16 21 20 20
9 11 13 14 17 19 20 20 22 23 12 5 3 1 3 2 1 3 2 2 3 2 3 4 4 1 3 6 4 5 6 4 4 7 6 4 2 2 5 5 8 9 10 16 7 6 16
9 9 11 12 13 15 16 17 18 19 17 5 3 3 3 2 1 3 1 1 3 3 3 2 4 4 4 0 5 3 4 7 7 7 6 4 3 2 4 6 2 6 2 5 11 10 14
11 10 9 11 10 11 13 13 13 14 13 9 4 2 3 3 2 4 2 3 3 4 3 4 5 4 1 3 2 5 3 2 1 3 7 6 3 3 2 2 9 9 1 6 7 7 9
14 11 9 11 10 10 10 10 9 9 10 6 7 3 3 3 4 2 1 1 2 2 5 4 2 1 2 2 2 1 3 3 2 2 5 5 3 3 1 2 5 5 2 2 3 6 7
16 14 13 11 10 10 9 9 8 7 7 6 2 3 1 2 4 3 3 4 3 1 3 3 2 2 2 1 2 4 4 3 3 4 5 4 4 11 10 7 9 10 4 2 1 6 5
20 19 17 14 12 11 10 9 8 7 6 6 4 2 2 2 5 6 4 4 2 2 2 2 3 1 2 1 2 3 3 4 2 3 6 7 7 5 5 6 11 7 4 7 5 1 4
24 22 21 18 16 13 12 10 9 8 8 6 3 3 3 4 5 6 10 12 8 5 4 2 3 3 4 2 2 1 3 2 4 4 2 3 7 6 11 8 5 7 7 8 3 4 6